<?xml version="1.0" encoding="UTF-8" standalone="no" ?>
<gpx xmlns="http://www.topografix.com/GPX/1/1" xmlns:xsi="http://www.w3.org/2001/XMLSchema-instance" xsi:schemaLocation="http://www.topografix.com/GPX/1/1 http://www.topografix.com/GPX/1/1/gpx.xsd" version="1.1" creator="VisuGPX - https://www.visugpx.com">
  <metadata>
    <name>Sortie VTT Lol Phil</name>
    <desc><![CDATA[Sortie VTT 15/08/2011]]></desc>
  </metadata>
  <trk>
    <name><![CDATA[2011-08-15T06:38:49Z]]></name>
    <trkseg>
      <trkpt lat="50.33071" lon="3.41334">
        <ele>31.380127</ele>
        <time>2011-08-15T06:38:49Z</time>
      </trkpt>
      <trkpt lat="50.33067" lon="3.41296">
        <ele>30.4188232</ele>
        <time>2011-08-15T06:38:55Z</time>
      </trkpt>
      <trkpt lat="50.33066" lon="3.41289">
        <ele>29.9381104</ele>
        <time>2011-08-15T06:38:56Z</time>
      </trkpt>
      <trkpt lat="50.33048" lon="3.41223">
        <ele>28.0155029</ele>
        <time>2011-08-15T06:39:05Z</time>
      </trkpt>
      <trkpt lat="50.33028" lon="3.41151">
        <ele>27.5349121</ele>
        <time>2011-08-15T06:39:14Z</time>
      </trkpt>
      <trkpt lat="50.33005" lon="3.41063">
        <ele>26.5736084</ele>
        <time>2011-08-15T06:39:24Z</time>
      </trkpt>
      <trkpt lat="50.32986" lon="3.40987">
        <ele>28.9769287</ele>
        <time>2011-08-15T06:39:32Z</time>
      </trkpt>
      <trkpt lat="50.32968" lon="3.40899">
        <ele>29.9381104</ele>
        <time>2011-08-15T06:39:41Z</time>
      </trkpt>
      <trkpt lat="50.32956" lon="3.4082">
        <ele>28.9769287</ele>
        <time>2011-08-15T06:39:49Z</time>
      </trkpt>
      <trkpt lat="50.32937" lon="3.40711">
        <ele>31.380127</ele>
        <time>2011-08-15T06:40:00Z</time>
      </trkpt>
      <trkpt lat="50.32927" lon="3.40644">
        <ele>32.3415527</ele>
        <time>2011-08-15T06:40:07Z</time>
      </trkpt>
      <trkpt lat="50.32922" lon="3.40594">
        <ele>32.8222656</ele>
        <time>2011-08-15T06:40:13Z</time>
      </trkpt>
      <trkpt lat="50.32922" lon="3.40586">
        <ele>32.8222656</ele>
        <time>2011-08-15T06:40:14Z</time>
      </trkpt>
      <trkpt lat="50.32921" lon="3.4057">
        <ele>33.3028564</ele>
        <time>2011-08-15T06:40:16Z</time>
      </trkpt>
      <trkpt lat="50.32911" lon="3.40546">
        <ele>33.7834473</ele>
        <time>2011-08-15T06:40:20Z</time>
      </trkpt>
      <trkpt lat="50.32894" lon="3.40546">
        <ele>33.7834473</ele>
        <time>2011-08-15T06:40:23Z</time>
      </trkpt>
      <trkpt lat="50.32856" lon="3.40559">
        <ele>34.744873</ele>
        <time>2011-08-15T06:40:29Z</time>
      </trkpt>
      <trkpt lat="50.32821" lon="3.40576">
        <ele>34.744873</ele>
        <time>2011-08-15T06:40:35Z</time>
      </trkpt>
      <trkpt lat="50.32786" lon="3.40601">
        <ele>34.2641602</ele>
        <time>2011-08-15T06:40:41Z</time>
      </trkpt>
      <trkpt lat="50.32751" lon="3.40636">
        <ele>34.744873</ele>
        <time>2011-08-15T06:40:47Z</time>
      </trkpt>
      <trkpt lat="50.32706" lon="3.40689">
        <ele>33.7834473</ele>
        <time>2011-08-15T06:40:55Z</time>
      </trkpt>
      <trkpt lat="50.32672" lon="3.40731">
        <ele>33.7834473</ele>
        <time>2011-08-15T06:41:01Z</time>
      </trkpt>
      <trkpt lat="50.32637" lon="3.40771">
        <ele>32.8222656</ele>
        <time>2011-08-15T06:41:07Z</time>
      </trkpt>
      <trkpt lat="50.32607" lon="3.40786">
        <ele>33.3028564</ele>
        <time>2011-08-15T06:41:12Z</time>
      </trkpt>
      <trkpt lat="50.32584" lon="3.40799">
        <ele>32.3415527</ele>
        <time>2011-08-15T06:41:16Z</time>
      </trkpt>
      <trkpt lat="50.32573" lon="3.40822">
        <ele>31.8607178</ele>
        <time>2011-08-15T06:41:19Z</time>
      </trkpt>
      <trkpt lat="50.32556" lon="3.40838">
        <ele>32.3415527</ele>
        <time>2011-08-15T06:41:22Z</time>
      </trkpt>
      <trkpt lat="50.32509" lon="3.40859">
        <ele>32.3415527</ele>
        <time>2011-08-15T06:41:30Z</time>
      </trkpt>
      <trkpt lat="50.32456" lon="3.40869">
        <ele>35.2254639</ele>
        <time>2011-08-15T06:41:39Z</time>
      </trkpt>
      <trkpt lat="50.32409" lon="3.40874">
        <ele>37.1480713</ele>
        <time>2011-08-15T06:41:47Z</time>
      </trkpt>
      <trkpt lat="50.32379" lon="3.40876">
        <ele>36.1867676</ele>
        <time>2011-08-15T06:41:52Z</time>
      </trkpt>
      <trkpt lat="50.32324" lon="3.40881">
        <ele>35.2254639</ele>
        <time>2011-08-15T06:42:01Z</time>
      </trkpt>
      <trkpt lat="50.32265" lon="3.40888">
        <ele>34.744873</ele>
        <time>2011-08-15T06:42:10Z</time>
      </trkpt>
      <trkpt lat="50.32206" lon="3.40893">
        <ele>32.3415527</ele>
        <time>2011-08-15T06:42:19Z</time>
      </trkpt>
      <trkpt lat="50.32192" lon="3.40879">
        <ele>30.4188232</ele>
        <time>2011-08-15T06:42:23Z</time>
      </trkpt>
      <trkpt lat="50.32198" lon="3.40857">
        <ele>27.0543213</ele>
        <time>2011-08-15T06:42:26Z</time>
      </trkpt>
      <trkpt lat="50.32201" lon="3.40817">
        <ele>24.651001</ele>
        <time>2011-08-15T06:42:31Z</time>
      </trkpt>
      <trkpt lat="50.32201" lon="3.40779">
        <ele>29.9381104</ele>
        <time>2011-08-15T06:42:35Z</time>
      </trkpt>
      <trkpt lat="50.322" lon="3.40761">
        <ele>29.9381104</ele>
        <time>2011-08-15T06:42:37Z</time>
      </trkpt>
      <trkpt lat="50.32198" lon="3.40735">
        <ele>28.9769287</ele>
        <time>2011-08-15T06:42:40Z</time>
      </trkpt>
      <trkpt lat="50.32175" lon="3.40631">
        <ele>29.4575195</ele>
        <time>2011-08-15T06:42:51Z</time>
      </trkpt>
      <trkpt lat="50.3216" lon="3.40575">
        <ele>30.4188232</ele>
        <time>2011-08-15T06:42:57Z</time>
      </trkpt>
      <trkpt lat="50.32151" lon="3.40526">
        <ele>31.380127</ele>
        <time>2011-08-15T06:43:02Z</time>
      </trkpt>
      <trkpt lat="50.3213" lon="3.40459">
        <ele>30.8995361</ele>
        <time>2011-08-15T06:43:09Z</time>
      </trkpt>
      <trkpt lat="50.32116" lon="3.4038">
        <ele>31.380127</ele>
        <time>2011-08-15T06:43:17Z</time>
      </trkpt>
      <trkpt lat="50.32101" lon="3.40334">
        <ele>31.8607178</ele>
        <time>2011-08-15T06:43:22Z</time>
      </trkpt>
      <trkpt lat="50.3208" lon="3.4026">
        <ele>31.8607178</ele>
        <time>2011-08-15T06:43:30Z</time>
      </trkpt>
      <trkpt lat="50.32064" lon="3.40184">
        <ele>32.3415527</ele>
        <time>2011-08-15T06:43:38Z</time>
      </trkpt>
      <trkpt lat="50.32062" lon="3.40175">
        <ele>32.8222656</ele>
        <time>2011-08-15T06:43:39Z</time>
      </trkpt>
      <trkpt lat="50.32047" lon="3.40132">
        <ele>32.8222656</ele>
        <time>2011-08-15T06:43:44Z</time>
      </trkpt>
      <trkpt lat="50.32038" lon="3.40094">
        <ele>31.8607178</ele>
        <time>2011-08-15T06:43:48Z</time>
      </trkpt>
      <trkpt lat="50.32034" lon="3.40075">
        <ele>32.8222656</ele>
        <time>2011-08-15T06:43:50Z</time>
      </trkpt>
      <trkpt lat="50.32025" lon="3.40051">
        <ele>31.8607178</ele>
        <time>2011-08-15T06:43:53Z</time>
      </trkpt>
      <trkpt lat="50.32003" lon="3.39977">
        <ele>33.3028564</ele>
        <time>2011-08-15T06:44:01Z</time>
      </trkpt>
      <trkpt lat="50.31991" lon="3.39931">
        <ele>33.3028564</ele>
        <time>2011-08-15T06:44:06Z</time>
      </trkpt>
      <trkpt lat="50.31976" lon="3.39878">
        <ele>32.8222656</ele>
        <time>2011-08-15T06:44:12Z</time>
      </trkpt>
      <trkpt lat="50.31964" lon="3.39842">
        <ele>31.8607178</ele>
        <time>2011-08-15T06:44:16Z</time>
      </trkpt>
      <trkpt lat="50.31928" lon="3.39773">
        <ele>30.8995361</ele>
        <time>2011-08-15T06:44:25Z</time>
      </trkpt>
      <trkpt lat="50.31906" lon="3.3973">
        <ele>31.8607178</ele>
        <time>2011-08-15T06:44:31Z</time>
      </trkpt>
      <trkpt lat="50.31885" lon="3.39691">
        <ele>32.3415527</ele>
        <time>2011-08-15T06:44:37Z</time>
      </trkpt>
      <trkpt lat="50.31879" lon="3.39664">
        <ele>32.3415527</ele>
        <time>2011-08-15T06:44:41Z</time>
      </trkpt>
      <trkpt lat="50.3188" lon="3.39657">
        <ele>32.3415527</ele>
        <time>2011-08-15T06:44:42Z</time>
      </trkpt>
      <trkpt lat="50.31881" lon="3.3962">
        <ele>32.3415527</ele>
        <time>2011-08-15T06:44:47Z</time>
      </trkpt>
      <trkpt lat="50.31893" lon="3.39606">
        <ele>32.8222656</ele>
        <time>2011-08-15T06:44:50Z</time>
      </trkpt>
      <trkpt lat="50.31898" lon="3.39603">
        <ele>32.8222656</ele>
        <time>2011-08-15T06:44:51Z</time>
      </trkpt>
      <trkpt lat="50.31937" lon="3.39579">
        <ele>32.8222656</ele>
        <time>2011-08-15T06:44:58Z</time>
      </trkpt>
      <trkpt lat="50.31942" lon="3.39576">
        <ele>33.3028564</ele>
        <time>2011-08-15T06:44:59Z</time>
      </trkpt>
      <trkpt lat="50.31951" lon="3.39564">
        <ele>32.8222656</ele>
        <time>2011-08-15T06:45:03Z</time>
      </trkpt>
      <trkpt lat="50.31949" lon="3.39548">
        <ele>32.3415527</ele>
        <time>2011-08-15T06:45:06Z</time>
      </trkpt>
      <trkpt lat="50.31949" lon="3.39524">
        <ele>31.380127</ele>
        <time>2011-08-15T06:45:09Z</time>
      </trkpt>
      <trkpt lat="50.31936" lon="3.3946">
        <ele>30.8995361</ele>
        <time>2011-08-15T06:45:16Z</time>
      </trkpt>
      <trkpt lat="50.31922" lon="3.39406">
        <ele>30.8995361</ele>
        <time>2011-08-15T06:45:22Z</time>
      </trkpt>
      <trkpt lat="50.31902" lon="3.39325">
        <ele>30.8995361</ele>
        <time>2011-08-15T06:45:31Z</time>
      </trkpt>
      <trkpt lat="50.31886" lon="3.39261">
        <ele>30.4188232</ele>
        <time>2011-08-15T06:45:38Z</time>
      </trkpt>
      <trkpt lat="50.3188" lon="3.39236">
        <ele>30.4188232</ele>
        <time>2011-08-15T06:45:41Z</time>
      </trkpt>
      <trkpt lat="50.31872" lon="3.3919">
        <ele>28.9769287</ele>
        <time>2011-08-15T06:45:47Z</time>
      </trkpt>
      <trkpt lat="50.3187" lon="3.39182">
        <ele>28.9769287</ele>
        <time>2011-08-15T06:45:48Z</time>
      </trkpt>
      <trkpt lat="50.31857" lon="3.39139">
        <ele>28.9769287</ele>
        <time>2011-08-15T06:45:53Z</time>
      </trkpt>
      <trkpt lat="50.31834" lon="3.39102">
        <ele>30.4188232</ele>
        <time>2011-08-15T06:45:58Z</time>
      </trkpt>
      <trkpt lat="50.31826" lon="3.39068">
        <ele>32.3415527</ele>
        <time>2011-08-15T06:46:02Z</time>
      </trkpt>
      <trkpt lat="50.31826" lon="3.3906">
        <ele>32.3415527</ele>
        <time>2011-08-15T06:46:03Z</time>
      </trkpt>
      <trkpt lat="50.31817" lon="3.38999">
        <ele>32.3415527</ele>
        <time>2011-08-15T06:46:10Z</time>
      </trkpt>
      <trkpt lat="50.31813" lon="3.3898">
        <ele>32.3415527</ele>
        <time>2011-08-15T06:46:12Z</time>
      </trkpt>
      <trkpt lat="50.31795" lon="3.38898">
        <ele>32.8222656</ele>
        <time>2011-08-15T06:46:21Z</time>
      </trkpt>
      <trkpt lat="50.31778" lon="3.38844">
        <ele>33.3028564</ele>
        <time>2011-08-15T06:46:27Z</time>
      </trkpt>
      <trkpt lat="50.31757" lon="3.38771">
        <ele>32.8222656</ele>
        <time>2011-08-15T06:46:35Z</time>
      </trkpt>
      <trkpt lat="50.3173" lon="3.38693">
        <ele>33.3028564</ele>
        <time>2011-08-15T06:46:44Z</time>
      </trkpt>
      <trkpt lat="50.3171" lon="3.38641">
        <ele>33.3028564</ele>
        <time>2011-08-15T06:46:50Z</time>
      </trkpt>
      <trkpt lat="50.31684" lon="3.38581">
        <ele>33.7834473</ele>
        <time>2011-08-15T06:46:57Z</time>
      </trkpt>
      <trkpt lat="50.31656" lon="3.38525">
        <ele>32.3415527</ele>
        <time>2011-08-15T06:47:04Z</time>
      </trkpt>
      <trkpt lat="50.31636" lon="3.38487">
        <ele>31.8607178</ele>
        <time>2011-08-15T06:47:09Z</time>
      </trkpt>
      <trkpt lat="50.31628" lon="3.38472">
        <ele>31.8607178</ele>
        <time>2011-08-15T06:47:11Z</time>
      </trkpt>
      <trkpt lat="50.3158" lon="3.38395">
        <ele>30.4188232</ele>
        <time>2011-08-15T06:47:22Z</time>
      </trkpt>
      <trkpt lat="50.3154" lon="3.38333">
        <ele>29.4575195</ele>
        <time>2011-08-15T06:47:31Z</time>
      </trkpt>
      <trkpt lat="50.315" lon="3.38271">
        <ele>29.4575195</ele>
        <time>2011-08-15T06:47:40Z</time>
      </trkpt>
      <trkpt lat="50.3146" lon="3.38208">
        <ele>28.9769287</ele>
        <time>2011-08-15T06:47:49Z</time>
      </trkpt>
      <trkpt lat="50.3145" lon="3.38183">
        <ele>28.9769287</ele>
        <time>2011-08-15T06:47:52Z</time>
      </trkpt>
      <trkpt lat="50.3142" lon="3.38134">
        <ele>28.9769287</ele>
        <time>2011-08-15T06:47:59Z</time>
      </trkpt>
      <trkpt lat="50.31381" lon="3.38072">
        <ele>29.4575195</ele>
        <time>2011-08-15T06:48:08Z</time>
      </trkpt>
      <trkpt lat="50.31344" lon="3.38008">
        <ele>29.4575195</ele>
        <time>2011-08-15T06:48:17Z</time>
      </trkpt>
      <trkpt lat="50.31309" lon="3.37943">
        <ele>29.9381104</ele>
        <time>2011-08-15T06:48:26Z</time>
      </trkpt>
      <trkpt lat="50.3128" lon="3.37882">
        <ele>30.4188232</ele>
        <time>2011-08-15T06:48:34Z</time>
      </trkpt>
      <trkpt lat="50.31252" lon="3.37822">
        <ele>30.4188232</ele>
        <time>2011-08-15T06:48:42Z</time>
      </trkpt>
      <trkpt lat="50.31223" lon="3.3775">
        <ele>30.8995361</ele>
        <time>2011-08-15T06:48:51Z</time>
      </trkpt>
      <trkpt lat="50.31206" lon="3.37712">
        <ele>30.8995361</ele>
        <time>2011-08-15T06:48:56Z</time>
      </trkpt>
      <trkpt lat="50.31191" lon="3.37686">
        <ele>30.8995361</ele>
        <time>2011-08-15T06:49:00Z</time>
      </trkpt>
      <trkpt lat="50.31184" lon="3.3767">
        <ele>30.8995361</ele>
        <time>2011-08-15T06:49:02Z</time>
      </trkpt>
      <trkpt lat="50.31154" lon="3.37582">
        <ele>31.380127</ele>
        <time>2011-08-15T06:49:13Z</time>
      </trkpt>
      <trkpt lat="50.31131" lon="3.37505">
        <ele>31.8607178</ele>
        <time>2011-08-15T06:49:22Z</time>
      </trkpt>
      <trkpt lat="50.31103" lon="3.37403">
        <ele>31.8607178</ele>
        <time>2011-08-15T06:49:34Z</time>
      </trkpt>
      <trkpt lat="50.31086" lon="3.37333">
        <ele>32.3415527</ele>
        <time>2011-08-15T06:49:42Z</time>
      </trkpt>
      <trkpt lat="50.31073" lon="3.3727">
        <ele>32.8222656</ele>
        <time>2011-08-15T06:49:49Z</time>
      </trkpt>
      <trkpt lat="50.31061" lon="3.37215">
        <ele>32.8222656</ele>
        <time>2011-08-15T06:49:55Z</time>
      </trkpt>
      <trkpt lat="50.31047" lon="3.37138">
        <ele>32.3415527</ele>
        <time>2011-08-15T06:50:03Z</time>
      </trkpt>
      <trkpt lat="50.31023" lon="3.37027">
        <ele>31.8607178</ele>
        <time>2011-08-15T06:50:15Z</time>
      </trkpt>
      <trkpt lat="50.31005" lon="3.36944">
        <ele>32.3415527</ele>
        <time>2011-08-15T06:50:24Z</time>
      </trkpt>
      <trkpt lat="50.30989" lon="3.3686">
        <ele>32.3415527</ele>
        <time>2011-08-15T06:50:33Z</time>
      </trkpt>
      <trkpt lat="50.30982" lon="3.36823">
        <ele>32.3415527</ele>
        <time>2011-08-15T06:50:37Z</time>
      </trkpt>
      <trkpt lat="50.30982" lon="3.36784">
        <ele>32.3415527</ele>
        <time>2011-08-15T06:50:41Z</time>
      </trkpt>
      <trkpt lat="50.30982" lon="3.36746">
        <ele>32.3415527</ele>
        <time>2011-08-15T06:50:45Z</time>
      </trkpt>
      <trkpt lat="50.3098" lon="3.36738">
        <ele>32.3415527</ele>
        <time>2011-08-15T06:50:46Z</time>
      </trkpt>
      <trkpt lat="50.30973" lon="3.36717">
        <ele>32.3415527</ele>
        <time>2011-08-15T06:50:49Z</time>
      </trkpt>
      <trkpt lat="50.30951" lon="3.36678">
        <ele>32.8222656</ele>
        <time>2011-08-15T06:50:55Z</time>
      </trkpt>
      <trkpt lat="50.30919" lon="3.36623">
        <ele>33.3028564</ele>
        <time>2011-08-15T06:51:03Z</time>
      </trkpt>
      <trkpt lat="50.30903" lon="3.36572">
        <ele>33.3028564</ele>
        <time>2011-08-15T06:51:09Z</time>
      </trkpt>
      <trkpt lat="50.30881" lon="3.36495">
        <ele>33.3028564</ele>
        <time>2011-08-15T06:51:18Z</time>
      </trkpt>
      <trkpt lat="50.30858" lon="3.36417">
        <ele>32.8222656</ele>
        <time>2011-08-15T06:51:27Z</time>
      </trkpt>
      <trkpt lat="50.30835" lon="3.3634">
        <ele>32.8222656</ele>
        <time>2011-08-15T06:51:36Z</time>
      </trkpt>
      <trkpt lat="50.30818" lon="3.36288">
        <ele>33.3028564</ele>
        <time>2011-08-15T06:51:42Z</time>
      </trkpt>
      <trkpt lat="50.30789" lon="3.36204">
        <ele>33.7834473</ele>
        <time>2011-08-15T06:51:52Z</time>
      </trkpt>
      <trkpt lat="50.3078" lon="3.36179">
        <ele>33.7834473</ele>
        <time>2011-08-15T06:51:55Z</time>
      </trkpt>
      <trkpt lat="50.30755" lon="3.36113">
        <ele>33.7834473</ele>
        <time>2011-08-15T06:52:03Z</time>
      </trkpt>
      <trkpt lat="50.30718" lon="3.36024">
        <ele>34.2641602</ele>
        <time>2011-08-15T06:52:14Z</time>
      </trkpt>
      <trkpt lat="50.30698" lon="3.35977">
        <ele>33.7834473</ele>
        <time>2011-08-15T06:52:20Z</time>
      </trkpt>
      <trkpt lat="50.30664" lon="3.35905">
        <ele>33.7834473</ele>
        <time>2011-08-15T06:52:29Z</time>
      </trkpt>
      <trkpt lat="50.30637" lon="3.35849">
        <ele>33.3028564</ele>
        <time>2011-08-15T06:52:36Z</time>
      </trkpt>
      <trkpt lat="50.30607" lon="3.35791">
        <ele>32.3415527</ele>
        <time>2011-08-15T06:52:44Z</time>
      </trkpt>
      <trkpt lat="50.3058" lon="3.35739">
        <ele>31.8607178</ele>
        <time>2011-08-15T06:52:51Z</time>
      </trkpt>
      <trkpt lat="50.30549" lon="3.35682">
        <ele>31.380127</ele>
        <time>2011-08-15T06:52:59Z</time>
      </trkpt>
      <trkpt lat="50.30516" lon="3.35626">
        <ele>30.8995361</ele>
        <time>2011-08-15T06:53:07Z</time>
      </trkpt>
      <trkpt lat="50.30479" lon="3.35565">
        <ele>30.8995361</ele>
        <time>2011-08-15T06:53:16Z</time>
      </trkpt>
      <trkpt lat="50.3044" lon="3.35505">
        <ele>31.380127</ele>
        <time>2011-08-15T06:53:25Z</time>
      </trkpt>
      <trkpt lat="50.30396" lon="3.35434">
        <ele>31.8607178</ele>
        <time>2011-08-15T06:53:35Z</time>
      </trkpt>
      <trkpt lat="50.3036" lon="3.35373">
        <ele>31.8607178</ele>
        <time>2011-08-15T06:53:43Z</time>
      </trkpt>
      <trkpt lat="50.3032" lon="3.35305">
        <ele>31.8607178</ele>
        <time>2011-08-15T06:53:52Z</time>
      </trkpt>
      <trkpt lat="50.30284" lon="3.35247">
        <ele>32.3415527</ele>
        <time>2011-08-15T06:54:00Z</time>
      </trkpt>
      <trkpt lat="50.30235" lon="3.35164">
        <ele>32.3415527</ele>
        <time>2011-08-15T06:54:11Z</time>
      </trkpt>
      <trkpt lat="50.30199" lon="3.35106">
        <ele>31.8607178</ele>
        <time>2011-08-15T06:54:19Z</time>
      </trkpt>
      <trkpt lat="50.30164" lon="3.35045">
        <ele>33.3028564</ele>
        <time>2011-08-15T06:54:27Z</time>
      </trkpt>
      <trkpt lat="50.3016" lon="3.35038">
        <ele>33.7834473</ele>
        <time>2011-08-15T06:54:28Z</time>
      </trkpt>
      <trkpt lat="50.30138" lon="3.35005">
        <ele>32.8222656</ele>
        <time>2011-08-15T06:54:33Z</time>
      </trkpt>
      <trkpt lat="50.30124" lon="3.3498">
        <ele>31.8607178</ele>
        <time>2011-08-15T06:54:36Z</time>
      </trkpt>
      <trkpt lat="50.30089" lon="3.34924">
        <ele>32.3415527</ele>
        <time>2011-08-15T06:54:43Z</time>
      </trkpt>
      <trkpt lat="50.30079" lon="3.34909">
        <ele>32.3415527</ele>
        <time>2011-08-15T06:54:45Z</time>
      </trkpt>
      <trkpt lat="50.30035" lon="3.34835">
        <ele>32.3415527</ele>
        <time>2011-08-15T06:54:55Z</time>
      </trkpt>
      <trkpt lat="50.30009" lon="3.34791">
        <ele>32.3415527</ele>
        <time>2011-08-15T06:55:01Z</time>
      </trkpt>
      <trkpt lat="50.29969" lon="3.34723">
        <ele>32.3415527</ele>
        <time>2011-08-15T06:55:10Z</time>
      </trkpt>
      <trkpt lat="50.29937" lon="3.34665">
        <ele>32.3415527</ele>
        <time>2011-08-15T06:55:17Z</time>
      </trkpt>
      <trkpt lat="50.299" lon="3.34604">
        <ele>32.3415527</ele>
        <time>2011-08-15T06:55:25Z</time>
      </trkpt>
      <trkpt lat="50.2986" lon="3.34537">
        <ele>32.8222656</ele>
        <time>2011-08-15T06:55:34Z</time>
      </trkpt>
      <trkpt lat="50.29834" lon="3.34487">
        <ele>33.7834473</ele>
        <time>2011-08-15T06:55:41Z</time>
      </trkpt>
      <trkpt lat="50.29808" lon="3.34434">
        <ele>33.3028564</ele>
        <time>2011-08-15T06:55:48Z</time>
      </trkpt>
      <trkpt lat="50.29799" lon="3.34398">
        <ele>33.3028564</ele>
        <time>2011-08-15T06:55:52Z</time>
      </trkpt>
      <trkpt lat="50.29777" lon="3.34346">
        <ele>36.6674805</ele>
        <time>2011-08-15T06:55:58Z</time>
      </trkpt>
      <trkpt lat="50.2977" lon="3.34332">
        <ele>37.1480713</ele>
        <time>2011-08-15T06:56:00Z</time>
      </trkpt>
      <trkpt lat="50.29744" lon="3.34283">
        <ele>35.7060547</ele>
        <time>2011-08-15T06:56:07Z</time>
      </trkpt>
      <trkpt lat="50.29719" lon="3.34233">
        <ele>34.744873</ele>
        <time>2011-08-15T06:56:13Z</time>
      </trkpt>
      <trkpt lat="50.2969" lon="3.34179">
        <ele>33.3028564</ele>
        <time>2011-08-15T06:56:20Z</time>
      </trkpt>
      <trkpt lat="50.29642" lon="3.34097">
        <ele>33.3028564</ele>
        <time>2011-08-15T06:56:31Z</time>
      </trkpt>
      <trkpt lat="50.29596" lon="3.34028">
        <ele>33.7834473</ele>
        <time>2011-08-15T06:56:41Z</time>
      </trkpt>
      <trkpt lat="50.29543" lon="3.33954">
        <ele>33.7834473</ele>
        <time>2011-08-15T06:56:52Z</time>
      </trkpt>
      <trkpt lat="50.2949" lon="3.33882">
        <ele>33.7834473</ele>
        <time>2011-08-15T06:57:03Z</time>
      </trkpt>
      <trkpt lat="50.29452" lon="3.33829">
        <ele>33.7834473</ele>
        <time>2011-08-15T06:57:11Z</time>
      </trkpt>
      <trkpt lat="50.29419" lon="3.33784">
        <ele>33.7834473</ele>
        <time>2011-08-15T06:57:18Z</time>
      </trkpt>
      <trkpt lat="50.29367" lon="3.33712">
        <ele>33.3028564</ele>
        <time>2011-08-15T06:57:29Z</time>
      </trkpt>
      <trkpt lat="50.29319" lon="3.3365">
        <ele>34.2641602</ele>
        <time>2011-08-15T06:57:39Z</time>
      </trkpt>
      <trkpt lat="50.29284" lon="3.33609">
        <ele>34.2641602</ele>
        <time>2011-08-15T06:57:47Z</time>
      </trkpt>
      <trkpt lat="50.29261" lon="3.33573">
        <ele>33.7834473</ele>
        <time>2011-08-15T06:57:53Z</time>
      </trkpt>
      <trkpt lat="50.2923" lon="3.33524">
        <ele>32.3415527</ele>
        <time>2011-08-15T06:58:00Z</time>
      </trkpt>
      <trkpt lat="50.29188" lon="3.33466">
        <ele>32.3415527</ele>
        <time>2011-08-15T06:58:09Z</time>
      </trkpt>
      <trkpt lat="50.29146" lon="3.33408">
        <ele>32.8222656</ele>
        <time>2011-08-15T06:58:18Z</time>
      </trkpt>
      <trkpt lat="50.29111" lon="3.3336">
        <ele>32.3415527</ele>
        <time>2011-08-15T06:58:25Z</time>
      </trkpt>
      <trkpt lat="50.29075" lon="3.33311">
        <ele>31.8607178</ele>
        <time>2011-08-15T06:58:32Z</time>
      </trkpt>
      <trkpt lat="50.2903" lon="3.33251">
        <ele>30.8995361</ele>
        <time>2011-08-15T06:58:41Z</time>
      </trkpt>
      <trkpt lat="50.28988" lon="3.33193">
        <ele>30.4188232</ele>
        <time>2011-08-15T06:58:50Z</time>
      </trkpt>
      <trkpt lat="50.28948" lon="3.33137">
        <ele>29.4575195</ele>
        <time>2011-08-15T06:58:59Z</time>
      </trkpt>
      <trkpt lat="50.28909" lon="3.33084">
        <ele>28.9769287</ele>
        <time>2011-08-15T06:59:08Z</time>
      </trkpt>
      <trkpt lat="50.28892" lon="3.33061">
        <ele>28.4962158</ele>
        <time>2011-08-15T06:59:12Z</time>
      </trkpt>
      <trkpt lat="50.28867" lon="3.33041">
        <ele>29.4575195</ele>
        <time>2011-08-15T06:59:17Z</time>
      </trkpt>
      <trkpt lat="50.28839" lon="3.33005">
        <ele>29.4575195</ele>
        <time>2011-08-15T06:59:24Z</time>
      </trkpt>
      <trkpt lat="50.28806" lon="3.3296">
        <ele>28.4962158</ele>
        <time>2011-08-15T06:59:32Z</time>
      </trkpt>
      <trkpt lat="50.28802" lon="3.32954">
        <ele>28.4962158</ele>
        <time>2011-08-15T06:59:33Z</time>
      </trkpt>
      <trkpt lat="50.2879" lon="3.32925">
        <ele>28.0155029</ele>
        <time>2011-08-15T06:59:37Z</time>
      </trkpt>
      <trkpt lat="50.2876" lon="3.32879">
        <ele>28.9769287</ele>
        <time>2011-08-15T06:59:44Z</time>
      </trkpt>
      <trkpt lat="50.28726" lon="3.32832">
        <ele>29.4575195</ele>
        <time>2011-08-15T06:59:52Z</time>
      </trkpt>
      <trkpt lat="50.287" lon="3.32796">
        <ele>29.4575195</ele>
        <time>2011-08-15T06:59:58Z</time>
      </trkpt>
      <trkpt lat="50.28676" lon="3.3276">
        <ele>29.9381104</ele>
        <time>2011-08-15T07:00:04Z</time>
      </trkpt>
      <trkpt lat="50.28645" lon="3.32712">
        <ele>29.4575195</ele>
        <time>2011-08-15T07:00:12Z</time>
      </trkpt>
      <trkpt lat="50.28618" lon="3.32668">
        <ele>28.9769287</ele>
        <time>2011-08-15T07:00:19Z</time>
      </trkpt>
      <trkpt lat="50.28589" lon="3.32616">
        <ele>28.9769287</ele>
        <time>2011-08-15T07:00:27Z</time>
      </trkpt>
      <trkpt lat="50.28556" lon="3.32554">
        <ele>28.4962158</ele>
        <time>2011-08-15T07:00:36Z</time>
      </trkpt>
      <trkpt lat="50.28525" lon="3.3249">
        <ele>28.4962158</ele>
        <time>2011-08-15T07:00:45Z</time>
      </trkpt>
      <trkpt lat="50.28496" lon="3.32424">
        <ele>28.9769287</ele>
        <time>2011-08-15T07:00:54Z</time>
      </trkpt>
      <trkpt lat="50.28474" lon="3.32375">
        <ele>29.9381104</ele>
        <time>2011-08-15T07:01:01Z</time>
      </trkpt>
      <trkpt lat="50.28454" lon="3.32325">
        <ele>29.9381104</ele>
        <time>2011-08-15T07:01:08Z</time>
      </trkpt>
      <trkpt lat="50.28431" lon="3.32261">
        <ele>29.9381104</ele>
        <time>2011-08-15T07:01:16Z</time>
      </trkpt>
      <trkpt lat="50.28416" lon="3.32202">
        <ele>30.4188232</ele>
        <time>2011-08-15T07:01:23Z</time>
      </trkpt>
      <trkpt lat="50.28397" lon="3.32144">
        <ele>30.8995361</ele>
        <time>2011-08-15T07:01:30Z</time>
      </trkpt>
      <trkpt lat="50.28367" lon="3.32062">
        <ele>30.4188232</ele>
        <time>2011-08-15T07:01:40Z</time>
      </trkpt>
      <trkpt lat="50.28349" lon="3.32015">
        <ele>30.4188232</ele>
        <time>2011-08-15T07:01:46Z</time>
      </trkpt>
      <trkpt lat="50.28337" lon="3.32002">
        <ele>30.4188232</ele>
        <time>2011-08-15T07:01:49Z</time>
      </trkpt>
      <trkpt lat="50.28319" lon="3.32001">
        <ele>31.380127</ele>
        <time>2011-08-15T07:01:53Z</time>
      </trkpt>
      <trkpt lat="50.28301" lon="3.32009">
        <ele>32.3415527</ele>
        <time>2011-08-15T07:01:57Z</time>
      </trkpt>
      <trkpt lat="50.28287" lon="3.31991">
        <ele>32.8222656</ele>
        <time>2011-08-15T07:02:01Z</time>
      </trkpt>
      <trkpt lat="50.28284" lon="3.31984">
        <ele>32.8222656</ele>
        <time>2011-08-15T07:02:02Z</time>
      </trkpt>
      <trkpt lat="50.28277" lon="3.31965">
        <ele>32.8222656</ele>
        <time>2011-08-15T07:02:05Z</time>
      </trkpt>
      <trkpt lat="50.28273" lon="3.31932">
        <ele>34.2641602</ele>
        <time>2011-08-15T07:02:10Z</time>
      </trkpt>
      <trkpt lat="50.28277" lon="3.31919">
        <ele>34.2641602</ele>
        <time>2011-08-15T07:02:12Z</time>
      </trkpt>
      <trkpt lat="50.2829" lon="3.31885">
        <ele>35.2254639</ele>
        <time>2011-08-15T07:02:17Z</time>
      </trkpt>
      <trkpt lat="50.28301" lon="3.31864">
        <ele>36.6674805</ele>
        <time>2011-08-15T07:02:21Z</time>
      </trkpt>
      <trkpt lat="50.28328" lon="3.31834">
        <ele>38.109375</ele>
        <time>2011-08-15T07:02:29Z</time>
      </trkpt>
      <trkpt lat="50.28335" lon="3.31828">
        <ele>38.109375</ele>
        <time>2011-08-15T07:02:31Z</time>
      </trkpt>
      <trkpt lat="50.28353" lon="3.31802">
        <ele>37.6286621</ele>
        <time>2011-08-15T07:02:37Z</time>
      </trkpt>
      <trkpt lat="50.28376" lon="3.31775">
        <ele>39.5512695</ele>
        <time>2011-08-15T07:02:43Z</time>
      </trkpt>
      <trkpt lat="50.28393" lon="3.31761">
        <ele>39.5512695</ele>
        <time>2011-08-15T07:02:47Z</time>
      </trkpt>
      <trkpt lat="50.2841" lon="3.31742">
        <ele>39.5512695</ele>
        <time>2011-08-15T07:02:52Z</time>
      </trkpt>
      <trkpt lat="50.28422" lon="3.31734">
        <ele>39.5512695</ele>
        <time>2011-08-15T07:02:56Z</time>
      </trkpt>
      <trkpt lat="50.28426" lon="3.3173">
        <ele>39.0706787</ele>
        <time>2011-08-15T07:02:58Z</time>
      </trkpt>
      <trkpt lat="50.28429" lon="3.31726">
        <ele>39.0706787</ele>
        <time>2011-08-15T07:03:03Z</time>
      </trkpt>
      <trkpt lat="50.28429" lon="3.31726">
        <ele>43.8773193</ele>
        <time>2011-08-15T07:06:56Z</time>
      </trkpt>
      <trkpt lat="50.28434" lon="3.31727">
        <ele>46.2806396</ele>
        <time>2011-08-15T07:07:03Z</time>
      </trkpt>
      <trkpt lat="50.28425" lon="3.31722">
        <ele>45.3192139</ele>
        <time>2011-08-15T07:08:29Z</time>
      </trkpt>
      <trkpt lat="50.28417" lon="3.31723">
        <ele>45.3192139</ele>
        <time>2011-08-15T07:08:31Z</time>
      </trkpt>
      <trkpt lat="50.28396" lon="3.31745">
        <ele>43.8773193</ele>
        <time>2011-08-15T07:08:39Z</time>
      </trkpt>
      <trkpt lat="50.28378" lon="3.31766">
        <ele>43.8773193</ele>
        <time>2011-08-15T07:08:45Z</time>
      </trkpt>
      <trkpt lat="50.28361" lon="3.31791">
        <ele>46.7612305</ele>
        <time>2011-08-15T07:08:51Z</time>
      </trkpt>
      <trkpt lat="50.28354" lon="3.31799">
        <ele>47.2418213</ele>
        <time>2011-08-15T07:08:53Z</time>
      </trkpt>
      <trkpt lat="50.28323" lon="3.31831">
        <ele>45.3192139</ele>
        <time>2011-08-15T07:09:01Z</time>
      </trkpt>
      <trkpt lat="50.28286" lon="3.31878">
        <ele>42.9160156</ele>
        <time>2011-08-15T07:09:11Z</time>
      </trkpt>
      <trkpt lat="50.28276" lon="3.31897">
        <ele>43.3966064</ele>
        <time>2011-08-15T07:09:14Z</time>
      </trkpt>
      <trkpt lat="50.28249" lon="3.31893">
        <ele>40.9934082</ele>
        <time>2011-08-15T07:09:18Z</time>
      </trkpt>
      <trkpt lat="50.28245" lon="3.3188">
        <ele>40.0321045</ele>
        <time>2011-08-15T07:09:20Z</time>
      </trkpt>
      <trkpt lat="50.28231" lon="3.31811">
        <ele>37.6286621</ele>
        <time>2011-08-15T07:09:29Z</time>
      </trkpt>
      <trkpt lat="50.28229" lon="3.31804">
        <ele>37.1480713</ele>
        <time>2011-08-15T07:09:30Z</time>
      </trkpt>
      <trkpt lat="50.28227" lon="3.31753">
        <ele>35.7060547</ele>
        <time>2011-08-15T07:09:36Z</time>
      </trkpt>
      <trkpt lat="50.28222" lon="3.31721">
        <ele>34.744873</ele>
        <time>2011-08-15T07:09:40Z</time>
      </trkpt>
      <trkpt lat="50.28213" lon="3.31693">
        <ele>34.2641602</ele>
        <time>2011-08-15T07:09:44Z</time>
      </trkpt>
      <trkpt lat="50.28191" lon="3.31665">
        <ele>33.7834473</ele>
        <time>2011-08-15T07:09:50Z</time>
      </trkpt>
      <trkpt lat="50.28174" lon="3.3166">
        <ele>33.7834473</ele>
        <time>2011-08-15T07:09:54Z</time>
      </trkpt>
      <trkpt lat="50.28164" lon="3.3165">
        <ele>33.7834473</ele>
        <time>2011-08-15T07:09:57Z</time>
      </trkpt>
      <trkpt lat="50.28135" lon="3.31617">
        <ele>34.744873</ele>
        <time>2011-08-15T07:10:05Z</time>
      </trkpt>
      <trkpt lat="50.28117" lon="3.31599">
        <ele>34.744873</ele>
        <time>2011-08-15T07:10:09Z</time>
      </trkpt>
      <trkpt lat="50.28097" lon="3.31593">
        <ele>35.2254639</ele>
        <time>2011-08-15T07:10:13Z</time>
      </trkpt>
      <trkpt lat="50.28088" lon="3.31598">
        <ele>35.2254639</ele>
        <time>2011-08-15T07:10:15Z</time>
      </trkpt>
      <trkpt lat="50.28055" lon="3.31622">
        <ele>34.744873</ele>
        <time>2011-08-15T07:10:22Z</time>
      </trkpt>
      <trkpt lat="50.28051" lon="3.31625">
        <ele>34.2641602</ele>
        <time>2011-08-15T07:10:23Z</time>
      </trkpt>
      <trkpt lat="50.28028" lon="3.31639">
        <ele>34.2641602</ele>
        <time>2011-08-15T07:10:28Z</time>
      </trkpt>
      <trkpt lat="50.28015" lon="3.31644">
        <ele>32.3415527</ele>
        <time>2011-08-15T07:10:31Z</time>
      </trkpt>
      <trkpt lat="50.27997" lon="3.31652">
        <ele>31.8607178</ele>
        <time>2011-08-15T07:10:35Z</time>
      </trkpt>
      <trkpt lat="50.27986" lon="3.31657">
        <ele>32.3415527</ele>
        <time>2011-08-15T07:10:37Z</time>
      </trkpt>
      <trkpt lat="50.27968" lon="3.31667">
        <ele>32.8222656</ele>
        <time>2011-08-15T07:10:41Z</time>
      </trkpt>
      <trkpt lat="50.27956" lon="3.31671">
        <ele>32.3415527</ele>
        <time>2011-08-15T07:10:43Z</time>
      </trkpt>
      <trkpt lat="50.2791" lon="3.31688">
        <ele>28.4962158</ele>
        <time>2011-08-15T07:10:51Z</time>
      </trkpt>
      <trkpt lat="50.27899" lon="3.31693">
        <ele>28.0155029</ele>
        <time>2011-08-15T07:10:53Z</time>
      </trkpt>
      <trkpt lat="50.27874" lon="3.31714">
        <ele>28.0155029</ele>
        <time>2011-08-15T07:10:58Z</time>
      </trkpt>
      <trkpt lat="50.27867" lon="3.31744">
        <ele>28.9769287</ele>
        <time>2011-08-15T07:11:02Z</time>
      </trkpt>
      <trkpt lat="50.2786" lon="3.31797">
        <ele>28.9769287</ele>
        <time>2011-08-15T07:11:08Z</time>
      </trkpt>
      <trkpt lat="50.2785" lon="3.31859">
        <ele>30.8995361</ele>
        <time>2011-08-15T07:11:15Z</time>
      </trkpt>
      <trkpt lat="50.27852" lon="3.3188">
        <ele>31.380127</ele>
        <time>2011-08-15T07:11:18Z</time>
      </trkpt>
      <trkpt lat="50.27844" lon="3.31914">
        <ele>31.380127</ele>
        <time>2011-08-15T07:11:23Z</time>
      </trkpt>
      <trkpt lat="50.27828" lon="3.31957">
        <ele>31.380127</ele>
        <time>2011-08-15T07:11:29Z</time>
      </trkpt>
      <trkpt lat="50.27808" lon="3.32009">
        <ele>31.380127</ele>
        <time>2011-08-15T07:11:36Z</time>
      </trkpt>
      <trkpt lat="50.278" lon="3.32031">
        <ele>31.8607178</ele>
        <time>2011-08-15T07:11:39Z</time>
      </trkpt>
      <trkpt lat="50.27786" lon="3.32068">
        <ele>31.8607178</ele>
        <time>2011-08-15T07:11:44Z</time>
      </trkpt>
      <trkpt lat="50.2777" lon="3.32104">
        <ele>31.380127</ele>
        <time>2011-08-15T07:11:49Z</time>
      </trkpt>
      <trkpt lat="50.27764" lon="3.32138">
        <ele>31.8607178</ele>
        <time>2011-08-15T07:11:53Z</time>
      </trkpt>
      <trkpt lat="50.27774" lon="3.32169">
        <ele>32.3415527</ele>
        <time>2011-08-15T07:11:57Z</time>
      </trkpt>
      <trkpt lat="50.2777" lon="3.32189">
        <ele>32.8222656</ele>
        <time>2011-08-15T07:12:00Z</time>
      </trkpt>
      <trkpt lat="50.27736" lon="3.32216">
        <ele>33.3028564</ele>
        <time>2011-08-15T07:12:07Z</time>
      </trkpt>
      <trkpt lat="50.27693" lon="3.32252">
        <ele>34.2641602</ele>
        <time>2011-08-15T07:12:15Z</time>
      </trkpt>
      <trkpt lat="50.27653" lon="3.32279">
        <ele>33.7834473</ele>
        <time>2011-08-15T07:12:22Z</time>
      </trkpt>
      <trkpt lat="50.27623" lon="3.32289">
        <ele>32.8222656</ele>
        <time>2011-08-15T07:12:27Z</time>
      </trkpt>
      <trkpt lat="50.27586" lon="3.32299">
        <ele>35.2254639</ele>
        <time>2011-08-15T07:12:33Z</time>
      </trkpt>
      <trkpt lat="50.27537" lon="3.32315">
        <ele>34.744873</ele>
        <time>2011-08-15T07:12:41Z</time>
      </trkpt>
      <trkpt lat="50.27508" lon="3.32302">
        <ele>34.2641602</ele>
        <time>2011-08-15T07:12:46Z</time>
      </trkpt>
      <trkpt lat="50.27499" lon="3.32291">
        <ele>34.2641602</ele>
        <time>2011-08-15T07:12:48Z</time>
      </trkpt>
      <trkpt lat="50.27469" lon="3.32234">
        <ele>33.3028564</ele>
        <time>2011-08-15T07:12:56Z</time>
      </trkpt>
      <trkpt lat="50.27455" lon="3.32181">
        <ele>32.8222656</ele>
        <time>2011-08-15T07:13:02Z</time>
      </trkpt>
      <trkpt lat="50.27438" lon="3.32128">
        <ele>33.3028564</ele>
        <time>2011-08-15T07:13:08Z</time>
      </trkpt>
      <trkpt lat="50.27409" lon="3.32054">
        <ele>32.8222656</ele>
        <time>2011-08-15T07:13:17Z</time>
      </trkpt>
      <trkpt lat="50.27377" lon="3.31982">
        <ele>31.8607178</ele>
        <time>2011-08-15T07:13:26Z</time>
      </trkpt>
      <trkpt lat="50.27351" lon="3.31921">
        <ele>31.8607178</ele>
        <time>2011-08-15T07:13:34Z</time>
      </trkpt>
      <trkpt lat="50.27321" lon="3.31852">
        <ele>31.380127</ele>
        <time>2011-08-15T07:13:43Z</time>
      </trkpt>
      <trkpt lat="50.27298" lon="3.31813">
        <ele>31.8607178</ele>
        <time>2011-08-15T07:13:49Z</time>
      </trkpt>
      <trkpt lat="50.27267" lon="3.31785">
        <ele>31.8607178</ele>
        <time>2011-08-15T07:13:55Z</time>
      </trkpt>
      <trkpt lat="50.27245" lon="3.31772">
        <ele>32.3415527</ele>
        <time>2011-08-15T07:13:59Z</time>
      </trkpt>
      <trkpt lat="50.27226" lon="3.31752">
        <ele>32.3415527</ele>
        <time>2011-08-15T07:14:03Z</time>
      </trkpt>
      <trkpt lat="50.27211" lon="3.31725">
        <ele>32.3415527</ele>
        <time>2011-08-15T07:14:07Z</time>
      </trkpt>
      <trkpt lat="50.27186" lon="3.31666">
        <ele>32.3415527</ele>
        <time>2011-08-15T07:14:15Z</time>
      </trkpt>
      <trkpt lat="50.27164" lon="3.31636">
        <ele>32.8222656</ele>
        <time>2011-08-15T07:14:20Z</time>
      </trkpt>
      <trkpt lat="50.27121" lon="3.31604">
        <ele>32.8222656</ele>
        <time>2011-08-15T07:14:28Z</time>
      </trkpt>
      <trkpt lat="50.27116" lon="3.316">
        <ele>32.8222656</ele>
        <time>2011-08-15T07:14:29Z</time>
      </trkpt>
      <trkpt lat="50.27083" lon="3.31562">
        <ele>33.7834473</ele>
        <time>2011-08-15T07:14:36Z</time>
      </trkpt>
      <trkpt lat="50.27038" lon="3.31502">
        <ele>34.2641602</ele>
        <time>2011-08-15T07:14:46Z</time>
      </trkpt>
      <trkpt lat="50.27004" lon="3.31452">
        <ele>34.2641602</ele>
        <time>2011-08-15T07:14:54Z</time>
      </trkpt>
      <trkpt lat="50.26965" lon="3.31392">
        <ele>34.2641602</ele>
        <time>2011-08-15T07:15:03Z</time>
      </trkpt>
      <trkpt lat="50.26938" lon="3.31344">
        <ele>33.7834473</ele>
        <time>2011-08-15T07:15:10Z</time>
      </trkpt>
      <trkpt lat="50.26903" lon="3.31278">
        <ele>33.7834473</ele>
        <time>2011-08-15T07:15:19Z</time>
      </trkpt>
      <trkpt lat="50.26862" lon="3.31204">
        <ele>34.744873</ele>
        <time>2011-08-15T07:15:29Z</time>
      </trkpt>
      <trkpt lat="50.2683" lon="3.31158">
        <ele>34.744873</ele>
        <time>2011-08-15T07:15:36Z</time>
      </trkpt>
      <trkpt lat="50.26802" lon="3.31135">
        <ele>35.2254639</ele>
        <time>2011-08-15T07:15:41Z</time>
      </trkpt>
      <trkpt lat="50.26751" lon="3.31112">
        <ele>35.7060547</ele>
        <time>2011-08-15T07:15:50Z</time>
      </trkpt>
      <trkpt lat="50.26746" lon="3.31108">
        <ele>35.7060547</ele>
        <time>2011-08-15T07:15:51Z</time>
      </trkpt>
      <trkpt lat="50.2672" lon="3.31073">
        <ele>36.1867676</ele>
        <time>2011-08-15T07:15:57Z</time>
      </trkpt>
      <trkpt lat="50.26696" lon="3.31027">
        <ele>35.7060547</ele>
        <time>2011-08-15T07:16:03Z</time>
      </trkpt>
      <trkpt lat="50.26672" lon="3.3097">
        <ele>34.744873</ele>
        <time>2011-08-15T07:16:10Z</time>
      </trkpt>
      <trkpt lat="50.26657" lon="3.30917">
        <ele>34.2641602</ele>
        <time>2011-08-15T07:16:16Z</time>
      </trkpt>
      <trkpt lat="50.26654" lon="3.30909">
        <ele>34.2641602</ele>
        <time>2011-08-15T07:16:17Z</time>
      </trkpt>
      <trkpt lat="50.26633" lon="3.30874">
        <ele>34.2641602</ele>
        <time>2011-08-15T07:16:22Z</time>
      </trkpt>
      <trkpt lat="50.26579" lon="3.30811">
        <ele>34.2641602</ele>
        <time>2011-08-15T07:16:33Z</time>
      </trkpt>
      <trkpt lat="50.26574" lon="3.30805">
        <ele>34.2641602</ele>
        <time>2011-08-15T07:16:34Z</time>
      </trkpt>
      <trkpt lat="50.26537" lon="3.30777">
        <ele>33.3028564</ele>
        <time>2011-08-15T07:16:41Z</time>
      </trkpt>
      <trkpt lat="50.26509" lon="3.30782">
        <ele>32.8222656</ele>
        <time>2011-08-15T07:16:46Z</time>
      </trkpt>
      <trkpt lat="50.26491" lon="3.30807">
        <ele>32.3415527</ele>
        <time>2011-08-15T07:16:50Z</time>
      </trkpt>
      <trkpt lat="50.26462" lon="3.30858">
        <ele>32.8222656</ele>
        <time>2011-08-15T07:16:57Z</time>
      </trkpt>
      <trkpt lat="50.2643" lon="3.30891">
        <ele>32.8222656</ele>
        <time>2011-08-15T07:17:03Z</time>
      </trkpt>
      <trkpt lat="50.26407" lon="3.30905">
        <ele>32.8222656</ele>
        <time>2011-08-15T07:17:07Z</time>
      </trkpt>
      <trkpt lat="50.26365" lon="3.30907">
        <ele>32.8222656</ele>
        <time>2011-08-15T07:17:14Z</time>
      </trkpt>
      <trkpt lat="50.2633" lon="3.30897">
        <ele>32.3415527</ele>
        <time>2011-08-15T07:17:20Z</time>
      </trkpt>
      <trkpt lat="50.26294" lon="3.30881">
        <ele>32.3415527</ele>
        <time>2011-08-15T07:17:26Z</time>
      </trkpt>
      <trkpt lat="50.26249" lon="3.30852">
        <ele>32.3415527</ele>
        <time>2011-08-15T07:17:34Z</time>
      </trkpt>
      <trkpt lat="50.26207" lon="3.30819">
        <ele>31.8607178</ele>
        <time>2011-08-15T07:17:42Z</time>
      </trkpt>
      <trkpt lat="50.26156" lon="3.30802">
        <ele>30.8995361</ele>
        <time>2011-08-15T07:17:51Z</time>
      </trkpt>
      <trkpt lat="50.26114" lon="3.30795">
        <ele>30.4188232</ele>
        <time>2011-08-15T07:17:58Z</time>
      </trkpt>
      <trkpt lat="50.26097" lon="3.30787">
        <ele>30.8995361</ele>
        <time>2011-08-15T07:18:01Z</time>
      </trkpt>
      <trkpt lat="50.26061" lon="3.30752">
        <ele>31.8607178</ele>
        <time>2011-08-15T07:18:08Z</time>
      </trkpt>
      <trkpt lat="50.26055" lon="3.30747">
        <ele>31.8607178</ele>
        <time>2011-08-15T07:18:09Z</time>
      </trkpt>
      <trkpt lat="50.26033" lon="3.30735">
        <ele>31.8607178</ele>
        <time>2011-08-15T07:18:13Z</time>
      </trkpt>
      <trkpt lat="50.25974" lon="3.30716">
        <ele>31.380127</ele>
        <time>2011-08-15T07:18:23Z</time>
      </trkpt>
      <trkpt lat="50.25921" lon="3.30698">
        <ele>31.380127</ele>
        <time>2011-08-15T07:18:32Z</time>
      </trkpt>
      <trkpt lat="50.25888" lon="3.30674">
        <ele>31.380127</ele>
        <time>2011-08-15T07:18:38Z</time>
      </trkpt>
      <trkpt lat="50.25851" lon="3.30647">
        <ele>33.3028564</ele>
        <time>2011-08-15T07:18:45Z</time>
      </trkpt>
      <trkpt lat="50.25815" lon="3.30635">
        <ele>34.2641602</ele>
        <time>2011-08-15T07:18:51Z</time>
      </trkpt>
      <trkpt lat="50.25765" lon="3.30633">
        <ele>34.2641602</ele>
        <time>2011-08-15T07:18:59Z</time>
      </trkpt>
      <trkpt lat="50.25696" lon="3.30612">
        <ele>35.2254639</ele>
        <time>2011-08-15T07:19:10Z</time>
      </trkpt>
      <trkpt lat="50.25646" lon="3.30596">
        <ele>36.1867676</ele>
        <time>2011-08-15T07:19:18Z</time>
      </trkpt>
      <trkpt lat="50.25592" lon="3.3058">
        <ele>36.1867676</ele>
        <time>2011-08-15T07:19:27Z</time>
      </trkpt>
      <trkpt lat="50.25534" lon="3.30561">
        <ele>36.6674805</ele>
        <time>2011-08-15T07:19:37Z</time>
      </trkpt>
      <trkpt lat="50.25494" lon="3.30545">
        <ele>37.1480713</ele>
        <time>2011-08-15T07:19:44Z</time>
      </trkpt>
      <trkpt lat="50.25452" lon="3.30539">
        <ele>37.1480713</ele>
        <time>2011-08-15T07:19:51Z</time>
      </trkpt>
      <trkpt lat="50.25417" lon="3.30522">
        <ele>37.6286621</ele>
        <time>2011-08-15T07:19:57Z</time>
      </trkpt>
      <trkpt lat="50.25365" lon="3.30491">
        <ele>38.109375</ele>
        <time>2011-08-15T07:20:07Z</time>
      </trkpt>
      <trkpt lat="50.25341" lon="3.30476">
        <ele>38.109375</ele>
        <time>2011-08-15T07:20:12Z</time>
      </trkpt>
      <trkpt lat="50.25335" lon="3.30482">
        <ele>38.109375</ele>
        <time>2011-08-15T07:20:16Z</time>
      </trkpt>
      <trkpt lat="50.25332" lon="3.30505">
        <ele>36.6674805</ele>
        <time>2011-08-15T07:20:20Z</time>
      </trkpt>
      <trkpt lat="50.25325" lon="3.30532">
        <ele>35.7060547</ele>
        <time>2011-08-15T07:20:23Z</time>
      </trkpt>
      <trkpt lat="50.25306" lon="3.30575">
        <ele>34.744873</ele>
        <time>2011-08-15T07:20:28Z</time>
      </trkpt>
      <trkpt lat="50.25276" lon="3.30602">
        <ele>34.744873</ele>
        <time>2011-08-15T07:20:33Z</time>
      </trkpt>
      <trkpt lat="50.25249" lon="3.30604">
        <ele>35.2254639</ele>
        <time>2011-08-15T07:20:37Z</time>
      </trkpt>
      <trkpt lat="50.25242" lon="3.30602">
        <ele>35.2254639</ele>
        <time>2011-08-15T07:20:38Z</time>
      </trkpt>
      <trkpt lat="50.2518" lon="3.30573">
        <ele>35.2254639</ele>
        <time>2011-08-15T07:20:48Z</time>
      </trkpt>
      <trkpt lat="50.25141" lon="3.30548">
        <ele>34.744873</ele>
        <time>2011-08-15T07:20:55Z</time>
      </trkpt>
      <trkpt lat="50.25114" lon="3.30532">
        <ele>35.2254639</ele>
        <time>2011-08-15T07:21:00Z</time>
      </trkpt>
      <trkpt lat="50.25057" lon="3.30496">
        <ele>35.2254639</ele>
        <time>2011-08-15T07:21:10Z</time>
      </trkpt>
      <trkpt lat="50.2501" lon="3.30466">
        <ele>34.744873</ele>
        <time>2011-08-15T07:21:18Z</time>
      </trkpt>
      <trkpt lat="50.24969" lon="3.30441">
        <ele>34.2641602</ele>
        <time>2011-08-15T07:21:25Z</time>
      </trkpt>
      <trkpt lat="50.24922" lon="3.3041">
        <ele>33.7834473</ele>
        <time>2011-08-15T07:21:33Z</time>
      </trkpt>
      <trkpt lat="50.24871" lon="3.30378">
        <ele>33.3028564</ele>
        <time>2011-08-15T07:21:42Z</time>
      </trkpt>
      <trkpt lat="50.24866" lon="3.30374">
        <ele>32.8222656</ele>
        <time>2011-08-15T07:21:43Z</time>
      </trkpt>
      <trkpt lat="50.24846" lon="3.30363">
        <ele>32.8222656</ele>
        <time>2011-08-15T07:21:47Z</time>
      </trkpt>
      <trkpt lat="50.248" lon="3.30334">
        <ele>32.3415527</ele>
        <time>2011-08-15T07:21:55Z</time>
      </trkpt>
      <trkpt lat="50.2476" lon="3.3031">
        <ele>32.8222656</ele>
        <time>2011-08-15T07:22:02Z</time>
      </trkpt>
      <trkpt lat="50.24715" lon="3.30294">
        <ele>33.3028564</ele>
        <time>2011-08-15T07:22:09Z</time>
      </trkpt>
      <trkpt lat="50.24684" lon="3.30288">
        <ele>33.3028564</ele>
        <time>2011-08-15T07:22:14Z</time>
      </trkpt>
      <trkpt lat="50.24627" lon="3.30291">
        <ele>33.3028564</ele>
        <time>2011-08-15T07:22:23Z</time>
      </trkpt>
      <trkpt lat="50.24567" lon="3.30301">
        <ele>33.3028564</ele>
        <time>2011-08-15T07:22:32Z</time>
      </trkpt>
      <trkpt lat="50.24535" lon="3.30306">
        <ele>33.7834473</ele>
        <time>2011-08-15T07:22:37Z</time>
      </trkpt>
      <trkpt lat="50.24485" lon="3.30316">
        <ele>34.2641602</ele>
        <time>2011-08-15T07:22:45Z</time>
      </trkpt>
      <trkpt lat="50.24435" lon="3.30325">
        <ele>34.744873</ele>
        <time>2011-08-15T07:22:53Z</time>
      </trkpt>
      <trkpt lat="50.24397" lon="3.30332">
        <ele>35.7060547</ele>
        <time>2011-08-15T07:22:59Z</time>
      </trkpt>
      <trkpt lat="50.2436" lon="3.30355">
        <ele>35.7060547</ele>
        <time>2011-08-15T07:23:06Z</time>
      </trkpt>
      <trkpt lat="50.24354" lon="3.30356">
        <ele>35.7060547</ele>
        <time>2011-08-15T07:23:07Z</time>
      </trkpt>
      <trkpt lat="50.24331" lon="3.30344">
        <ele>35.7060547</ele>
        <time>2011-08-15T07:23:12Z</time>
      </trkpt>
      <trkpt lat="50.2431" lon="3.30294">
        <ele>37.6286621</ele>
        <time>2011-08-15T07:23:19Z</time>
      </trkpt>
      <trkpt lat="50.24306" lon="3.30282">
        <ele>38.109375</ele>
        <time>2011-08-15T07:23:21Z</time>
      </trkpt>
      <trkpt lat="50.24298" lon="3.30261">
        <ele>40.0321045</ele>
        <time>2011-08-15T07:23:25Z</time>
      </trkpt>
      <trkpt lat="50.24278" lon="3.30208">
        <ele>41.9547119</ele>
        <time>2011-08-15T07:23:34Z</time>
      </trkpt>
      <trkpt lat="50.24264" lon="3.3017">
        <ele>42.4354248</ele>
        <time>2011-08-15T07:23:40Z</time>
      </trkpt>
      <trkpt lat="50.24242" lon="3.30112">
        <ele>43.8773193</ele>
        <time>2011-08-15T07:23:49Z</time>
      </trkpt>
      <trkpt lat="50.24225" lon="3.30064">
        <ele>45.7999268</ele>
        <time>2011-08-15T07:23:57Z</time>
      </trkpt>
      <trkpt lat="50.24221" lon="3.30052">
        <ele>46.7612305</ele>
        <time>2011-08-15T07:23:59Z</time>
      </trkpt>
      <trkpt lat="50.24217" lon="3.3004">
        <ele>47.2418213</ele>
        <time>2011-08-15T07:24:01Z</time>
      </trkpt>
      <trkpt lat="50.24198" lon="3.29997">
        <ele>49.6452637</ele>
        <time>2011-08-15T07:24:09Z</time>
      </trkpt>
      <trkpt lat="50.24171" lon="3.29939">
        <ele>51.5678711</ele>
        <time>2011-08-15T07:24:19Z</time>
      </trkpt>
      <trkpt lat="50.24151" lon="3.29892">
        <ele>52.5291748</ele>
        <time>2011-08-15T07:24:27Z</time>
      </trkpt>
      <trkpt lat="50.24124" lon="3.29829">
        <ele>53.4904785</ele>
        <time>2011-08-15T07:24:37Z</time>
      </trkpt>
      <trkpt lat="50.24098" lon="3.29769">
        <ele>53.9711914</ele>
        <time>2011-08-15T07:24:46Z</time>
      </trkpt>
      <trkpt lat="50.24077" lon="3.29726">
        <ele>54.932373</ele>
        <time>2011-08-15T07:24:53Z</time>
      </trkpt>
      <trkpt lat="50.24059" lon="3.29712">
        <ele>55.4130859</ele>
        <time>2011-08-15T07:24:57Z</time>
      </trkpt>
      <trkpt lat="50.24017" lon="3.29703">
        <ele>55.8937988</ele>
        <time>2011-08-15T07:25:05Z</time>
      </trkpt>
      <trkpt lat="50.23983" lon="3.29684">
        <ele>56.3745117</ele>
        <time>2011-08-15T07:25:12Z</time>
      </trkpt>
      <trkpt lat="50.23975" lon="3.29678">
        <ele>56.3745117</ele>
        <time>2011-08-15T07:25:14Z</time>
      </trkpt>
      <trkpt lat="50.23972" lon="3.29663">
        <ele>56.3745117</ele>
        <time>2011-08-15T07:25:18Z</time>
      </trkpt>
      <trkpt lat="50.23981" lon="3.29663">
        <ele>55.4130859</ele>
        <time>2011-08-15T07:25:20Z</time>
      </trkpt>
      <trkpt lat="50.2399" lon="3.29666">
        <ele>55.4130859</ele>
        <time>2011-08-15T07:25:22Z</time>
      </trkpt>
      <trkpt lat="50.24001" lon="3.29668">
        <ele>54.932373</ele>
        <time>2011-08-15T07:25:24Z</time>
      </trkpt>
      <trkpt lat="50.24048" lon="3.29666">
        <ele>53.0097656</ele>
        <time>2011-08-15T07:25:31Z</time>
      </trkpt>
      <trkpt lat="50.24089" lon="3.29663">
        <ele>53.0097656</ele>
        <time>2011-08-15T07:25:37Z</time>
      </trkpt>
      <trkpt lat="50.24138" lon="3.29656">
        <ele>53.0097656</ele>
        <time>2011-08-15T07:25:44Z</time>
      </trkpt>
      <trkpt lat="50.24193" lon="3.2965">
        <ele>53.0097656</ele>
        <time>2011-08-15T07:25:52Z</time>
      </trkpt>
      <trkpt lat="50.24257" lon="3.2964">
        <ele>53.4904785</ele>
        <time>2011-08-15T07:26:01Z</time>
      </trkpt>
      <trkpt lat="50.24316" lon="3.2963">
        <ele>53.4904785</ele>
        <time>2011-08-15T07:26:09Z</time>
      </trkpt>
      <trkpt lat="50.24391" lon="3.29615">
        <ele>53.4904785</ele>
        <time>2011-08-15T07:26:19Z</time>
      </trkpt>
      <trkpt lat="50.24466" lon="3.296">
        <ele>53.0097656</ele>
        <time>2011-08-15T07:26:29Z</time>
      </trkpt>
      <trkpt lat="50.24551" lon="3.29584">
        <ele>53.0097656</ele>
        <time>2011-08-15T07:26:41Z</time>
      </trkpt>
      <trkpt lat="50.24617" lon="3.29577">
        <ele>52.048584</ele>
        <time>2011-08-15T07:26:50Z</time>
      </trkpt>
      <trkpt lat="50.2467" lon="3.29582">
        <ele>50.6065674</ele>
        <time>2011-08-15T07:26:57Z</time>
      </trkpt>
      <trkpt lat="50.24731" lon="3.29588">
        <ele>48.2033691</ele>
        <time>2011-08-15T07:27:05Z</time>
      </trkpt>
      <trkpt lat="50.24745" lon="3.29588">
        <ele>47.7225342</ele>
        <time>2011-08-15T07:27:07Z</time>
      </trkpt>
      <trkpt lat="50.24757" lon="3.29577">
        <ele>45.7999268</ele>
        <time>2011-08-15T07:27:11Z</time>
      </trkpt>
      <trkpt lat="50.24754" lon="3.29567">
        <ele>45.3192139</ele>
        <time>2011-08-15T07:27:13Z</time>
      </trkpt>
      <trkpt lat="50.24731" lon="3.29533">
        <ele>44.838623</ele>
        <time>2011-08-15T07:27:20Z</time>
      </trkpt>
      <trkpt lat="50.24709" lon="3.29497">
        <ele>44.3580322</ele>
        <time>2011-08-15T07:27:26Z</time>
      </trkpt>
      <trkpt lat="50.24689" lon="3.29459">
        <ele>43.3966064</ele>
        <time>2011-08-15T07:27:32Z</time>
      </trkpt>
      <trkpt lat="50.24687" lon="3.29453">
        <ele>43.3966064</ele>
        <time>2011-08-15T07:27:33Z</time>
      </trkpt>
      <trkpt lat="50.24668" lon="3.29412">
        <ele>42.9160156</ele>
        <time>2011-08-15T07:27:39Z</time>
      </trkpt>
      <trkpt lat="50.24657" lon="3.29394">
        <ele>42.9160156</ele>
        <time>2011-08-15T07:27:42Z</time>
      </trkpt>
      <trkpt lat="50.2463" lon="3.29344">
        <ele>42.4354248</ele>
        <time>2011-08-15T07:27:50Z</time>
      </trkpt>
      <trkpt lat="50.24596" lon="3.2928">
        <ele>42.4354248</ele>
        <time>2011-08-15T07:28:00Z</time>
      </trkpt>
      <trkpt lat="50.24568" lon="3.29228">
        <ele>42.4354248</ele>
        <time>2011-08-15T07:28:08Z</time>
      </trkpt>
      <trkpt lat="50.24548" lon="3.29189">
        <ele>42.4354248</ele>
        <time>2011-08-15T07:28:14Z</time>
      </trkpt>
      <trkpt lat="50.24538" lon="3.29141">
        <ele>42.4354248</ele>
        <time>2011-08-15T07:28:20Z</time>
      </trkpt>
      <trkpt lat="50.24538" lon="3.2908">
        <ele>41.9547119</ele>
        <time>2011-08-15T07:28:27Z</time>
      </trkpt>
      <trkpt lat="50.24539" lon="3.29072">
        <ele>41.9547119</ele>
        <time>2011-08-15T07:28:28Z</time>
      </trkpt>
      <trkpt lat="50.24546" lon="3.29035">
        <ele>41.473999</ele>
        <time>2011-08-15T07:28:33Z</time>
      </trkpt>
      <trkpt lat="50.2455" lon="3.29021">
        <ele>41.473999</ele>
        <time>2011-08-15T07:28:35Z</time>
      </trkpt>
      <trkpt lat="50.24547" lon="3.29">
        <ele>41.473999</ele>
        <time>2011-08-15T07:28:39Z</time>
      </trkpt>
      <trkpt lat="50.24535" lon="3.29003">
        <ele>41.9547119</ele>
        <time>2011-08-15T07:28:42Z</time>
      </trkpt>
      <trkpt lat="50.24495" lon="3.29009">
        <ele>43.3966064</ele>
        <time>2011-08-15T07:28:50Z</time>
      </trkpt>
      <trkpt lat="50.24457" lon="3.29002">
        <ele>45.3192139</ele>
        <time>2011-08-15T07:28:58Z</time>
      </trkpt>
      <trkpt lat="50.24403" lon="3.28986">
        <ele>48.2033691</ele>
        <time>2011-08-15T07:29:09Z</time>
      </trkpt>
      <trkpt lat="50.24359" lon="3.28974">
        <ele>50.1259766</ele>
        <time>2011-08-15T07:29:18Z</time>
      </trkpt>
      <trkpt lat="50.24308" lon="3.28959">
        <ele>52.048584</ele>
        <time>2011-08-15T07:29:28Z</time>
      </trkpt>
      <trkpt lat="50.24254" lon="3.28942">
        <ele>53.9711914</ele>
        <time>2011-08-15T07:29:39Z</time>
      </trkpt>
      <trkpt lat="50.24207" lon="3.2893">
        <ele>55.4130859</ele>
        <time>2011-08-15T07:29:49Z</time>
      </trkpt>
      <trkpt lat="50.24169" lon="3.28919">
        <ele>57.3358154</ele>
        <time>2011-08-15T07:29:57Z</time>
      </trkpt>
      <trkpt lat="50.24128" lon="3.28907">
        <ele>58.77771</ele>
        <time>2011-08-15T07:30:06Z</time>
      </trkpt>
      <trkpt lat="50.24087" lon="3.28895">
        <ele>60.2197266</ele>
        <time>2011-08-15T07:30:15Z</time>
      </trkpt>
      <trkpt lat="50.24046" lon="3.28882">
        <ele>61.6617432</ele>
        <time>2011-08-15T07:30:24Z</time>
      </trkpt>
      <trkpt lat="50.24018" lon="3.28873">
        <ele>62.6229248</ele>
        <time>2011-08-15T07:30:30Z</time>
      </trkpt>
      <trkpt lat="50.23992" lon="3.28864">
        <ele>63.1036377</ele>
        <time>2011-08-15T07:30:36Z</time>
      </trkpt>
      <trkpt lat="50.23988" lon="3.28863">
        <ele>63.1036377</ele>
        <time>2011-08-15T07:30:37Z</time>
      </trkpt>
      <trkpt lat="50.23948" lon="3.28843">
        <ele>64.5456543</ele>
        <time>2011-08-15T07:30:47Z</time>
      </trkpt>
      <trkpt lat="50.2392" lon="3.28824">
        <ele>65.0263672</ele>
        <time>2011-08-15T07:30:54Z</time>
      </trkpt>
      <trkpt lat="50.23872" lon="3.28787">
        <ele>65.9876709</ele>
        <time>2011-08-15T07:31:06Z</time>
      </trkpt>
      <trkpt lat="50.23832" lon="3.28754">
        <ele>67.4296875</ele>
        <time>2011-08-15T07:31:16Z</time>
      </trkpt>
      <trkpt lat="50.23789" lon="3.2872">
        <ele>68.871582</ele>
        <time>2011-08-15T07:31:27Z</time>
      </trkpt>
      <trkpt lat="50.2375" lon="3.28689">
        <ele>69.8328857</ele>
        <time>2011-08-15T07:31:37Z</time>
      </trkpt>
      <trkpt lat="50.23702" lon="3.28652">
        <ele>71.2749023</ele>
        <time>2011-08-15T07:31:49Z</time>
      </trkpt>
      <trkpt lat="50.23662" lon="3.28621">
        <ele>72.2362061</ele>
        <time>2011-08-15T07:31:59Z</time>
      </trkpt>
      <trkpt lat="50.23635" lon="3.28599">
        <ele>72.2362061</ele>
        <time>2011-08-15T07:32:06Z</time>
      </trkpt>
      <trkpt lat="50.23629" lon="3.28577">
        <ele>72.2362061</ele>
        <time>2011-08-15T07:32:10Z</time>
      </trkpt>
      <trkpt lat="50.23635" lon="3.28569">
        <ele>71.7554932</ele>
        <time>2011-08-15T07:32:12Z</time>
      </trkpt>
      <trkpt lat="50.23667" lon="3.28552">
        <ele>71.2749023</ele>
        <time>2011-08-15T07:32:20Z</time>
      </trkpt>
      <trkpt lat="50.23675" lon="3.28536">
        <ele>71.2749023</ele>
        <time>2011-08-15T07:32:24Z</time>
      </trkpt>
      <trkpt lat="50.23669" lon="3.28531">
        <ele>71.7554932</ele>
        <time>2011-08-15T07:32:27Z</time>
      </trkpt>
      <trkpt lat="50.23659" lon="3.28536">
        <ele>72.2362061</ele>
        <time>2011-08-15T07:32:31Z</time>
      </trkpt>
      <trkpt lat="50.23636" lon="3.28548">
        <ele>73.6782227</ele>
        <time>2011-08-15T07:32:39Z</time>
      </trkpt>
      <trkpt lat="50.23607" lon="3.28563">
        <ele>75.6008301</ele>
        <time>2011-08-15T07:32:48Z</time>
      </trkpt>
      <trkpt lat="50.23585" lon="3.28572">
        <ele>76.5621338</ele>
        <time>2011-08-15T07:32:55Z</time>
      </trkpt>
      <trkpt lat="50.23567" lon="3.28564">
        <ele>76.0814209</ele>
        <time>2011-08-15T07:33:00Z</time>
      </trkpt>
      <trkpt lat="50.2354" lon="3.28543">
        <ele>74.6395264</ele>
        <time>2011-08-15T07:33:06Z</time>
      </trkpt>
      <trkpt lat="50.23505" lon="3.28506">
        <ele>72.2362061</ele>
        <time>2011-08-15T07:33:13Z</time>
      </trkpt>
      <trkpt lat="50.23486" lon="3.28471">
        <ele>71.2749023</ele>
        <time>2011-08-15T07:33:18Z</time>
      </trkpt>
      <trkpt lat="50.23453" lon="3.28399">
        <ele>70.3134766</ele>
        <time>2011-08-15T07:33:28Z</time>
      </trkpt>
      <trkpt lat="50.23427" lon="3.28341">
        <ele>69.8328857</ele>
        <time>2011-08-15T07:33:36Z</time>
      </trkpt>
      <trkpt lat="50.23418" lon="3.28321">
        <ele>69.8328857</ele>
        <time>2011-08-15T07:33:39Z</time>
      </trkpt>
      <trkpt lat="50.23391" lon="3.28262">
        <ele>68.871582</ele>
        <time>2011-08-15T07:33:48Z</time>
      </trkpt>
      <trkpt lat="50.23365" lon="3.28199">
        <ele>68.3908691</ele>
        <time>2011-08-15T07:33:57Z</time>
      </trkpt>
      <trkpt lat="50.23331" lon="3.28121">
        <ele>67.9102783</ele>
        <time>2011-08-15T07:34:08Z</time>
      </trkpt>
      <trkpt lat="50.23311" lon="3.28074">
        <ele>67.9102783</ele>
        <time>2011-08-15T07:34:15Z</time>
      </trkpt>
      <trkpt lat="50.23276" lon="3.27994">
        <ele>67.9102783</ele>
        <time>2011-08-15T07:34:27Z</time>
      </trkpt>
      <trkpt lat="50.23245" lon="3.27916">
        <ele>67.4296875</ele>
        <time>2011-08-15T07:34:38Z</time>
      </trkpt>
      <trkpt lat="50.23221" lon="3.27853">
        <ele>66.9489746</ele>
        <time>2011-08-15T07:34:47Z</time>
      </trkpt>
      <trkpt lat="50.23196" lon="3.27789">
        <ele>65.9876709</ele>
        <time>2011-08-15T07:34:56Z</time>
      </trkpt>
      <trkpt lat="50.23165" lon="3.27712">
        <ele>65.5070801</ele>
        <time>2011-08-15T07:35:07Z</time>
      </trkpt>
      <trkpt lat="50.2314" lon="3.27651">
        <ele>66.9489746</ele>
        <time>2011-08-15T07:35:16Z</time>
      </trkpt>
      <trkpt lat="50.23111" lon="3.27576">
        <ele>67.9102783</ele>
        <time>2011-08-15T07:35:27Z</time>
      </trkpt>
      <trkpt lat="50.23085" lon="3.27507">
        <ele>68.871582</ele>
        <time>2011-08-15T07:35:37Z</time>
      </trkpt>
      <trkpt lat="50.23065" lon="3.27443">
        <ele>68.871582</ele>
        <time>2011-08-15T07:35:46Z</time>
      </trkpt>
      <trkpt lat="50.23045" lon="3.27377">
        <ele>69.3522949</ele>
        <time>2011-08-15T07:35:55Z</time>
      </trkpt>
      <trkpt lat="50.23024" lon="3.27304">
        <ele>68.871582</ele>
        <time>2011-08-15T07:36:05Z</time>
      </trkpt>
      <trkpt lat="50.23001" lon="3.27225">
        <ele>68.3908691</ele>
        <time>2011-08-15T07:36:16Z</time>
      </trkpt>
      <trkpt lat="50.2298" lon="3.27161">
        <ele>68.871582</ele>
        <time>2011-08-15T07:36:25Z</time>
      </trkpt>
      <trkpt lat="50.22978" lon="3.27153">
        <ele>68.871582</ele>
        <time>2011-08-15T07:36:26Z</time>
      </trkpt>
      <trkpt lat="50.22975" lon="3.27137">
        <ele>68.3908691</ele>
        <time>2011-08-15T07:36:28Z</time>
      </trkpt>
      <trkpt lat="50.22975" lon="3.27104">
        <ele>68.3908691</ele>
        <time>2011-08-15T07:36:32Z</time>
      </trkpt>
      <trkpt lat="50.22972" lon="3.27073">
        <ele>68.3908691</ele>
        <time>2011-08-15T07:36:36Z</time>
      </trkpt>
      <trkpt lat="50.22945" lon="3.26986">
        <ele>67.9102783</ele>
        <time>2011-08-15T07:36:47Z</time>
      </trkpt>
      <trkpt lat="50.22918" lon="3.26906">
        <ele>66.9489746</ele>
        <time>2011-08-15T07:36:57Z</time>
      </trkpt>
      <trkpt lat="50.2289" lon="3.26822">
        <ele>66.4682617</ele>
        <time>2011-08-15T07:37:07Z</time>
      </trkpt>
      <trkpt lat="50.22873" lon="3.26796">
        <ele>66.4682617</ele>
        <time>2011-08-15T07:37:11Z</time>
      </trkpt>
      <trkpt lat="50.22861" lon="3.26791">
        <ele>65.9876709</ele>
        <time>2011-08-15T07:37:13Z</time>
      </trkpt>
      <trkpt lat="50.22829" lon="3.26777">
        <ele>65.5070801</ele>
        <time>2011-08-15T07:37:18Z</time>
      </trkpt>
      <trkpt lat="50.2281" lon="3.2675">
        <ele>65.0263672</ele>
        <time>2011-08-15T07:37:22Z</time>
      </trkpt>
      <trkpt lat="50.22782" lon="3.26681">
        <ele>65.0263672</ele>
        <time>2011-08-15T07:37:30Z</time>
      </trkpt>
      <trkpt lat="50.22752" lon="3.26595">
        <ele>65.0263672</ele>
        <time>2011-08-15T07:37:40Z</time>
      </trkpt>
      <trkpt lat="50.22733" lon="3.26545">
        <ele>65.9876709</ele>
        <time>2011-08-15T07:37:46Z</time>
      </trkpt>
      <trkpt lat="50.2271" lon="3.26478">
        <ele>66.4682617</ele>
        <time>2011-08-15T07:37:54Z</time>
      </trkpt>
      <trkpt lat="50.22694" lon="3.26418">
        <ele>67.4296875</ele>
        <time>2011-08-15T07:38:01Z</time>
      </trkpt>
      <trkpt lat="50.22685" lon="3.2636">
        <ele>68.3908691</ele>
        <time>2011-08-15T07:38:08Z</time>
      </trkpt>
      <trkpt lat="50.22684" lon="3.26353">
        <ele>68.871582</ele>
        <time>2011-08-15T07:38:09Z</time>
      </trkpt>
      <trkpt lat="50.22689" lon="3.26331">
        <ele>69.3522949</ele>
        <time>2011-08-15T07:38:13Z</time>
      </trkpt>
      <trkpt lat="50.22694" lon="3.26322">
        <ele>69.3522949</ele>
        <time>2011-08-15T07:38:15Z</time>
      </trkpt>
      <trkpt lat="50.22713" lon="3.26306">
        <ele>68.871582</ele>
        <time>2011-08-15T07:38:20Z</time>
      </trkpt>
      <trkpt lat="50.22755" lon="3.26302">
        <ele>68.3908691</ele>
        <time>2011-08-15T07:38:28Z</time>
      </trkpt>
      <trkpt lat="50.2276" lon="3.26302">
        <ele>67.9102783</ele>
        <time>2011-08-15T07:38:29Z</time>
      </trkpt>
      <trkpt lat="50.22767" lon="3.26291">
        <ele>67.9102783</ele>
        <time>2011-08-15T07:38:32Z</time>
      </trkpt>
      <trkpt lat="50.22762" lon="3.26286">
        <ele>67.9102783</ele>
        <time>2011-08-15T07:38:34Z</time>
      </trkpt>
      <trkpt lat="50.22757" lon="3.26286">
        <ele>67.4296875</ele>
        <time>2011-08-15T07:38:35Z</time>
      </trkpt>
      <trkpt lat="50.22719" lon="3.26285">
        <ele>66.4682617</ele>
        <time>2011-08-15T07:38:42Z</time>
      </trkpt>
      <trkpt lat="50.22661" lon="3.26283">
        <ele>64.5456543</ele>
        <time>2011-08-15T07:38:51Z</time>
      </trkpt>
      <trkpt lat="50.22637" lon="3.26266">
        <ele>64.0650635</ele>
        <time>2011-08-15T07:38:55Z</time>
      </trkpt>
      <trkpt lat="50.2263" lon="3.26249">
        <ele>64.0650635</ele>
        <time>2011-08-15T07:38:57Z</time>
      </trkpt>
      <trkpt lat="50.22604" lon="3.26175">
        <ele>65.0263672</ele>
        <time>2011-08-15T07:39:06Z</time>
      </trkpt>
      <trkpt lat="50.22586" lon="3.26125">
        <ele>65.5070801</ele>
        <time>2011-08-15T07:39:13Z</time>
      </trkpt>
      <trkpt lat="50.22561" lon="3.26055">
        <ele>64.5456543</ele>
        <time>2011-08-15T07:39:22Z</time>
      </trkpt>
      <trkpt lat="50.22538" lon="3.25989">
        <ele>64.0650635</ele>
        <time>2011-08-15T07:39:30Z</time>
      </trkpt>
      <trkpt lat="50.22512" lon="3.2592">
        <ele>63.1036377</ele>
        <time>2011-08-15T07:39:39Z</time>
      </trkpt>
      <trkpt lat="50.22487" lon="3.2585">
        <ele>63.1036377</ele>
        <time>2011-08-15T07:39:48Z</time>
      </trkpt>
      <trkpt lat="50.22462" lon="3.25778">
        <ele>63.1036377</ele>
        <time>2011-08-15T07:39:57Z</time>
      </trkpt>
      <trkpt lat="50.2244" lon="3.25716">
        <ele>63.5843506</ele>
        <time>2011-08-15T07:40:05Z</time>
      </trkpt>
      <trkpt lat="50.22413" lon="3.25643">
        <ele>63.1036377</ele>
        <time>2011-08-15T07:40:14Z</time>
      </trkpt>
      <trkpt lat="50.22385" lon="3.25574">
        <ele>62.6229248</ele>
        <time>2011-08-15T07:40:23Z</time>
      </trkpt>
      <trkpt lat="50.2235" lon="3.25489">
        <ele>60.7003174</ele>
        <time>2011-08-15T07:40:33Z</time>
      </trkpt>
      <trkpt lat="50.22324" lon="3.25421">
        <ele>60.7003174</ele>
        <time>2011-08-15T07:40:41Z</time>
      </trkpt>
      <trkpt lat="50.22291" lon="3.25336">
        <ele>59.7391357</ele>
        <time>2011-08-15T07:40:51Z</time>
      </trkpt>
      <trkpt lat="50.22265" lon="3.25269">
        <ele>59.2584229</ele>
        <time>2011-08-15T07:40:59Z</time>
      </trkpt>
      <trkpt lat="50.22233" lon="3.25189">
        <ele>59.2584229</ele>
        <time>2011-08-15T07:41:09Z</time>
      </trkpt>
      <trkpt lat="50.22203" lon="3.25114">
        <ele>58.2971191</ele>
        <time>2011-08-15T07:41:18Z</time>
      </trkpt>
      <trkpt lat="50.22182" lon="3.25063">
        <ele>57.8165283</ele>
        <time>2011-08-15T07:41:25Z</time>
      </trkpt>
      <trkpt lat="50.22158" lon="3.25003">
        <ele>57.3358154</ele>
        <time>2011-08-15T07:41:33Z</time>
      </trkpt>
      <trkpt lat="50.22133" lon="3.24942">
        <ele>56.3745117</ele>
        <time>2011-08-15T07:41:41Z</time>
      </trkpt>
      <trkpt lat="50.22123" lon="3.24918">
        <ele>55.8937988</ele>
        <time>2011-08-15T07:41:44Z</time>
      </trkpt>
      <trkpt lat="50.22118" lon="3.24874">
        <ele>56.3745117</ele>
        <time>2011-08-15T07:41:49Z</time>
      </trkpt>
      <trkpt lat="50.22122" lon="3.24809">
        <ele>57.8165283</ele>
        <time>2011-08-15T07:41:57Z</time>
      </trkpt>
      <trkpt lat="50.22127" lon="3.2476">
        <ele>58.2971191</ele>
        <time>2011-08-15T07:42:03Z</time>
      </trkpt>
      <trkpt lat="50.22128" lon="3.24744">
        <ele>58.2971191</ele>
        <time>2011-08-15T07:42:05Z</time>
      </trkpt>
      <trkpt lat="50.22121" lon="3.24722">
        <ele>58.2971191</ele>
        <time>2011-08-15T07:42:09Z</time>
      </trkpt>
      <trkpt lat="50.22114" lon="3.24729">
        <ele>58.77771</ele>
        <time>2011-08-15T07:42:12Z</time>
      </trkpt>
      <trkpt lat="50.22113" lon="3.24735">
        <ele>58.77771</ele>
        <time>2011-08-15T07:42:13Z</time>
      </trkpt>
      <trkpt lat="50.22106" lon="3.24788">
        <ele>59.7391357</ele>
        <time>2011-08-15T07:42:21Z</time>
      </trkpt>
      <trkpt lat="50.22098" lon="3.24821">
        <ele>61.1810303</ele>
        <time>2011-08-15T07:42:28Z</time>
      </trkpt>
      <trkpt lat="50.22091" lon="3.24853">
        <ele>62.142334</ele>
        <time>2011-08-15T07:42:34Z</time>
      </trkpt>
      <trkpt lat="50.22081" lon="3.24895">
        <ele>62.6229248</ele>
        <time>2011-08-15T07:42:41Z</time>
      </trkpt>
      <trkpt lat="50.22069" lon="3.24949">
        <ele>62.142334</ele>
        <time>2011-08-15T07:42:49Z</time>
      </trkpt>
      <trkpt lat="50.22056" lon="3.25009">
        <ele>60.7003174</ele>
        <time>2011-08-15T07:42:57Z</time>
      </trkpt>
      <trkpt lat="50.2205" lon="3.25073">
        <ele>59.2584229</ele>
        <time>2011-08-15T07:43:04Z</time>
      </trkpt>
      <trkpt lat="50.22052" lon="3.2514">
        <ele>56.8551025</ele>
        <time>2011-08-15T07:43:10Z</time>
      </trkpt>
      <trkpt lat="50.22062" lon="3.25202">
        <ele>55.4130859</ele>
        <time>2011-08-15T07:43:15Z</time>
      </trkpt>
      <trkpt lat="50.22085" lon="3.25294">
        <ele>52.5291748</ele>
        <time>2011-08-15T07:43:22Z</time>
      </trkpt>
      <trkpt lat="50.22117" lon="3.25424">
        <ele>51.0871582</ele>
        <time>2011-08-15T07:43:32Z</time>
      </trkpt>
      <trkpt lat="50.22128" lon="3.25481">
        <ele>51.0871582</ele>
        <time>2011-08-15T07:43:37Z</time>
      </trkpt>
      <trkpt lat="50.22129" lon="3.25489">
        <ele>51.0871582</ele>
        <time>2011-08-15T07:43:38Z</time>
      </trkpt>
      <trkpt lat="50.22125" lon="3.25503">
        <ele>50.6065674</ele>
        <time>2011-08-15T07:43:41Z</time>
      </trkpt>
      <trkpt lat="50.22118" lon="3.25493">
        <ele>50.1259766</ele>
        <time>2011-08-15T07:43:44Z</time>
      </trkpt>
      <trkpt lat="50.22115" lon="3.2548">
        <ele>49.6452637</ele>
        <time>2011-08-15T07:43:46Z</time>
      </trkpt>
      <trkpt lat="50.22098" lon="3.2541">
        <ele>47.7225342</ele>
        <time>2011-08-15T07:43:55Z</time>
      </trkpt>
      <trkpt lat="50.22075" lon="3.25324">
        <ele>48.2033691</ele>
        <time>2011-08-15T07:44:06Z</time>
      </trkpt>
      <trkpt lat="50.22057" lon="3.25259">
        <ele>48.68396</ele>
        <time>2011-08-15T07:44:15Z</time>
      </trkpt>
      <trkpt lat="50.2204" lon="3.25196">
        <ele>49.1645508</ele>
        <time>2011-08-15T07:44:23Z</time>
      </trkpt>
      <trkpt lat="50.22035" lon="3.25167">
        <ele>49.1645508</ele>
        <time>2011-08-15T07:44:27Z</time>
      </trkpt>
      <trkpt lat="50.22022" lon="3.25147">
        <ele>49.6452637</ele>
        <time>2011-08-15T07:44:31Z</time>
      </trkpt>
      <trkpt lat="50.21986" lon="3.25137">
        <ele>49.6452637</ele>
        <time>2011-08-15T07:44:39Z</time>
      </trkpt>
      <trkpt lat="50.21978" lon="3.25135">
        <ele>49.6452637</ele>
        <time>2011-08-15T07:44:41Z</time>
      </trkpt>
      <trkpt lat="50.21962" lon="3.25131">
        <ele>49.6452637</ele>
        <time>2011-08-15T07:44:45Z</time>
      </trkpt>
      <trkpt lat="50.21927" lon="3.25121">
        <ele>51.0871582</ele>
        <time>2011-08-15T07:44:53Z</time>
      </trkpt>
      <trkpt lat="50.21885" lon="3.25109">
        <ele>52.048584</ele>
        <time>2011-08-15T07:45:03Z</time>
      </trkpt>
      <trkpt lat="50.2185" lon="3.25099">
        <ele>53.4904785</ele>
        <time>2011-08-15T07:45:12Z</time>
      </trkpt>
      <trkpt lat="50.21816" lon="3.2509">
        <ele>54.4517822</ele>
        <time>2011-08-15T07:45:21Z</time>
      </trkpt>
      <trkpt lat="50.21809" lon="3.25088">
        <ele>54.932373</ele>
        <time>2011-08-15T07:45:23Z</time>
      </trkpt>
      <trkpt lat="50.21786" lon="3.25048">
        <ele>55.8937988</ele>
        <time>2011-08-15T07:45:32Z</time>
      </trkpt>
      <trkpt lat="50.21765" lon="3.25013">
        <ele>56.3745117</ele>
        <time>2011-08-15T07:45:39Z</time>
      </trkpt>
      <trkpt lat="50.21736" lon="3.24962">
        <ele>57.3358154</ele>
        <time>2011-08-15T07:45:49Z</time>
      </trkpt>
      <trkpt lat="50.21719" lon="3.24934">
        <ele>56.8551025</ele>
        <time>2011-08-15T07:45:55Z</time>
      </trkpt>
      <trkpt lat="50.2171" lon="3.24919">
        <ele>57.3358154</ele>
        <time>2011-08-15T07:46:01Z</time>
      </trkpt>
      <trkpt lat="50.21698" lon="3.24897">
        <ele>57.8165283</ele>
        <time>2011-08-15T07:46:06Z</time>
      </trkpt>
      <trkpt lat="50.21673" lon="3.24855">
        <ele>57.8165283</ele>
        <time>2011-08-15T07:46:14Z</time>
      </trkpt>
      <trkpt lat="50.21637" lon="3.24795">
        <ele>59.2584229</ele>
        <time>2011-08-15T07:46:25Z</time>
      </trkpt>
      <trkpt lat="50.21608" lon="3.24745">
        <ele>59.2584229</ele>
        <time>2011-08-15T07:46:34Z</time>
      </trkpt>
      <trkpt lat="50.21582" lon="3.24701">
        <ele>60.2197266</ele>
        <time>2011-08-15T07:46:42Z</time>
      </trkpt>
      <trkpt lat="50.21556" lon="3.24658">
        <ele>60.7003174</ele>
        <time>2011-08-15T07:46:50Z</time>
      </trkpt>
      <trkpt lat="50.21521" lon="3.24598">
        <ele>63.1036377</ele>
        <time>2011-08-15T07:47:01Z</time>
      </trkpt>
      <trkpt lat="50.21484" lon="3.24536">
        <ele>64.0650635</ele>
        <time>2011-08-15T07:47:12Z</time>
      </trkpt>
      <trkpt lat="50.21457" lon="3.24491">
        <ele>64.5456543</ele>
        <time>2011-08-15T07:47:20Z</time>
      </trkpt>
      <trkpt lat="50.21422" lon="3.24433">
        <ele>65.0263672</ele>
        <time>2011-08-15T07:47:30Z</time>
      </trkpt>
      <trkpt lat="50.21402" lon="3.24394">
        <ele>65.0263672</ele>
        <time>2011-08-15T07:47:37Z</time>
      </trkpt>
      <trkpt lat="50.21399" lon="3.24369">
        <ele>64.0650635</ele>
        <time>2011-08-15T07:47:42Z</time>
      </trkpt>
      <trkpt lat="50.21402" lon="3.24366">
        <ele>64.0650635</ele>
        <time>2011-08-15T07:47:43Z</time>
      </trkpt>
      <trkpt lat="50.21425" lon="3.24346">
        <ele>63.5843506</ele>
        <time>2011-08-15T07:47:49Z</time>
      </trkpt>
      <trkpt lat="50.21429" lon="3.24342">
        <ele>63.1036377</ele>
        <time>2011-08-15T07:47:50Z</time>
      </trkpt>
      <trkpt lat="50.21437" lon="3.24321">
        <ele>63.1036377</ele>
        <time>2011-08-15T07:47:54Z</time>
      </trkpt>
      <trkpt lat="50.21432" lon="3.24307">
        <ele>63.5843506</ele>
        <time>2011-08-15T07:47:57Z</time>
      </trkpt>
      <trkpt lat="50.2143" lon="3.24303">
        <ele>64.0650635</ele>
        <time>2011-08-15T07:47:58Z</time>
      </trkpt>
      <trkpt lat="50.21404" lon="3.24256">
        <ele>64.5456543</ele>
        <time>2011-08-15T07:48:08Z</time>
      </trkpt>
      <trkpt lat="50.21377" lon="3.24203">
        <ele>65.0263672</ele>
        <time>2011-08-15T07:48:18Z</time>
      </trkpt>
      <trkpt lat="50.21346" lon="3.24144">
        <ele>65.0263672</ele>
        <time>2011-08-15T07:48:29Z</time>
      </trkpt>
      <trkpt lat="50.21323" lon="3.24099">
        <ele>65.0263672</ele>
        <time>2011-08-15T07:48:37Z</time>
      </trkpt>
      <trkpt lat="50.21304" lon="3.2406">
        <ele>65.0263672</ele>
        <time>2011-08-15T07:48:44Z</time>
      </trkpt>
      <trkpt lat="50.21278" lon="3.24009">
        <ele>65.9876709</ele>
        <time>2011-08-15T07:48:53Z</time>
      </trkpt>
      <trkpt lat="50.21244" lon="3.23945">
        <ele>66.4682617</ele>
        <time>2011-08-15T07:49:04Z</time>
      </trkpt>
      <trkpt lat="50.21213" lon="3.23887">
        <ele>66.4682617</ele>
        <time>2011-08-15T07:49:14Z</time>
      </trkpt>
      <trkpt lat="50.2118" lon="3.23824">
        <ele>67.4296875</ele>
        <time>2011-08-15T07:49:25Z</time>
      </trkpt>
      <trkpt lat="50.21149" lon="3.23767">
        <ele>67.4296875</ele>
        <time>2011-08-15T07:49:35Z</time>
      </trkpt>
      <trkpt lat="50.21114" lon="3.23701">
        <ele>67.4296875</ele>
        <time>2011-08-15T07:49:46Z</time>
      </trkpt>
      <trkpt lat="50.21079" lon="3.23632">
        <ele>66.9489746</ele>
        <time>2011-08-15T07:49:57Z</time>
      </trkpt>
      <trkpt lat="50.21047" lon="3.23569">
        <ele>66.9489746</ele>
        <time>2011-08-15T07:50:07Z</time>
      </trkpt>
      <trkpt lat="50.21022" lon="3.2352">
        <ele>67.4296875</ele>
        <time>2011-08-15T07:50:15Z</time>
      </trkpt>
      <trkpt lat="50.20995" lon="3.2347">
        <ele>67.4296875</ele>
        <time>2011-08-15T07:50:23Z</time>
      </trkpt>
      <trkpt lat="50.20967" lon="3.23433">
        <ele>67.4296875</ele>
        <time>2011-08-15T07:50:30Z</time>
      </trkpt>
      <trkpt lat="50.20932" lon="3.23389">
        <ele>68.871582</ele>
        <time>2011-08-15T07:50:39Z</time>
      </trkpt>
      <trkpt lat="50.20894" lon="3.23342">
        <ele>70.7941895</ele>
        <time>2011-08-15T07:50:49Z</time>
      </trkpt>
      <trkpt lat="50.2088" lon="3.23324">
        <ele>71.7554932</ele>
        <time>2011-08-15T07:50:53Z</time>
      </trkpt>
      <trkpt lat="50.20873" lon="3.23314">
        <ele>71.7554932</ele>
        <time>2011-08-15T07:50:55Z</time>
      </trkpt>
      <trkpt lat="50.20834" lon="3.23264">
        <ele>73.1976318</ele>
        <time>2011-08-15T07:51:06Z</time>
      </trkpt>
      <trkpt lat="50.2081" lon="3.23234">
        <ele>74.1588135</ele>
        <time>2011-08-15T07:51:13Z</time>
      </trkpt>
      <trkpt lat="50.20806" lon="3.2323">
        <ele>74.1588135</ele>
        <time>2011-08-15T07:51:14Z</time>
      </trkpt>
      <trkpt lat="50.20801" lon="3.2321">
        <ele>73.6782227</ele>
        <time>2011-08-15T07:51:18Z</time>
      </trkpt>
      <trkpt lat="50.20807" lon="3.23198">
        <ele>73.6782227</ele>
        <time>2011-08-15T07:51:22Z</time>
      </trkpt>
      <trkpt lat="50.20827" lon="3.23178">
        <ele>73.1976318</ele>
        <time>2011-08-15T07:51:29Z</time>
      </trkpt>
      <trkpt lat="50.20852" lon="3.2315">
        <ele>73.1976318</ele>
        <time>2011-08-15T07:51:36Z</time>
      </trkpt>
      <trkpt lat="50.20882" lon="3.23114">
        <ele>72.7169189</ele>
        <time>2011-08-15T07:51:44Z</time>
      </trkpt>
      <trkpt lat="50.20914" lon="3.23076">
        <ele>72.2362061</ele>
        <time>2011-08-15T07:51:52Z</time>
      </trkpt>
      <trkpt lat="50.2095" lon="3.23029">
        <ele>71.7554932</ele>
        <time>2011-08-15T07:52:01Z</time>
      </trkpt>
      <trkpt lat="50.20973" lon="3.23">
        <ele>71.2749023</ele>
        <time>2011-08-15T07:52:07Z</time>
      </trkpt>
      <trkpt lat="50.20994" lon="3.22975">
        <ele>70.7941895</ele>
        <time>2011-08-15T07:52:12Z</time>
      </trkpt>
      <trkpt lat="50.2101" lon="3.22954">
        <ele>70.3134766</ele>
        <time>2011-08-15T07:52:16Z</time>
      </trkpt>
      <trkpt lat="50.2104" lon="3.22921">
        <ele>70.3134766</ele>
        <time>2011-08-15T07:52:23Z</time>
      </trkpt>
      <trkpt lat="50.21067" lon="3.22897">
        <ele>69.8328857</ele>
        <time>2011-08-15T07:52:29Z</time>
      </trkpt>
      <trkpt lat="50.21093" lon="3.22868">
        <ele>69.3522949</ele>
        <time>2011-08-15T07:52:35Z</time>
      </trkpt>
      <trkpt lat="50.21122" lon="3.22839">
        <ele>69.8328857</ele>
        <time>2011-08-15T07:52:42Z</time>
      </trkpt>
      <trkpt lat="50.21152" lon="3.22793">
        <ele>70.3134766</ele>
        <time>2011-08-15T07:52:51Z</time>
      </trkpt>
      <trkpt lat="50.21177" lon="3.22757">
        <ele>70.7941895</ele>
        <time>2011-08-15T07:52:58Z</time>
      </trkpt>
      <trkpt lat="50.21211" lon="3.22715">
        <ele>71.2749023</ele>
        <time>2011-08-15T07:53:07Z</time>
      </trkpt>
      <trkpt lat="50.21246" lon="3.22667">
        <ele>72.2362061</ele>
        <time>2011-08-15T07:53:17Z</time>
      </trkpt>
      <trkpt lat="50.21275" lon="3.22625">
        <ele>72.7169189</ele>
        <time>2011-08-15T07:53:26Z</time>
      </trkpt>
      <trkpt lat="50.213" lon="3.22591">
        <ele>72.7169189</ele>
        <time>2011-08-15T07:53:34Z</time>
      </trkpt>
      <trkpt lat="50.21328" lon="3.22551">
        <ele>72.2362061</ele>
        <time>2011-08-15T07:53:42Z</time>
      </trkpt>
      <trkpt lat="50.21338" lon="3.22536">
        <ele>72.2362061</ele>
        <time>2011-08-15T07:53:45Z</time>
      </trkpt>
      <trkpt lat="50.2137" lon="3.22487">
        <ele>70.3134766</ele>
        <time>2011-08-15T07:53:54Z</time>
      </trkpt>
      <trkpt lat="50.21402" lon="3.22432">
        <ele>67.9102783</ele>
        <time>2011-08-15T07:54:02Z</time>
      </trkpt>
      <trkpt lat="50.21437" lon="3.22384">
        <ele>65.5070801</ele>
        <time>2011-08-15T07:54:09Z</time>
      </trkpt>
      <trkpt lat="50.21476" lon="3.22339">
        <ele>64.0650635</ele>
        <time>2011-08-15T07:54:16Z</time>
      </trkpt>
      <trkpt lat="50.21523" lon="3.22295">
        <ele>61.6617432</ele>
        <time>2011-08-15T07:54:24Z</time>
      </trkpt>
      <trkpt lat="50.21529" lon="3.2229">
        <ele>61.6617432</ele>
        <time>2011-08-15T07:54:25Z</time>
      </trkpt>
      <trkpt lat="50.21582" lon="3.22245">
        <ele>58.77771</ele>
        <time>2011-08-15T07:54:34Z</time>
      </trkpt>
      <trkpt lat="50.21619" lon="3.22206">
        <ele>55.4130859</ele>
        <time>2011-08-15T07:54:41Z</time>
      </trkpt>
      <trkpt lat="50.21634" lon="3.22188">
        <ele>53.9711914</ele>
        <time>2011-08-15T07:54:44Z</time>
      </trkpt>
      <trkpt lat="50.21662" lon="3.2215">
        <ele>51.5678711</ele>
        <time>2011-08-15T07:54:50Z</time>
      </trkpt>
      <trkpt lat="50.21677" lon="3.22124">
        <ele>52.048584</ele>
        <time>2011-08-15T07:54:55Z</time>
      </trkpt>
      <trkpt lat="50.2168" lon="3.22117">
        <ele>52.048584</ele>
        <time>2011-08-15T07:54:57Z</time>
      </trkpt>
      <trkpt lat="50.21687" lon="3.22108">
        <ele>53.4904785</ele>
        <time>2011-08-15T07:55:01Z</time>
      </trkpt>
      <trkpt lat="50.21702" lon="3.22085">
        <ele>53.9711914</ele>
        <time>2011-08-15T07:55:09Z</time>
      </trkpt>
      <trkpt lat="50.21715" lon="3.22058">
        <ele>53.4904785</ele>
        <time>2011-08-15T07:55:15Z</time>
      </trkpt>
      <trkpt lat="50.21721" lon="3.22044">
        <ele>53.4904785</ele>
        <time>2011-08-15T07:55:18Z</time>
      </trkpt>
      <trkpt lat="50.21723" lon="3.22042">
        <ele>54.4517822</ele>
        <time>2011-08-15T07:55:22Z</time>
      </trkpt>
      <trkpt lat="50.21726" lon="3.22041">
        <ele>65.5070801</ele>
        <time>2011-08-15T08:00:30Z</time>
      </trkpt>
      <trkpt lat="50.21738" lon="3.22037">
        <ele>65.0263672</ele>
        <time>2011-08-15T08:00:34Z</time>
      </trkpt>
      <trkpt lat="50.21753" lon="3.22018">
        <ele>64.5456543</ele>
        <time>2011-08-15T08:00:39Z</time>
      </trkpt>
      <trkpt lat="50.21764" lon="3.21985">
        <ele>64.0650635</ele>
        <time>2011-08-15T08:00:45Z</time>
      </trkpt>
      <trkpt lat="50.21778" lon="3.2194">
        <ele>64.0650635</ele>
        <time>2011-08-15T08:00:53Z</time>
      </trkpt>
      <trkpt lat="50.21787" lon="3.21911">
        <ele>64.0650635</ele>
        <time>2011-08-15T08:00:58Z</time>
      </trkpt>
      <trkpt lat="50.21807" lon="3.21851">
        <ele>63.1036377</ele>
        <time>2011-08-15T08:01:07Z</time>
      </trkpt>
      <trkpt lat="50.21826" lon="3.21795">
        <ele>62.142334</ele>
        <time>2011-08-15T08:01:15Z</time>
      </trkpt>
      <trkpt lat="50.21848" lon="3.21737">
        <ele>61.1810303</ele>
        <time>2011-08-15T08:01:23Z</time>
      </trkpt>
      <trkpt lat="50.21874" lon="3.21673">
        <ele>59.7391357</ele>
        <time>2011-08-15T08:01:32Z</time>
      </trkpt>
      <trkpt lat="50.21901" lon="3.21625">
        <ele>58.77771</ele>
        <time>2011-08-15T08:01:39Z</time>
      </trkpt>
      <trkpt lat="50.2193" lon="3.21577">
        <ele>58.2971191</ele>
        <time>2011-08-15T08:01:46Z</time>
      </trkpt>
      <trkpt lat="50.21968" lon="3.21508">
        <ele>56.8551025</ele>
        <time>2011-08-15T08:01:55Z</time>
      </trkpt>
      <trkpt lat="50.21981" lon="3.21475">
        <ele>55.8937988</ele>
        <time>2011-08-15T08:01:59Z</time>
      </trkpt>
      <trkpt lat="50.21993" lon="3.21405">
        <ele>55.4130859</ele>
        <time>2011-08-15T08:02:07Z</time>
      </trkpt>
      <trkpt lat="50.21999" lon="3.21328">
        <ele>54.4517822</ele>
        <time>2011-08-15T08:02:16Z</time>
      </trkpt>
      <trkpt lat="50.22" lon="3.21303">
        <ele>54.4517822</ele>
        <time>2011-08-15T08:02:19Z</time>
      </trkpt>
      <trkpt lat="50.2201" lon="3.21275">
        <ele>53.9711914</ele>
        <time>2011-08-15T08:02:23Z</time>
      </trkpt>
      <trkpt lat="50.22014" lon="3.21269">
        <ele>53.9711914</ele>
        <time>2011-08-15T08:02:24Z</time>
      </trkpt>
      <trkpt lat="50.22034" lon="3.21231">
        <ele>53.0097656</ele>
        <time>2011-08-15T08:02:30Z</time>
      </trkpt>
      <trkpt lat="50.22051" lon="3.21215">
        <ele>53.0097656</ele>
        <time>2011-08-15T08:02:34Z</time>
      </trkpt>
      <trkpt lat="50.22066" lon="3.21204">
        <ele>51.0871582</ele>
        <time>2011-08-15T08:02:37Z</time>
      </trkpt>
      <trkpt lat="50.22084" lon="3.21183">
        <ele>49.6452637</ele>
        <time>2011-08-15T08:02:41Z</time>
      </trkpt>
      <trkpt lat="50.22118" lon="3.21118">
        <ele>50.1259766</ele>
        <time>2011-08-15T08:02:50Z</time>
      </trkpt>
      <trkpt lat="50.22135" lon="3.21067">
        <ele>49.6452637</ele>
        <time>2011-08-15T08:02:56Z</time>
      </trkpt>
      <trkpt lat="50.22156" lon="3.21031">
        <ele>49.1645508</ele>
        <time>2011-08-15T08:03:01Z</time>
      </trkpt>
      <trkpt lat="50.22192" lon="3.20987">
        <ele>50.6065674</ele>
        <time>2011-08-15T08:03:09Z</time>
      </trkpt>
      <trkpt lat="50.22223" lon="3.20951">
        <ele>51.5678711</ele>
        <time>2011-08-15T08:03:16Z</time>
      </trkpt>
      <trkpt lat="50.22247" lon="3.20926">
        <ele>52.5291748</ele>
        <time>2011-08-15T08:03:22Z</time>
      </trkpt>
      <trkpt lat="50.22279" lon="3.2089">
        <ele>54.4517822</ele>
        <time>2011-08-15T08:03:31Z</time>
      </trkpt>
      <trkpt lat="50.22305" lon="3.20855">
        <ele>54.932373</ele>
        <time>2011-08-15T08:03:39Z</time>
      </trkpt>
      <trkpt lat="50.22325" lon="3.20801">
        <ele>56.8551025</ele>
        <time>2011-08-15T08:03:48Z</time>
      </trkpt>
      <trkpt lat="50.22349" lon="3.20742">
        <ele>58.77771</ele>
        <time>2011-08-15T08:03:58Z</time>
      </trkpt>
      <trkpt lat="50.22373" lon="3.207">
        <ele>60.7003174</ele>
        <time>2011-08-15T08:04:07Z</time>
      </trkpt>
      <trkpt lat="50.22393" lon="3.20667">
        <ele>61.1810303</ele>
        <time>2011-08-15T08:04:14Z</time>
      </trkpt>
      <trkpt lat="50.22412" lon="3.20634">
        <ele>62.6229248</ele>
        <time>2011-08-15T08:04:21Z</time>
      </trkpt>
      <trkpt lat="50.22437" lon="3.20593">
        <ele>64.0650635</ele>
        <time>2011-08-15T08:04:30Z</time>
      </trkpt>
      <trkpt lat="50.2246" lon="3.20549">
        <ele>65.0263672</ele>
        <time>2011-08-15T08:04:39Z</time>
      </trkpt>
      <trkpt lat="50.22485" lon="3.20485">
        <ele>65.5070801</ele>
        <time>2011-08-15T08:04:50Z</time>
      </trkpt>
      <trkpt lat="50.22514" lon="3.20412">
        <ele>65.9876709</ele>
        <time>2011-08-15T08:05:02Z</time>
      </trkpt>
      <trkpt lat="50.22536" lon="3.20355">
        <ele>65.9876709</ele>
        <time>2011-08-15T08:05:11Z</time>
      </trkpt>
      <trkpt lat="50.22562" lon="3.2029">
        <ele>65.9876709</ele>
        <time>2011-08-15T08:05:21Z</time>
      </trkpt>
      <trkpt lat="50.22586" lon="3.20229">
        <ele>65.9876709</ele>
        <time>2011-08-15T08:05:30Z</time>
      </trkpt>
      <trkpt lat="50.22615" lon="3.20159">
        <ele>65.5070801</ele>
        <time>2011-08-15T08:05:40Z</time>
      </trkpt>
      <trkpt lat="50.22646" lon="3.20101">
        <ele>65.0263672</ele>
        <time>2011-08-15T08:05:49Z</time>
      </trkpt>
      <trkpt lat="50.22669" lon="3.20063">
        <ele>64.5456543</ele>
        <time>2011-08-15T08:05:56Z</time>
      </trkpt>
      <trkpt lat="50.22677" lon="3.2005">
        <ele>64.0650635</ele>
        <time>2011-08-15T08:05:59Z</time>
      </trkpt>
      <trkpt lat="50.22681" lon="3.20036">
        <ele>64.0650635</ele>
        <time>2011-08-15T08:06:04Z</time>
      </trkpt>
      <trkpt lat="50.22691" lon="3.20023">
        <ele>63.1036377</ele>
        <time>2011-08-15T08:06:09Z</time>
      </trkpt>
      <trkpt lat="50.22705" lon="3.19996">
        <ele>63.1036377</ele>
        <time>2011-08-15T08:06:14Z</time>
      </trkpt>
      <trkpt lat="50.22737" lon="3.19926">
        <ele>63.1036377</ele>
        <time>2011-08-15T08:06:25Z</time>
      </trkpt>
      <trkpt lat="50.22769" lon="3.19853">
        <ele>63.1036377</ele>
        <time>2011-08-15T08:06:35Z</time>
      </trkpt>
      <trkpt lat="50.22801" lon="3.19771">
        <ele>63.1036377</ele>
        <time>2011-08-15T08:06:45Z</time>
      </trkpt>
      <trkpt lat="50.22837" lon="3.19675">
        <ele>63.5843506</ele>
        <time>2011-08-15T08:06:56Z</time>
      </trkpt>
      <trkpt lat="50.22863" lon="3.1959">
        <ele>64.5456543</ele>
        <time>2011-08-15T08:07:06Z</time>
      </trkpt>
      <trkpt lat="50.22885" lon="3.19519">
        <ele>65.5070801</ele>
        <time>2011-08-15T08:07:15Z</time>
      </trkpt>
      <trkpt lat="50.22897" lon="3.19462">
        <ele>66.4682617</ele>
        <time>2011-08-15T08:07:22Z</time>
      </trkpt>
      <trkpt lat="50.22903" lon="3.19396">
        <ele>67.4296875</ele>
        <time>2011-08-15T08:07:30Z</time>
      </trkpt>
      <trkpt lat="50.22914" lon="3.19316">
        <ele>68.3908691</ele>
        <time>2011-08-15T08:07:40Z</time>
      </trkpt>
      <trkpt lat="50.22929" lon="3.19239">
        <ele>68.871582</ele>
        <time>2011-08-15T08:07:50Z</time>
      </trkpt>
      <trkpt lat="50.22949" lon="3.19183">
        <ele>68.3908691</ele>
        <time>2011-08-15T08:07:58Z</time>
      </trkpt>
      <trkpt lat="50.22977" lon="3.1914">
        <ele>67.4296875</ele>
        <time>2011-08-15T08:08:05Z</time>
      </trkpt>
      <trkpt lat="50.23019" lon="3.19088">
        <ele>65.9876709</ele>
        <time>2011-08-15T08:08:14Z</time>
      </trkpt>
      <trkpt lat="50.23061" lon="3.19029">
        <ele>64.0650635</ele>
        <time>2011-08-15T08:08:23Z</time>
      </trkpt>
      <trkpt lat="50.23103" lon="3.1897">
        <ele>62.6229248</ele>
        <time>2011-08-15T08:08:31Z</time>
      </trkpt>
      <trkpt lat="50.23157" lon="3.18908">
        <ele>61.1810303</ele>
        <time>2011-08-15T08:08:40Z</time>
      </trkpt>
      <trkpt lat="50.23163" lon="3.18902">
        <ele>61.1810303</ele>
        <time>2011-08-15T08:08:41Z</time>
      </trkpt>
      <trkpt lat="50.23207" lon="3.18852">
        <ele>62.142334</ele>
        <time>2011-08-15T08:08:49Z</time>
      </trkpt>
      <trkpt lat="50.23252" lon="3.18797">
        <ele>64.0650635</ele>
        <time>2011-08-15T08:08:58Z</time>
      </trkpt>
      <trkpt lat="50.23262" lon="3.18787">
        <ele>63.5843506</ele>
        <time>2011-08-15T08:09:00Z</time>
      </trkpt>
      <trkpt lat="50.23312" lon="3.18758">
        <ele>62.6229248</ele>
        <time>2011-08-15T08:09:09Z</time>
      </trkpt>
      <trkpt lat="50.23354" lon="3.18737">
        <ele>62.6229248</ele>
        <time>2011-08-15T08:09:16Z</time>
      </trkpt>
      <trkpt lat="50.23382" lon="3.18725">
        <ele>61.6617432</ele>
        <time>2011-08-15T08:09:21Z</time>
      </trkpt>
      <trkpt lat="50.2339" lon="3.18724">
        <ele>61.1810303</ele>
        <time>2011-08-15T08:09:23Z</time>
      </trkpt>
      <trkpt lat="50.2341" lon="3.18717">
        <ele>60.7003174</ele>
        <time>2011-08-15T08:09:28Z</time>
      </trkpt>
      <trkpt lat="50.2343" lon="3.1871">
        <ele>60.7003174</ele>
        <time>2011-08-15T08:09:33Z</time>
      </trkpt>
      <trkpt lat="50.23467" lon="3.18697">
        <ele>60.2197266</ele>
        <time>2011-08-15T08:09:40Z</time>
      </trkpt>
      <trkpt lat="50.2352" lon="3.18678">
        <ele>59.7391357</ele>
        <time>2011-08-15T08:09:49Z</time>
      </trkpt>
      <trkpt lat="50.23562" lon="3.1867">
        <ele>59.2584229</ele>
        <time>2011-08-15T08:09:56Z</time>
      </trkpt>
      <trkpt lat="50.23618" lon="3.18669">
        <ele>59.7391357</ele>
        <time>2011-08-15T08:10:05Z</time>
      </trkpt>
      <trkpt lat="50.2368" lon="3.18668">
        <ele>59.7391357</ele>
        <time>2011-08-15T08:10:15Z</time>
      </trkpt>
      <trkpt lat="50.23733" lon="3.18666">
        <ele>60.2197266</ele>
        <time>2011-08-15T08:10:24Z</time>
      </trkpt>
      <trkpt lat="50.23793" lon="3.18664">
        <ele>59.7391357</ele>
        <time>2011-08-15T08:10:34Z</time>
      </trkpt>
      <trkpt lat="50.23846" lon="3.18664">
        <ele>59.7391357</ele>
        <time>2011-08-15T08:10:43Z</time>
      </trkpt>
      <trkpt lat="50.23898" lon="3.18669">
        <ele>59.7391357</ele>
        <time>2011-08-15T08:10:52Z</time>
      </trkpt>
      <trkpt lat="50.2395" lon="3.1868">
        <ele>59.7391357</ele>
        <time>2011-08-15T08:11:02Z</time>
      </trkpt>
      <trkpt lat="50.23979" lon="3.18685">
        <ele>59.2584229</ele>
        <time>2011-08-15T08:11:08Z</time>
      </trkpt>
      <trkpt lat="50.2402" lon="3.18683">
        <ele>59.2584229</ele>
        <time>2011-08-15T08:11:16Z</time>
      </trkpt>
      <trkpt lat="50.24055" lon="3.18683">
        <ele>60.2197266</ele>
        <time>2011-08-15T08:11:23Z</time>
      </trkpt>
      <trkpt lat="50.24114" lon="3.18682">
        <ele>62.6229248</ele>
        <time>2011-08-15T08:11:34Z</time>
      </trkpt>
      <trkpt lat="50.24179" lon="3.1868">
        <ele>65.0263672</ele>
        <time>2011-08-15T08:11:46Z</time>
      </trkpt>
      <trkpt lat="50.24234" lon="3.18679">
        <ele>66.4682617</ele>
        <time>2011-08-15T08:11:56Z</time>
      </trkpt>
      <trkpt lat="50.24283" lon="3.18678">
        <ele>67.4296875</ele>
        <time>2011-08-15T08:12:06Z</time>
      </trkpt>
      <trkpt lat="50.24337" lon="3.18677">
        <ele>68.871582</ele>
        <time>2011-08-15T08:12:18Z</time>
      </trkpt>
      <trkpt lat="50.24392" lon="3.18676">
        <ele>69.8328857</ele>
        <time>2011-08-15T08:12:30Z</time>
      </trkpt>
      <trkpt lat="50.24448" lon="3.18678">
        <ele>71.2749023</ele>
        <time>2011-08-15T08:12:42Z</time>
      </trkpt>
      <trkpt lat="50.245" lon="3.18686">
        <ele>72.2362061</ele>
        <time>2011-08-15T08:12:53Z</time>
      </trkpt>
      <trkpt lat="50.24537" lon="3.18693">
        <ele>72.2362061</ele>
        <time>2011-08-15T08:13:01Z</time>
      </trkpt>
      <trkpt lat="50.24576" lon="3.187">
        <ele>72.2362061</ele>
        <time>2011-08-15T08:13:09Z</time>
      </trkpt>
      <trkpt lat="50.24619" lon="3.18707">
        <ele>71.7554932</ele>
        <time>2011-08-15T08:13:17Z</time>
      </trkpt>
      <trkpt lat="50.24673" lon="3.18714">
        <ele>71.2749023</ele>
        <time>2011-08-15T08:13:26Z</time>
      </trkpt>
      <trkpt lat="50.24731" lon="3.18721">
        <ele>69.8328857</ele>
        <time>2011-08-15T08:13:35Z</time>
      </trkpt>
      <trkpt lat="50.24783" lon="3.1873">
        <ele>68.3908691</ele>
        <time>2011-08-15T08:13:43Z</time>
      </trkpt>
      <trkpt lat="50.24846" lon="3.18736">
        <ele>66.4682617</ele>
        <time>2011-08-15T08:13:53Z</time>
      </trkpt>
      <trkpt lat="50.24853" lon="3.18737">
        <ele>65.9876709</ele>
        <time>2011-08-15T08:13:54Z</time>
      </trkpt>
      <trkpt lat="50.24889" lon="3.18755">
        <ele>64.0650635</ele>
        <time>2011-08-15T08:13:59Z</time>
      </trkpt>
      <trkpt lat="50.24929" lon="3.18781">
        <ele>61.1810303</ele>
        <time>2011-08-15T08:14:04Z</time>
      </trkpt>
      <trkpt lat="50.25004" lon="3.18832">
        <ele>57.8165283</ele>
        <time>2011-08-15T08:14:13Z</time>
      </trkpt>
      <trkpt lat="50.25073" lon="3.18879">
        <ele>56.3745117</ele>
        <time>2011-08-15T08:14:22Z</time>
      </trkpt>
      <trkpt lat="50.25114" lon="3.18906">
        <ele>56.8551025</ele>
        <time>2011-08-15T08:14:28Z</time>
      </trkpt>
      <trkpt lat="50.25166" lon="3.18946">
        <ele>56.3745117</ele>
        <time>2011-08-15T08:14:36Z</time>
      </trkpt>
      <trkpt lat="50.25207" lon="3.18976">
        <ele>53.9711914</ele>
        <time>2011-08-15T08:14:42Z</time>
      </trkpt>
      <trkpt lat="50.25252" lon="3.1901">
        <ele>52.048584</ele>
        <time>2011-08-15T08:14:49Z</time>
      </trkpt>
      <trkpt lat="50.25299" lon="3.19047">
        <ele>50.6065674</ele>
        <time>2011-08-15T08:14:57Z</time>
      </trkpt>
      <trkpt lat="50.25348" lon="3.19095">
        <ele>49.6452637</ele>
        <time>2011-08-15T08:15:06Z</time>
      </trkpt>
      <trkpt lat="50.25388" lon="3.19137">
        <ele>49.1645508</ele>
        <time>2011-08-15T08:15:13Z</time>
      </trkpt>
      <trkpt lat="50.25433" lon="3.19185">
        <ele>49.1645508</ele>
        <time>2011-08-15T08:15:22Z</time>
      </trkpt>
      <trkpt lat="50.25459" lon="3.19213">
        <ele>49.1645508</ele>
        <time>2011-08-15T08:15:28Z</time>
      </trkpt>
      <trkpt lat="50.25461" lon="3.19232">
        <ele>48.2033691</ele>
        <time>2011-08-15T08:15:32Z</time>
      </trkpt>
      <trkpt lat="50.25458" lon="3.19247">
        <ele>48.68396</ele>
        <time>2011-08-15T08:15:34Z</time>
      </trkpt>
      <trkpt lat="50.25439" lon="3.19312">
        <ele>46.7612305</ele>
        <time>2011-08-15T08:15:42Z</time>
      </trkpt>
      <trkpt lat="50.2542" lon="3.19384">
        <ele>45.7999268</ele>
        <time>2011-08-15T08:15:50Z</time>
      </trkpt>
      <trkpt lat="50.25405" lon="3.19443">
        <ele>45.3192139</ele>
        <time>2011-08-15T08:15:56Z</time>
      </trkpt>
      <trkpt lat="50.25379" lon="3.19546">
        <ele>43.3966064</ele>
        <time>2011-08-15T08:16:06Z</time>
      </trkpt>
      <trkpt lat="50.2536" lon="3.19624">
        <ele>42.9160156</ele>
        <time>2011-08-15T08:16:14Z</time>
      </trkpt>
      <trkpt lat="50.25338" lon="3.19714">
        <ele>42.4354248</ele>
        <time>2011-08-15T08:16:23Z</time>
      </trkpt>
      <trkpt lat="50.2533" lon="3.19753">
        <ele>42.4354248</ele>
        <time>2011-08-15T08:16:27Z</time>
      </trkpt>
      <trkpt lat="50.25329" lon="3.19801">
        <ele>40.9934082</ele>
        <time>2011-08-15T08:16:32Z</time>
      </trkpt>
      <trkpt lat="50.25336" lon="3.19822">
        <ele>40.5128174</ele>
        <time>2011-08-15T08:16:35Z</time>
      </trkpt>
      <trkpt lat="50.25358" lon="3.19827">
        <ele>40.5128174</ele>
        <time>2011-08-15T08:16:39Z</time>
      </trkpt>
      <trkpt lat="50.25398" lon="3.19826">
        <ele>40.0321045</ele>
        <time>2011-08-15T08:16:46Z</time>
      </trkpt>
      <trkpt lat="50.25439" lon="3.19824">
        <ele>40.5128174</ele>
        <time>2011-08-15T08:16:53Z</time>
      </trkpt>
      <trkpt lat="50.25492" lon="3.19821">
        <ele>40.0321045</ele>
        <time>2011-08-15T08:17:02Z</time>
      </trkpt>
      <trkpt lat="50.25552" lon="3.19819">
        <ele>40.0321045</ele>
        <time>2011-08-15T08:17:12Z</time>
      </trkpt>
      <trkpt lat="50.25581" lon="3.19817">
        <ele>39.5512695</ele>
        <time>2011-08-15T08:17:17Z</time>
      </trkpt>
      <trkpt lat="50.2561" lon="3.19833">
        <ele>38.5900879</ele>
        <time>2011-08-15T08:17:22Z</time>
      </trkpt>
      <trkpt lat="50.25667" lon="3.19899">
        <ele>38.5900879</ele>
        <time>2011-08-15T08:17:33Z</time>
      </trkpt>
      <trkpt lat="50.25702" lon="3.19945">
        <ele>39.5512695</ele>
        <time>2011-08-15T08:17:41Z</time>
      </trkpt>
      <trkpt lat="50.25736" lon="3.19989">
        <ele>40.5128174</ele>
        <time>2011-08-15T08:17:49Z</time>
      </trkpt>
      <trkpt lat="50.25753" lon="3.20011">
        <ele>41.473999</ele>
        <time>2011-08-15T08:17:53Z</time>
      </trkpt>
      <trkpt lat="50.25777" lon="3.20028">
        <ele>42.9160156</ele>
        <time>2011-08-15T08:17:58Z</time>
      </trkpt>
      <trkpt lat="50.25804" lon="3.20031">
        <ele>42.9160156</ele>
        <time>2011-08-15T08:18:03Z</time>
      </trkpt>
      <trkpt lat="50.25838" lon="3.20039">
        <ele>43.3966064</ele>
        <time>2011-08-15T08:18:09Z</time>
      </trkpt>
      <trkpt lat="50.25857" lon="3.20027">
        <ele>42.4354248</ele>
        <time>2011-08-15T08:18:13Z</time>
      </trkpt>
      <trkpt lat="50.2586" lon="3.19999">
        <ele>41.9547119</ele>
        <time>2011-08-15T08:18:16Z</time>
      </trkpt>
      <trkpt lat="50.25857" lon="3.19907">
        <ele>40.9934082</ele>
        <time>2011-08-15T08:18:25Z</time>
      </trkpt>
      <trkpt lat="50.25857" lon="3.19897">
        <ele>40.5128174</ele>
        <time>2011-08-15T08:18:26Z</time>
      </trkpt>
      <trkpt lat="50.25858" lon="3.19877">
        <ele>40.0321045</ele>
        <time>2011-08-15T08:18:28Z</time>
      </trkpt>
      <trkpt lat="50.25868" lon="3.1984">
        <ele>39.5512695</ele>
        <time>2011-08-15T08:18:32Z</time>
      </trkpt>
      <trkpt lat="50.25886" lon="3.19831">
        <ele>39.0706787</ele>
        <time>2011-08-15T08:18:35Z</time>
      </trkpt>
      <trkpt lat="50.25915" lon="3.1984">
        <ele>37.6286621</ele>
        <time>2011-08-15T08:18:39Z</time>
      </trkpt>
      <trkpt lat="50.25922" lon="3.19845">
        <ele>37.6286621</ele>
        <time>2011-08-15T08:18:40Z</time>
      </trkpt>
      <trkpt lat="50.25978" lon="3.19876">
        <ele>37.1480713</ele>
        <time>2011-08-15T08:18:48Z</time>
      </trkpt>
      <trkpt lat="50.2601" lon="3.19879">
        <ele>37.1480713</ele>
        <time>2011-08-15T08:18:53Z</time>
      </trkpt>
      <trkpt lat="50.26016" lon="3.19879">
        <ele>37.6286621</ele>
        <time>2011-08-15T08:18:54Z</time>
      </trkpt>
      <trkpt lat="50.26038" lon="3.19896">
        <ele>37.1480713</ele>
        <time>2011-08-15T08:18:58Z</time>
      </trkpt>
      <trkpt lat="50.26074" lon="3.19954">
        <ele>37.6286621</ele>
        <time>2011-08-15T08:19:06Z</time>
      </trkpt>
      <trkpt lat="50.26091" lon="3.19989">
        <ele>36.6674805</ele>
        <time>2011-08-15T08:19:11Z</time>
      </trkpt>
      <trkpt lat="50.26109" lon="3.20013">
        <ele>36.6674805</ele>
        <time>2011-08-15T08:19:15Z</time>
      </trkpt>
      <trkpt lat="50.26117" lon="3.20026">
        <ele>37.1480713</ele>
        <time>2011-08-15T08:19:17Z</time>
      </trkpt>
      <trkpt lat="50.26127" lon="3.2007">
        <ele>36.6674805</ele>
        <time>2011-08-15T08:19:22Z</time>
      </trkpt>
      <trkpt lat="50.26127" lon="3.20089">
        <ele>36.1867676</ele>
        <time>2011-08-15T08:19:24Z</time>
      </trkpt>
      <trkpt lat="50.26126" lon="3.20109">
        <ele>35.7060547</ele>
        <time>2011-08-15T08:19:26Z</time>
      </trkpt>
      <trkpt lat="50.26132" lon="3.20168">
        <ele>35.2254639</ele>
        <time>2011-08-15T08:19:32Z</time>
      </trkpt>
      <trkpt lat="50.26145" lon="3.20225">
        <ele>34.744873</ele>
        <time>2011-08-15T08:19:38Z</time>
      </trkpt>
      <trkpt lat="50.26167" lon="3.20273">
        <ele>36.1867676</ele>
        <time>2011-08-15T08:19:44Z</time>
      </trkpt>
      <trkpt lat="50.26172" lon="3.20289">
        <ele>36.6674805</ele>
        <time>2011-08-15T08:19:46Z</time>
      </trkpt>
      <trkpt lat="50.26188" lon="3.20321">
        <ele>36.1867676</ele>
        <time>2011-08-15T08:19:51Z</time>
      </trkpt>
      <trkpt lat="50.26203" lon="3.20378">
        <ele>33.3028564</ele>
        <time>2011-08-15T08:19:58Z</time>
      </trkpt>
      <trkpt lat="50.26208" lon="3.20403">
        <ele>31.8607178</ele>
        <time>2011-08-15T08:20:01Z</time>
      </trkpt>
      <trkpt lat="50.26215" lon="3.20427">
        <ele>31.380127</ele>
        <time>2011-08-15T08:20:04Z</time>
      </trkpt>
      <trkpt lat="50.2622" lon="3.20454">
        <ele>30.4188232</ele>
        <time>2011-08-15T08:20:07Z</time>
      </trkpt>
      <trkpt lat="50.26227" lon="3.20511">
        <ele>29.4575195</ele>
        <time>2011-08-15T08:20:13Z</time>
      </trkpt>
      <trkpt lat="50.2623" lon="3.20549">
        <ele>30.4188232</ele>
        <time>2011-08-15T08:20:17Z</time>
      </trkpt>
      <trkpt lat="50.26229" lon="3.20568">
        <ele>31.380127</ele>
        <time>2011-08-15T08:20:19Z</time>
      </trkpt>
      <trkpt lat="50.26229" lon="3.20632">
        <ele>32.3415527</ele>
        <time>2011-08-15T08:20:26Z</time>
      </trkpt>
      <trkpt lat="50.26231" lon="3.20659">
        <ele>32.8222656</ele>
        <time>2011-08-15T08:20:29Z</time>
      </trkpt>
      <trkpt lat="50.26235" lon="3.20695">
        <ele>32.8222656</ele>
        <time>2011-08-15T08:20:33Z</time>
      </trkpt>
      <trkpt lat="50.26237" lon="3.20789">
        <ele>32.3415527</ele>
        <time>2011-08-15T08:20:43Z</time>
      </trkpt>
      <trkpt lat="50.26235" lon="3.20845">
        <ele>31.8607178</ele>
        <time>2011-08-15T08:20:49Z</time>
      </trkpt>
      <trkpt lat="50.26243" lon="3.20877">
        <ele>32.3415527</ele>
        <time>2011-08-15T08:20:53Z</time>
      </trkpt>
      <trkpt lat="50.26253" lon="3.20887">
        <ele>32.3415527</ele>
        <time>2011-08-15T08:20:55Z</time>
      </trkpt>
      <trkpt lat="50.26297" lon="3.20913">
        <ele>32.8222656</ele>
        <time>2011-08-15T08:21:03Z</time>
      </trkpt>
      <trkpt lat="50.26332" lon="3.20955">
        <ele>34.2641602</ele>
        <time>2011-08-15T08:21:11Z</time>
      </trkpt>
      <trkpt lat="50.26347" lon="3.2098">
        <ele>34.744873</ele>
        <time>2011-08-15T08:21:15Z</time>
      </trkpt>
      <trkpt lat="50.26362" lon="3.21035">
        <ele>35.7060547</ele>
        <time>2011-08-15T08:21:22Z</time>
      </trkpt>
      <trkpt lat="50.26369" lon="3.21083">
        <ele>35.7060547</ele>
        <time>2011-08-15T08:21:29Z</time>
      </trkpt>
      <trkpt lat="50.26377" lon="3.21096">
        <ele>35.7060547</ele>
        <time>2011-08-15T08:21:34Z</time>
      </trkpt>
      <trkpt lat="50.26383" lon="3.21093">
        <ele>35.7060547</ele>
        <time>2011-08-15T08:21:36Z</time>
      </trkpt>
      <trkpt lat="50.2641" lon="3.21083">
        <ele>35.7060547</ele>
        <time>2011-08-15T08:21:43Z</time>
      </trkpt>
      <trkpt lat="50.26433" lon="3.21074">
        <ele>35.2254639</ele>
        <time>2011-08-15T08:21:48Z</time>
      </trkpt>
      <trkpt lat="50.26454" lon="3.21066">
        <ele>37.1480713</ele>
        <time>2011-08-15T08:21:52Z</time>
      </trkpt>
      <trkpt lat="50.26499" lon="3.21052">
        <ele>39.0706787</ele>
        <time>2011-08-15T08:22:01Z</time>
      </trkpt>
      <trkpt lat="50.26526" lon="3.21044">
        <ele>40.0321045</ele>
        <time>2011-08-15T08:22:07Z</time>
      </trkpt>
      <trkpt lat="50.26538" lon="3.21044">
        <ele>39.5512695</ele>
        <time>2011-08-15T08:22:11Z</time>
      </trkpt>
      <trkpt lat="50.26541" lon="3.21048">
        <ele>40.0321045</ele>
        <time>2011-08-15T08:22:12Z</time>
      </trkpt>
      <trkpt lat="50.26552" lon="3.2107">
        <ele>40.9934082</ele>
        <time>2011-08-15T08:22:16Z</time>
      </trkpt>
      <trkpt lat="50.26559" lon="3.21119">
        <ele>40.9934082</ele>
        <time>2011-08-15T08:22:22Z</time>
      </trkpt>
      <trkpt lat="50.26562" lon="3.21144">
        <ele>40.9934082</ele>
        <time>2011-08-15T08:22:25Z</time>
      </trkpt>
      <trkpt lat="50.26568" lon="3.21223">
        <ele>40.5128174</ele>
        <time>2011-08-15T08:22:34Z</time>
      </trkpt>
      <trkpt lat="50.26574" lon="3.21285">
        <ele>39.5512695</ele>
        <time>2011-08-15T08:22:40Z</time>
      </trkpt>
      <trkpt lat="50.26583" lon="3.21368">
        <ele>37.6286621</ele>
        <time>2011-08-15T08:22:47Z</time>
      </trkpt>
      <trkpt lat="50.26598" lon="3.21482">
        <ele>34.744873</ele>
        <time>2011-08-15T08:22:56Z</time>
      </trkpt>
      <trkpt lat="50.26619" lon="3.21577">
        <ele>33.7834473</ele>
        <time>2011-08-15T08:23:03Z</time>
      </trkpt>
      <trkpt lat="50.26638" lon="3.21656">
        <ele>34.2641602</ele>
        <time>2011-08-15T08:23:09Z</time>
      </trkpt>
      <trkpt lat="50.26658" lon="3.21758">
        <ele>34.2641602</ele>
        <time>2011-08-15T08:23:17Z</time>
      </trkpt>
      <trkpt lat="50.26673" lon="3.21852">
        <ele>34.2641602</ele>
        <time>2011-08-15T08:23:24Z</time>
      </trkpt>
      <trkpt lat="50.26691" lon="3.21976">
        <ele>33.3028564</ele>
        <time>2011-08-15T08:23:33Z</time>
      </trkpt>
      <trkpt lat="50.26707" lon="3.22084">
        <ele>33.7834473</ele>
        <time>2011-08-15T08:23:41Z</time>
      </trkpt>
      <trkpt lat="50.26719" lon="3.22171">
        <ele>34.744873</ele>
        <time>2011-08-15T08:23:48Z</time>
      </trkpt>
      <trkpt lat="50.26725" lon="3.22222">
        <ele>34.744873</ele>
        <time>2011-08-15T08:23:53Z</time>
      </trkpt>
      <trkpt lat="50.26736" lon="3.22301">
        <ele>35.2254639</ele>
        <time>2011-08-15T08:24:01Z</time>
      </trkpt>
      <trkpt lat="50.26751" lon="3.22394">
        <ele>36.1867676</ele>
        <time>2011-08-15T08:24:11Z</time>
      </trkpt>
      <trkpt lat="50.26773" lon="3.22466">
        <ele>36.6674805</ele>
        <time>2011-08-15T08:24:20Z</time>
      </trkpt>
      <trkpt lat="50.26803" lon="3.22546">
        <ele>36.6674805</ele>
        <time>2011-08-15T08:24:31Z</time>
      </trkpt>
      <trkpt lat="50.26826" lon="3.22613">
        <ele>39.0706787</ele>
        <time>2011-08-15T08:24:40Z</time>
      </trkpt>
      <trkpt lat="50.26841" lon="3.22663">
        <ele>40.5128174</ele>
        <time>2011-08-15T08:24:47Z</time>
      </trkpt>
      <trkpt lat="50.26845" lon="3.22684">
        <ele>40.5128174</ele>
        <time>2011-08-15T08:24:50Z</time>
      </trkpt>
      <trkpt lat="50.26846" lon="3.22706">
        <ele>40.9934082</ele>
        <time>2011-08-15T08:24:54Z</time>
      </trkpt>
      <trkpt lat="50.26845" lon="3.22709">
        <ele>40.9934082</ele>
        <time>2011-08-15T08:24:55Z</time>
      </trkpt>
      <trkpt lat="50.26842" lon="3.22728">
        <ele>41.473999</ele>
        <time>2011-08-15T08:25:00Z</time>
      </trkpt>
      <trkpt lat="50.26847" lon="3.22744">
        <ele>41.473999</ele>
        <time>2011-08-15T08:25:03Z</time>
      </trkpt>
      <trkpt lat="50.26859" lon="3.22754">
        <ele>41.9547119</ele>
        <time>2011-08-15T08:25:06Z</time>
      </trkpt>
      <trkpt lat="50.26868" lon="3.22757">
        <ele>41.473999</ele>
        <time>2011-08-15T08:25:08Z</time>
      </trkpt>
      <trkpt lat="50.26899" lon="3.22786">
        <ele>41.473999</ele>
        <time>2011-08-15T08:25:15Z</time>
      </trkpt>
      <trkpt lat="50.26933" lon="3.22824">
        <ele>40.9934082</ele>
        <time>2011-08-15T08:25:22Z</time>
      </trkpt>
      <trkpt lat="50.2696" lon="3.22857">
        <ele>40.9934082</ele>
        <time>2011-08-15T08:25:28Z</time>
      </trkpt>
      <trkpt lat="50.26982" lon="3.22882">
        <ele>41.9547119</ele>
        <time>2011-08-15T08:25:33Z</time>
      </trkpt>
      <trkpt lat="50.27025" lon="3.22927">
        <ele>43.3966064</ele>
        <time>2011-08-15T08:25:42Z</time>
      </trkpt>
      <trkpt lat="50.27081" lon="3.22993">
        <ele>45.3192139</ele>
        <time>2011-08-15T08:25:54Z</time>
      </trkpt>
      <trkpt lat="50.27122" lon="3.23037">
        <ele>46.7612305</ele>
        <time>2011-08-15T08:26:02Z</time>
      </trkpt>
      <trkpt lat="50.27178" lon="3.23101">
        <ele>48.68396</ele>
        <time>2011-08-15T08:26:13Z</time>
      </trkpt>
      <trkpt lat="50.27223" lon="3.23155">
        <ele>50.1259766</ele>
        <time>2011-08-15T08:26:22Z</time>
      </trkpt>
      <trkpt lat="50.27262" lon="3.23218">
        <ele>51.0871582</ele>
        <time>2011-08-15T08:26:31Z</time>
      </trkpt>
      <trkpt lat="50.27301" lon="3.23295">
        <ele>52.048584</ele>
        <time>2011-08-15T08:26:41Z</time>
      </trkpt>
      <trkpt lat="50.27327" lon="3.23339">
        <ele>53.0097656</ele>
        <time>2011-08-15T08:26:47Z</time>
      </trkpt>
      <trkpt lat="50.27361" lon="3.23395">
        <ele>53.9711914</ele>
        <time>2011-08-15T08:26:55Z</time>
      </trkpt>
      <trkpt lat="50.27394" lon="3.23451">
        <ele>55.8937988</ele>
        <time>2011-08-15T08:27:03Z</time>
      </trkpt>
      <trkpt lat="50.27426" lon="3.23517">
        <ele>60.2197266</ele>
        <time>2011-08-15T08:27:12Z</time>
      </trkpt>
      <trkpt lat="50.27444" lon="3.23573">
        <ele>62.142334</ele>
        <time>2011-08-15T08:27:19Z</time>
      </trkpt>
      <trkpt lat="50.27462" lon="3.23638">
        <ele>64.5456543</ele>
        <time>2011-08-15T08:27:27Z</time>
      </trkpt>
      <trkpt lat="50.27473" lon="3.23686">
        <ele>65.9876709</ele>
        <time>2011-08-15T08:27:34Z</time>
      </trkpt>
      <trkpt lat="50.27484" lon="3.23739">
        <ele>65.5070801</ele>
        <time>2011-08-15T08:27:43Z</time>
      </trkpt>
      <trkpt lat="50.27493" lon="3.23786">
        <ele>64.5456543</ele>
        <time>2011-08-15T08:27:51Z</time>
      </trkpt>
      <trkpt lat="50.27505" lon="3.23843">
        <ele>64.0650635</ele>
        <time>2011-08-15T08:28:01Z</time>
      </trkpt>
      <trkpt lat="50.27517" lon="3.23898">
        <ele>63.5843506</ele>
        <time>2011-08-15T08:28:10Z</time>
      </trkpt>
      <trkpt lat="50.27526" lon="3.23948">
        <ele>63.1036377</ele>
        <time>2011-08-15T08:28:18Z</time>
      </trkpt>
      <trkpt lat="50.27537" lon="3.24005">
        <ele>64.0650635</ele>
        <time>2011-08-15T08:28:27Z</time>
      </trkpt>
      <trkpt lat="50.27547" lon="3.24053">
        <ele>65.0263672</ele>
        <time>2011-08-15T08:28:35Z</time>
      </trkpt>
      <trkpt lat="50.27548" lon="3.24059">
        <ele>65.0263672</ele>
        <time>2011-08-15T08:28:36Z</time>
      </trkpt>
      <trkpt lat="50.27563" lon="3.24138">
        <ele>65.5070801</ele>
        <time>2011-08-15T08:28:48Z</time>
      </trkpt>
      <trkpt lat="50.27571" lon="3.2419">
        <ele>65.9876709</ele>
        <time>2011-08-15T08:28:56Z</time>
      </trkpt>
      <trkpt lat="50.27586" lon="3.24246">
        <ele>65.9876709</ele>
        <time>2011-08-15T08:29:05Z</time>
      </trkpt>
      <trkpt lat="50.27606" lon="3.24307">
        <ele>66.4682617</ele>
        <time>2011-08-15T08:29:15Z</time>
      </trkpt>
      <trkpt lat="50.27632" lon="3.24384">
        <ele>67.9102783</ele>
        <time>2011-08-15T08:29:27Z</time>
      </trkpt>
      <trkpt lat="50.27648" lon="3.2443">
        <ele>67.4296875</ele>
        <time>2011-08-15T08:29:34Z</time>
      </trkpt>
      <trkpt lat="50.27674" lon="3.24507">
        <ele>67.4296875</ele>
        <time>2011-08-15T08:29:45Z</time>
      </trkpt>
      <trkpt lat="50.27692" lon="3.24557">
        <ele>65.9876709</ele>
        <time>2011-08-15T08:29:52Z</time>
      </trkpt>
      <trkpt lat="50.27702" lon="3.24583">
        <ele>65.0263672</ele>
        <time>2011-08-15T08:29:57Z</time>
      </trkpt>
      <trkpt lat="50.27706" lon="3.24592">
        <ele>64.5456543</ele>
        <time>2011-08-15T08:29:59Z</time>
      </trkpt>
      <trkpt lat="50.27717" lon="3.24624">
        <ele>62.142334</ele>
        <time>2011-08-15T08:30:05Z</time>
      </trkpt>
      <trkpt lat="50.27737" lon="3.24675">
        <ele>60.2197266</ele>
        <time>2011-08-15T08:30:13Z</time>
      </trkpt>
      <trkpt lat="50.27756" lon="3.24709">
        <ele>59.7391357</ele>
        <time>2011-08-15T08:30:19Z</time>
      </trkpt>
      <trkpt lat="50.27767" lon="3.2473">
        <ele>59.2584229</ele>
        <time>2011-08-15T08:30:23Z</time>
      </trkpt>
      <trkpt lat="50.27788" lon="3.24777">
        <ele>60.2197266</ele>
        <time>2011-08-15T08:30:32Z</time>
      </trkpt>
      <trkpt lat="50.27803" lon="3.24811">
        <ele>59.7391357</ele>
        <time>2011-08-15T08:30:38Z</time>
      </trkpt>
      <trkpt lat="50.27823" lon="3.2486">
        <ele>58.77771</ele>
        <time>2011-08-15T08:30:46Z</time>
      </trkpt>
      <trkpt lat="50.27848" lon="3.24917">
        <ele>56.8551025</ele>
        <time>2011-08-15T08:30:55Z</time>
      </trkpt>
      <trkpt lat="50.27855" lon="3.24931">
        <ele>57.3358154</ele>
        <time>2011-08-15T08:30:57Z</time>
      </trkpt>
      <trkpt lat="50.27871" lon="3.24959">
        <ele>58.2971191</ele>
        <time>2011-08-15T08:31:01Z</time>
      </trkpt>
      <trkpt lat="50.27907" lon="3.2504">
        <ele>59.2584229</ele>
        <time>2011-08-15T08:31:11Z</time>
      </trkpt>
      <trkpt lat="50.27938" lon="3.25113">
        <ele>58.77771</ele>
        <time>2011-08-15T08:31:20Z</time>
      </trkpt>
      <trkpt lat="50.27969" lon="3.25196">
        <ele>58.2971191</ele>
        <time>2011-08-15T08:31:30Z</time>
      </trkpt>
      <trkpt lat="50.27973" lon="3.25203">
        <ele>58.2971191</ele>
        <time>2011-08-15T08:31:31Z</time>
      </trkpt>
      <trkpt lat="50.27989" lon="3.25251">
        <ele>58.2971191</ele>
        <time>2011-08-15T08:31:37Z</time>
      </trkpt>
      <trkpt lat="50.27993" lon="3.25281">
        <ele>57.3358154</ele>
        <time>2011-08-15T08:31:41Z</time>
      </trkpt>
      <trkpt lat="50.27989" lon="3.25302">
        <ele>57.8165283</ele>
        <time>2011-08-15T08:31:46Z</time>
      </trkpt>
      <trkpt lat="50.27988" lon="3.25338">
        <ele>57.8165283</ele>
        <time>2011-08-15T08:31:52Z</time>
      </trkpt>
      <trkpt lat="50.27987" lon="3.25409">
        <ele>56.3745117</ele>
        <time>2011-08-15T08:32:01Z</time>
      </trkpt>
      <trkpt lat="50.27988" lon="3.25498">
        <ele>56.3745117</ele>
        <time>2011-08-15T08:32:12Z</time>
      </trkpt>
      <trkpt lat="50.27987" lon="3.25514">
        <ele>56.3745117</ele>
        <time>2011-08-15T08:32:14Z</time>
      </trkpt>
      <trkpt lat="50.27987" lon="3.25589">
        <ele>55.8937988</ele>
        <time>2011-08-15T08:32:23Z</time>
      </trkpt>
      <trkpt lat="50.27988" lon="3.25669">
        <ele>54.4517822</ele>
        <time>2011-08-15T08:32:32Z</time>
      </trkpt>
      <trkpt lat="50.27989" lon="3.25737">
        <ele>55.4130859</ele>
        <time>2011-08-15T08:32:40Z</time>
      </trkpt>
      <trkpt lat="50.27989" lon="3.25781">
        <ele>55.4130859</ele>
        <time>2011-08-15T08:32:46Z</time>
      </trkpt>
      <trkpt lat="50.27989" lon="3.2584">
        <ele>55.8937988</ele>
        <time>2011-08-15T08:32:54Z</time>
      </trkpt>
      <trkpt lat="50.2799" lon="3.25919">
        <ele>56.3745117</ele>
        <time>2011-08-15T08:33:04Z</time>
      </trkpt>
      <trkpt lat="50.27991" lon="3.25996">
        <ele>55.8937988</ele>
        <time>2011-08-15T08:33:14Z</time>
      </trkpt>
      <trkpt lat="50.27992" lon="3.26057">
        <ele>55.4130859</ele>
        <time>2011-08-15T08:33:23Z</time>
      </trkpt>
      <trkpt lat="50.27992" lon="3.26068">
        <ele>54.932373</ele>
        <time>2011-08-15T08:33:25Z</time>
      </trkpt>
      <trkpt lat="50.27985" lon="3.26079">
        <ele>53.9711914</ele>
        <time>2011-08-15T08:33:29Z</time>
      </trkpt>
      <trkpt lat="50.27977" lon="3.26074">
        <ele>53.9711914</ele>
        <time>2011-08-15T08:33:32Z</time>
      </trkpt>
      <trkpt lat="50.27955" lon="3.26051">
        <ele>54.932373</ele>
        <time>2011-08-15T08:33:38Z</time>
      </trkpt>
      <trkpt lat="50.2794" lon="3.26036">
        <ele>55.4130859</ele>
        <time>2011-08-15T08:33:42Z</time>
      </trkpt>
      <trkpt lat="50.27899" lon="3.26007">
        <ele>56.3745117</ele>
        <time>2011-08-15T08:33:52Z</time>
      </trkpt>
      <trkpt lat="50.27859" lon="3.25982">
        <ele>56.8551025</ele>
        <time>2011-08-15T08:34:01Z</time>
      </trkpt>
      <trkpt lat="50.2782" lon="3.25946">
        <ele>57.3358154</ele>
        <time>2011-08-15T08:34:10Z</time>
      </trkpt>
      <trkpt lat="50.2778" lon="3.25909">
        <ele>57.8165283</ele>
        <time>2011-08-15T08:34:19Z</time>
      </trkpt>
      <trkpt lat="50.27728" lon="3.25861">
        <ele>57.8165283</ele>
        <time>2011-08-15T08:34:30Z</time>
      </trkpt>
      <trkpt lat="50.27685" lon="3.25826">
        <ele>57.3358154</ele>
        <time>2011-08-15T08:34:38Z</time>
      </trkpt>
      <trkpt lat="50.27635" lon="3.25798">
        <ele>55.4130859</ele>
        <time>2011-08-15T08:34:46Z</time>
      </trkpt>
      <trkpt lat="50.27581" lon="3.25784">
        <ele>53.0097656</ele>
        <time>2011-08-15T08:34:54Z</time>
      </trkpt>
      <trkpt lat="50.27546" lon="3.25781">
        <ele>52.048584</ele>
        <time>2011-08-15T08:34:59Z</time>
      </trkpt>
      <trkpt lat="50.2751" lon="3.25779">
        <ele>50.6065674</ele>
        <time>2011-08-15T08:35:05Z</time>
      </trkpt>
      <trkpt lat="50.2749" lon="3.25792">
        <ele>49.1645508</ele>
        <time>2011-08-15T08:35:09Z</time>
      </trkpt>
      <trkpt lat="50.27464" lon="3.25831">
        <ele>48.2033691</ele>
        <time>2011-08-15T08:35:16Z</time>
      </trkpt>
      <trkpt lat="50.27439" lon="3.2588">
        <ele>46.7612305</ele>
        <time>2011-08-15T08:35:24Z</time>
      </trkpt>
      <trkpt lat="50.27422" lon="3.25917">
        <ele>45.7999268</ele>
        <time>2011-08-15T08:35:30Z</time>
      </trkpt>
      <trkpt lat="50.27405" lon="3.25955">
        <ele>44.838623</ele>
        <time>2011-08-15T08:35:37Z</time>
      </trkpt>
      <trkpt lat="50.27381" lon="3.26012">
        <ele>43.8773193</ele>
        <time>2011-08-15T08:35:47Z</time>
      </trkpt>
      <trkpt lat="50.27363" lon="3.26061">
        <ele>43.3966064</ele>
        <time>2011-08-15T08:35:55Z</time>
      </trkpt>
      <trkpt lat="50.27353" lon="3.26087">
        <ele>43.3966064</ele>
        <time>2011-08-15T08:35:59Z</time>
      </trkpt>
      <trkpt lat="50.27334" lon="3.26112">
        <ele>42.9160156</ele>
        <time>2011-08-15T08:36:04Z</time>
      </trkpt>
      <trkpt lat="50.27299" lon="3.26138">
        <ele>41.9547119</ele>
        <time>2011-08-15T08:36:11Z</time>
      </trkpt>
      <trkpt lat="50.27252" lon="3.26174">
        <ele>41.473999</ele>
        <time>2011-08-15T08:36:20Z</time>
      </trkpt>
      <trkpt lat="50.27234" lon="3.26198">
        <ele>40.5128174</ele>
        <time>2011-08-15T08:36:24Z</time>
      </trkpt>
      <trkpt lat="50.27224" lon="3.26237">
        <ele>39.5512695</ele>
        <time>2011-08-15T08:36:29Z</time>
      </trkpt>
      <trkpt lat="50.27224" lon="3.26246">
        <ele>39.5512695</ele>
        <time>2011-08-15T08:36:30Z</time>
      </trkpt>
      <trkpt lat="50.2722" lon="3.26294">
        <ele>39.0706787</ele>
        <time>2011-08-15T08:36:35Z</time>
      </trkpt>
      <trkpt lat="50.27207" lon="3.26316">
        <ele>39.0706787</ele>
        <time>2011-08-15T08:36:38Z</time>
      </trkpt>
      <trkpt lat="50.27162" lon="3.26373">
        <ele>39.5512695</ele>
        <time>2011-08-15T08:36:47Z</time>
      </trkpt>
      <trkpt lat="50.27154" lon="3.26385">
        <ele>39.5512695</ele>
        <time>2011-08-15T08:36:49Z</time>
      </trkpt>
      <trkpt lat="50.2713" lon="3.26403">
        <ele>38.5900879</ele>
        <time>2011-08-15T08:36:54Z</time>
      </trkpt>
      <trkpt lat="50.27112" lon="3.26407">
        <ele>38.109375</ele>
        <time>2011-08-15T08:36:57Z</time>
      </trkpt>
      <trkpt lat="50.2709" lon="3.26396">
        <ele>37.6286621</ele>
        <time>2011-08-15T08:37:01Z</time>
      </trkpt>
      <trkpt lat="50.27079" lon="3.26397">
        <ele>37.1480713</ele>
        <time>2011-08-15T08:37:04Z</time>
      </trkpt>
      <trkpt lat="50.27077" lon="3.26402">
        <ele>36.6674805</ele>
        <time>2011-08-15T08:37:05Z</time>
      </trkpt>
      <trkpt lat="50.27073" lon="3.26416">
        <ele>36.6674805</ele>
        <time>2011-08-15T08:37:07Z</time>
      </trkpt>
      <trkpt lat="50.27059" lon="3.26443">
        <ele>36.1867676</ele>
        <time>2011-08-15T08:37:11Z</time>
      </trkpt>
      <trkpt lat="50.27029" lon="3.26489">
        <ele>36.1867676</ele>
        <time>2011-08-15T08:37:18Z</time>
      </trkpt>
      <trkpt lat="50.27015" lon="3.26544">
        <ele>36.1867676</ele>
        <time>2011-08-15T08:37:24Z</time>
      </trkpt>
      <trkpt lat="50.27002" lon="3.26611">
        <ele>35.7060547</ele>
        <time>2011-08-15T08:37:31Z</time>
      </trkpt>
      <trkpt lat="50.2699" lon="3.26655">
        <ele>36.1867676</ele>
        <time>2011-08-15T08:37:36Z</time>
      </trkpt>
      <trkpt lat="50.26985" lon="3.26713">
        <ele>37.1480713</ele>
        <time>2011-08-15T08:37:42Z</time>
      </trkpt>
      <trkpt lat="50.26982" lon="3.26762">
        <ele>37.1480713</ele>
        <time>2011-08-15T08:37:47Z</time>
      </trkpt>
      <trkpt lat="50.26967" lon="3.26827">
        <ele>37.6286621</ele>
        <time>2011-08-15T08:37:54Z</time>
      </trkpt>
      <trkpt lat="50.26947" lon="3.26901">
        <ele>37.6286621</ele>
        <time>2011-08-15T08:38:02Z</time>
      </trkpt>
      <trkpt lat="50.26945" lon="3.26911">
        <ele>37.6286621</ele>
        <time>2011-08-15T08:38:03Z</time>
      </trkpt>
      <trkpt lat="50.26924" lon="3.26953">
        <ele>37.6286621</ele>
        <time>2011-08-15T08:38:08Z</time>
      </trkpt>
      <trkpt lat="50.26918" lon="3.26958">
        <ele>37.6286621</ele>
        <time>2011-08-15T08:38:09Z</time>
      </trkpt>
      <trkpt lat="50.26862" lon="3.27009">
        <ele>37.6286621</ele>
        <time>2011-08-15T08:38:18Z</time>
      </trkpt>
      <trkpt lat="50.26805" lon="3.27059">
        <ele>38.109375</ele>
        <time>2011-08-15T08:38:27Z</time>
      </trkpt>
      <trkpt lat="50.26752" lon="3.27104">
        <ele>38.109375</ele>
        <time>2011-08-15T08:38:35Z</time>
      </trkpt>
      <trkpt lat="50.26697" lon="3.27154">
        <ele>38.109375</ele>
        <time>2011-08-15T08:38:43Z</time>
      </trkpt>
      <trkpt lat="50.26685" lon="3.27171">
        <ele>37.6286621</ele>
        <time>2011-08-15T08:38:45Z</time>
      </trkpt>
      <trkpt lat="50.26656" lon="3.27231">
        <ele>37.6286621</ele>
        <time>2011-08-15T08:38:51Z</time>
      </trkpt>
      <trkpt lat="50.26645" lon="3.27265">
        <ele>38.109375</ele>
        <time>2011-08-15T08:38:54Z</time>
      </trkpt>
      <trkpt lat="50.26621" lon="3.27294">
        <ele>38.109375</ele>
        <time>2011-08-15T08:38:58Z</time>
      </trkpt>
      <trkpt lat="50.26571" lon="3.27327">
        <ele>38.109375</ele>
        <time>2011-08-15T08:39:05Z</time>
      </trkpt>
      <trkpt lat="50.26515" lon="3.27359">
        <ele>38.5900879</ele>
        <time>2011-08-15T08:39:13Z</time>
      </trkpt>
      <trkpt lat="50.26451" lon="3.27406">
        <ele>39.0706787</ele>
        <time>2011-08-15T08:39:23Z</time>
      </trkpt>
      <trkpt lat="50.26445" lon="3.27411">
        <ele>39.0706787</ele>
        <time>2011-08-15T08:39:24Z</time>
      </trkpt>
      <trkpt lat="50.26425" lon="3.2742">
        <ele>38.5900879</ele>
        <time>2011-08-15T08:39:27Z</time>
      </trkpt>
      <trkpt lat="50.26393" lon="3.27444">
        <ele>39.0706787</ele>
        <time>2011-08-15T08:39:33Z</time>
      </trkpt>
      <trkpt lat="50.26356" lon="3.27476">
        <ele>39.5512695</ele>
        <time>2011-08-15T08:39:40Z</time>
      </trkpt>
      <trkpt lat="50.26311" lon="3.27519">
        <ele>40.5128174</ele>
        <time>2011-08-15T08:39:48Z</time>
      </trkpt>
      <trkpt lat="50.26306" lon="3.27526">
        <ele>40.5128174</ele>
        <time>2011-08-15T08:39:49Z</time>
      </trkpt>
      <trkpt lat="50.26269" lon="3.27584">
        <ele>41.473999</ele>
        <time>2011-08-15T08:39:57Z</time>
      </trkpt>
      <trkpt lat="50.26237" lon="3.27635">
        <ele>41.9547119</ele>
        <time>2011-08-15T08:40:04Z</time>
      </trkpt>
      <trkpt lat="50.26193" lon="3.27706">
        <ele>42.9160156</ele>
        <time>2011-08-15T08:40:14Z</time>
      </trkpt>
      <trkpt lat="50.26164" lon="3.27745">
        <ele>42.4354248</ele>
        <time>2011-08-15T08:40:20Z</time>
      </trkpt>
      <trkpt lat="50.26118" lon="3.278">
        <ele>41.9547119</ele>
        <time>2011-08-15T08:40:29Z</time>
      </trkpt>
      <trkpt lat="50.26102" lon="3.2782">
        <ele>42.4354248</ele>
        <time>2011-08-15T08:40:32Z</time>
      </trkpt>
      <trkpt lat="50.26092" lon="3.27859">
        <ele>42.4354248</ele>
        <time>2011-08-15T08:40:36Z</time>
      </trkpt>
      <trkpt lat="50.26093" lon="3.2788">
        <ele>41.9547119</ele>
        <time>2011-08-15T08:40:38Z</time>
      </trkpt>
      <trkpt lat="50.26102" lon="3.27966">
        <ele>40.9934082</ele>
        <time>2011-08-15T08:40:47Z</time>
      </trkpt>
      <trkpt lat="50.26109" lon="3.28038">
        <ele>40.0321045</ele>
        <time>2011-08-15T08:40:55Z</time>
      </trkpt>
      <trkpt lat="50.26113" lon="3.28092">
        <ele>39.0706787</ele>
        <time>2011-08-15T08:41:02Z</time>
      </trkpt>
      <trkpt lat="50.26114" lon="3.28098">
        <ele>39.0706787</ele>
        <time>2011-08-15T08:41:03Z</time>
      </trkpt>
      <trkpt lat="50.26105" lon="3.28114">
        <ele>38.5900879</ele>
        <time>2011-08-15T08:41:07Z</time>
      </trkpt>
      <trkpt lat="50.26093" lon="3.28108">
        <ele>38.109375</ele>
        <time>2011-08-15T08:41:10Z</time>
      </trkpt>
      <trkpt lat="50.26088" lon="3.28103">
        <ele>38.109375</ele>
        <time>2011-08-15T08:41:11Z</time>
      </trkpt>
      <trkpt lat="50.26068" lon="3.28083">
        <ele>37.6286621</ele>
        <time>2011-08-15T08:41:15Z</time>
      </trkpt>
      <trkpt lat="50.26025" lon="3.28064">
        <ele>37.1480713</ele>
        <time>2011-08-15T08:41:22Z</time>
      </trkpt>
      <trkpt lat="50.25985" lon="3.28066">
        <ele>36.6674805</ele>
        <time>2011-08-15T08:41:28Z</time>
      </trkpt>
      <trkpt lat="50.25948" lon="3.28073">
        <ele>35.7060547</ele>
        <time>2011-08-15T08:41:33Z</time>
      </trkpt>
      <trkpt lat="50.25896" lon="3.28097">
        <ele>35.2254639</ele>
        <time>2011-08-15T08:41:39Z</time>
      </trkpt>
      <trkpt lat="50.25837" lon="3.2812">
        <ele>34.2641602</ele>
        <time>2011-08-15T08:41:45Z</time>
      </trkpt>
      <trkpt lat="50.2576" lon="3.28143">
        <ele>34.2641602</ele>
        <time>2011-08-15T08:41:52Z</time>
      </trkpt>
      <trkpt lat="50.25719" lon="3.28146">
        <ele>36.6674805</ele>
        <time>2011-08-15T08:41:56Z</time>
      </trkpt>
      <trkpt lat="50.25685" lon="3.28139">
        <ele>37.6286621</ele>
        <time>2011-08-15T08:42:00Z</time>
      </trkpt>
      <trkpt lat="50.25652" lon="3.28129">
        <ele>37.6286621</ele>
        <time>2011-08-15T08:42:05Z</time>
      </trkpt>
      <trkpt lat="50.25637" lon="3.28122">
        <ele>38.109375</ele>
        <time>2011-08-15T08:42:08Z</time>
      </trkpt>
      <trkpt lat="50.25608" lon="3.28112">
        <ele>38.109375</ele>
        <time>2011-08-15T08:42:14Z</time>
      </trkpt>
      <trkpt lat="50.25589" lon="3.28103">
        <ele>37.1480713</ele>
        <time>2011-08-15T08:42:18Z</time>
      </trkpt>
      <trkpt lat="50.25561" lon="3.281">
        <ele>36.1867676</ele>
        <time>2011-08-15T08:42:23Z</time>
      </trkpt>
      <trkpt lat="50.25544" lon="3.28097">
        <ele>35.2254639</ele>
        <time>2011-08-15T08:42:26Z</time>
      </trkpt>
      <trkpt lat="50.25507" lon="3.28105">
        <ele>34.2641602</ele>
        <time>2011-08-15T08:42:32Z</time>
      </trkpt>
      <trkpt lat="50.25493" lon="3.28097">
        <ele>33.7834473</ele>
        <time>2011-08-15T08:42:35Z</time>
      </trkpt>
      <trkpt lat="50.25491" lon="3.2808">
        <ele>32.8222656</ele>
        <time>2011-08-15T08:42:37Z</time>
      </trkpt>
      <trkpt lat="50.2549" lon="3.2803">
        <ele>32.3415527</ele>
        <time>2011-08-15T08:42:42Z</time>
      </trkpt>
      <trkpt lat="50.25491" lon="3.28012">
        <ele>31.8607178</ele>
        <time>2011-08-15T08:42:44Z</time>
      </trkpt>
      <trkpt lat="50.25503" lon="3.27971">
        <ele>31.8607178</ele>
        <time>2011-08-15T08:42:49Z</time>
      </trkpt>
      <trkpt lat="50.25528" lon="3.27923">
        <ele>31.8607178</ele>
        <time>2011-08-15T08:42:57Z</time>
      </trkpt>
      <trkpt lat="50.25561" lon="3.27879">
        <ele>30.8995361</ele>
        <time>2011-08-15T08:43:05Z</time>
      </trkpt>
      <trkpt lat="50.25588" lon="3.27845">
        <ele>29.4575195</ele>
        <time>2011-08-15T08:43:12Z</time>
      </trkpt>
      <trkpt lat="50.25619" lon="3.27809">
        <ele>29.4575195</ele>
        <time>2011-08-15T08:43:20Z</time>
      </trkpt>
      <trkpt lat="50.25645" lon="3.27781">
        <ele>29.4575195</ele>
        <time>2011-08-15T08:43:26Z</time>
      </trkpt>
      <trkpt lat="50.25674" lon="3.27758">
        <ele>31.380127</ele>
        <time>2011-08-15T08:43:32Z</time>
      </trkpt>
      <trkpt lat="50.25686" lon="3.27751">
        <ele>32.3415527</ele>
        <time>2011-08-15T08:43:35Z</time>
      </trkpt>
      <trkpt lat="50.25692" lon="3.27746">
        <ele>32.3415527</ele>
        <time>2011-08-15T08:43:37Z</time>
      </trkpt>
      <trkpt lat="50.25703" lon="3.27718">
        <ele>31.380127</ele>
        <time>2011-08-15T08:43:42Z</time>
      </trkpt>
      <trkpt lat="50.25723" lon="3.27657">
        <ele>31.380127</ele>
        <time>2011-08-15T08:43:50Z</time>
      </trkpt>
      <trkpt lat="50.25742" lon="3.27601">
        <ele>29.9381104</ele>
        <time>2011-08-15T08:43:57Z</time>
      </trkpt>
      <trkpt lat="50.2576" lon="3.27548">
        <ele>29.4575195</ele>
        <time>2011-08-15T08:44:03Z</time>
      </trkpt>
      <trkpt lat="50.25763" lon="3.2754">
        <ele>28.9769287</ele>
        <time>2011-08-15T08:44:04Z</time>
      </trkpt>
      <trkpt lat="50.25768" lon="3.27525">
        <ele>28.0155029</ele>
        <time>2011-08-15T08:44:06Z</time>
      </trkpt>
      <trkpt lat="50.25792" lon="3.2746">
        <ele>28.9769287</ele>
        <time>2011-08-15T08:44:14Z</time>
      </trkpt>
      <trkpt lat="50.25809" lon="3.27412">
        <ele>28.9769287</ele>
        <time>2011-08-15T08:44:20Z</time>
      </trkpt>
      <trkpt lat="50.25826" lon="3.27366">
        <ele>29.9381104</ele>
        <time>2011-08-15T08:44:26Z</time>
      </trkpt>
      <trkpt lat="50.25846" lon="3.27309">
        <ele>30.8995361</ele>
        <time>2011-08-15T08:44:33Z</time>
      </trkpt>
      <trkpt lat="50.25865" lon="3.27249">
        <ele>32.3415527</ele>
        <time>2011-08-15T08:44:40Z</time>
      </trkpt>
      <trkpt lat="50.2588" lon="3.27192">
        <ele>30.4188232</ele>
        <time>2011-08-15T08:44:47Z</time>
      </trkpt>
      <trkpt lat="50.25894" lon="3.27136">
        <ele>30.8995361</ele>
        <time>2011-08-15T08:44:54Z</time>
      </trkpt>
      <trkpt lat="50.25908" lon="3.27085">
        <ele>31.8607178</ele>
        <time>2011-08-15T08:45:00Z</time>
      </trkpt>
      <trkpt lat="50.25925" lon="3.27005">
        <ele>31.8607178</ele>
        <time>2011-08-15T08:45:09Z</time>
      </trkpt>
      <trkpt lat="50.25936" lon="3.26952">
        <ele>31.8607178</ele>
        <time>2011-08-15T08:45:15Z</time>
      </trkpt>
      <trkpt lat="50.25942" lon="3.26917">
        <ele>31.380127</ele>
        <time>2011-08-15T08:45:19Z</time>
      </trkpt>
      <trkpt lat="50.25935" lon="3.26887">
        <ele>30.4188232</ele>
        <time>2011-08-15T08:45:23Z</time>
      </trkpt>
      <trkpt lat="50.25925" lon="3.26884">
        <ele>30.4188232</ele>
        <time>2011-08-15T08:45:25Z</time>
      </trkpt>
      <trkpt lat="50.25902" lon="3.26888">
        <ele>30.4188232</ele>
        <time>2011-08-15T08:45:29Z</time>
      </trkpt>
      <trkpt lat="50.25865" lon="3.26891">
        <ele>30.8995361</ele>
        <time>2011-08-15T08:45:35Z</time>
      </trkpt>
      <trkpt lat="50.25819" lon="3.26889">
        <ele>30.8995361</ele>
        <time>2011-08-15T08:45:42Z</time>
      </trkpt>
      <trkpt lat="50.25781" lon="3.26888">
        <ele>30.8995361</ele>
        <time>2011-08-15T08:45:48Z</time>
      </trkpt>
      <trkpt lat="50.25741" lon="3.26887">
        <ele>31.380127</ele>
        <time>2011-08-15T08:45:54Z</time>
      </trkpt>
      <trkpt lat="50.25704" lon="3.26887">
        <ele>32.8222656</ele>
        <time>2011-08-15T08:46:00Z</time>
      </trkpt>
      <trkpt lat="50.25674" lon="3.26887">
        <ele>33.7834473</ele>
        <time>2011-08-15T08:46:05Z</time>
      </trkpt>
      <trkpt lat="50.25643" lon="3.26887">
        <ele>34.2641602</ele>
        <time>2011-08-15T08:46:10Z</time>
      </trkpt>
      <trkpt lat="50.25597" lon="3.26885">
        <ele>35.7060547</ele>
        <time>2011-08-15T08:46:17Z</time>
      </trkpt>
      <trkpt lat="50.25567" lon="3.26885">
        <ele>33.7834473</ele>
        <time>2011-08-15T08:46:22Z</time>
      </trkpt>
      <trkpt lat="50.25528" lon="3.26884">
        <ele>34.2641602</ele>
        <time>2011-08-15T08:46:28Z</time>
      </trkpt>
      <trkpt lat="50.25496" lon="3.26885">
        <ele>33.7834473</ele>
        <time>2011-08-15T08:46:33Z</time>
      </trkpt>
      <trkpt lat="50.25459" lon="3.26884">
        <ele>35.7060547</ele>
        <time>2011-08-15T08:46:39Z</time>
      </trkpt>
      <trkpt lat="50.25443" lon="3.26885">
        <ele>36.1867676</ele>
        <time>2011-08-15T08:46:42Z</time>
      </trkpt>
      <trkpt lat="50.25404" lon="3.26881">
        <ele>38.5900879</ele>
        <time>2011-08-15T08:46:49Z</time>
      </trkpt>
      <trkpt lat="50.25373" lon="3.26882">
        <ele>35.2254639</ele>
        <time>2011-08-15T08:46:54Z</time>
      </trkpt>
      <trkpt lat="50.25347" lon="3.26883">
        <ele>33.3028564</ele>
        <time>2011-08-15T08:46:58Z</time>
      </trkpt>
      <trkpt lat="50.25318" lon="3.26895">
        <ele>32.3415527</ele>
        <time>2011-08-15T08:47:03Z</time>
      </trkpt>
      <trkpt lat="50.25289" lon="3.26919">
        <ele>31.380127</ele>
        <time>2011-08-15T08:47:08Z</time>
      </trkpt>
      <trkpt lat="50.25257" lon="3.26964">
        <ele>30.8995361</ele>
        <time>2011-08-15T08:47:15Z</time>
      </trkpt>
      <trkpt lat="50.25253" lon="3.26971">
        <ele>30.4188232</ele>
        <time>2011-08-15T08:47:16Z</time>
      </trkpt>
      <trkpt lat="50.25225" lon="3.27025">
        <ele>31.380127</ele>
        <time>2011-08-15T08:47:23Z</time>
      </trkpt>
      <trkpt lat="50.25202" lon="3.27069">
        <ele>31.8607178</ele>
        <time>2011-08-15T08:47:29Z</time>
      </trkpt>
      <trkpt lat="50.25183" lon="3.27107">
        <ele>32.3415527</ele>
        <time>2011-08-15T08:47:34Z</time>
      </trkpt>
      <trkpt lat="50.25156" lon="3.27159">
        <ele>32.3415527</ele>
        <time>2011-08-15T08:47:41Z</time>
      </trkpt>
      <trkpt lat="50.25128" lon="3.2721">
        <ele>32.8222656</ele>
        <time>2011-08-15T08:47:48Z</time>
      </trkpt>
      <trkpt lat="50.2511" lon="3.27247">
        <ele>33.3028564</ele>
        <time>2011-08-15T08:47:53Z</time>
      </trkpt>
      <trkpt lat="50.25107" lon="3.27253">
        <ele>33.3028564</ele>
        <time>2011-08-15T08:47:54Z</time>
      </trkpt>
      <trkpt lat="50.25078" lon="3.27306">
        <ele>36.1867676</ele>
        <time>2011-08-15T08:48:01Z</time>
      </trkpt>
      <trkpt lat="50.25043" lon="3.27371">
        <ele>37.6286621</ele>
        <time>2011-08-15T08:48:10Z</time>
      </trkpt>
      <trkpt lat="50.25025" lon="3.27408">
        <ele>38.109375</ele>
        <time>2011-08-15T08:48:15Z</time>
      </trkpt>
      <trkpt lat="50.25003" lon="3.27454">
        <ele>37.6286621</ele>
        <time>2011-08-15T08:48:21Z</time>
      </trkpt>
      <trkpt lat="50.2499" lon="3.27484">
        <ele>36.6674805</ele>
        <time>2011-08-15T08:48:25Z</time>
      </trkpt>
      <trkpt lat="50.24962" lon="3.27538">
        <ele>34.744873</ele>
        <time>2011-08-15T08:48:32Z</time>
      </trkpt>
      <trkpt lat="50.24944" lon="3.27576">
        <ele>33.3028564</ele>
        <time>2011-08-15T08:48:37Z</time>
      </trkpt>
      <trkpt lat="50.24931" lon="3.2761">
        <ele>32.8222656</ele>
        <time>2011-08-15T08:48:41Z</time>
      </trkpt>
      <trkpt lat="50.24926" lon="3.2763">
        <ele>33.7834473</ele>
        <time>2011-08-15T08:48:43Z</time>
      </trkpt>
      <trkpt lat="50.24922" lon="3.27711">
        <ele>34.2641602</ele>
        <time>2011-08-15T08:48:51Z</time>
      </trkpt>
      <trkpt lat="50.24924" lon="3.27768">
        <ele>32.8222656</ele>
        <time>2011-08-15T08:48:57Z</time>
      </trkpt>
      <trkpt lat="50.24924" lon="3.27776">
        <ele>33.3028564</ele>
        <time>2011-08-15T08:48:58Z</time>
      </trkpt>
      <trkpt lat="50.24926" lon="3.27839">
        <ele>32.3415527</ele>
        <time>2011-08-15T08:49:05Z</time>
      </trkpt>
      <trkpt lat="50.24927" lon="3.27903">
        <ele>33.3028564</ele>
        <time>2011-08-15T08:49:12Z</time>
      </trkpt>
      <trkpt lat="50.24929" lon="3.27957">
        <ele>34.744873</ele>
        <time>2011-08-15T08:49:18Z</time>
      </trkpt>
      <trkpt lat="50.24931" lon="3.2802">
        <ele>35.2254639</ele>
        <time>2011-08-15T08:49:25Z</time>
      </trkpt>
      <trkpt lat="50.24933" lon="3.28067">
        <ele>35.7060547</ele>
        <time>2011-08-15T08:49:30Z</time>
      </trkpt>
      <trkpt lat="50.24935" lon="3.28085">
        <ele>36.1867676</ele>
        <time>2011-08-15T08:49:32Z</time>
      </trkpt>
      <trkpt lat="50.24938" lon="3.28153">
        <ele>37.1480713</ele>
        <time>2011-08-15T08:49:39Z</time>
      </trkpt>
      <trkpt lat="50.24941" lon="3.28234">
        <ele>37.1480713</ele>
        <time>2011-08-15T08:49:47Z</time>
      </trkpt>
      <trkpt lat="50.24946" lon="3.28328">
        <ele>37.1480713</ele>
        <time>2011-08-15T08:49:56Z</time>
      </trkpt>
      <trkpt lat="50.24951" lon="3.2842">
        <ele>36.1867676</ele>
        <time>2011-08-15T08:50:05Z</time>
      </trkpt>
      <trkpt lat="50.24953" lon="3.28504">
        <ele>35.7060547</ele>
        <time>2011-08-15T08:50:13Z</time>
      </trkpt>
      <trkpt lat="50.24957" lon="3.28607">
        <ele>35.2254639</ele>
        <time>2011-08-15T08:50:23Z</time>
      </trkpt>
      <trkpt lat="50.2496" lon="3.2871">
        <ele>34.744873</ele>
        <time>2011-08-15T08:50:33Z</time>
      </trkpt>
      <trkpt lat="50.24969" lon="3.28804">
        <ele>34.744873</ele>
        <time>2011-08-15T08:50:42Z</time>
      </trkpt>
      <trkpt lat="50.24987" lon="3.28864">
        <ele>34.744873</ele>
        <time>2011-08-15T08:50:48Z</time>
      </trkpt>
      <trkpt lat="50.25021" lon="3.2892">
        <ele>34.744873</ele>
        <time>2011-08-15T08:50:55Z</time>
      </trkpt>
      <trkpt lat="50.25066" lon="3.28988">
        <ele>34.744873</ele>
        <time>2011-08-15T08:51:04Z</time>
      </trkpt>
      <trkpt lat="50.25124" lon="3.29076">
        <ele>35.2254639</ele>
        <time>2011-08-15T08:51:16Z</time>
      </trkpt>
      <trkpt lat="50.25155" lon="3.29124">
        <ele>34.744873</ele>
        <time>2011-08-15T08:51:23Z</time>
      </trkpt>
      <trkpt lat="50.25189" lon="3.29178">
        <ele>34.744873</ele>
        <time>2011-08-15T08:51:32Z</time>
      </trkpt>
      <trkpt lat="50.25229" lon="3.29236">
        <ele>34.744873</ele>
        <time>2011-08-15T08:51:41Z</time>
      </trkpt>
      <trkpt lat="50.25233" lon="3.29243">
        <ele>34.744873</ele>
        <time>2011-08-15T08:51:42Z</time>
      </trkpt>
      <trkpt lat="50.2527" lon="3.29298">
        <ele>34.744873</ele>
        <time>2011-08-15T08:51:50Z</time>
      </trkpt>
      <trkpt lat="50.25311" lon="3.29362">
        <ele>35.2254639</ele>
        <time>2011-08-15T08:51:59Z</time>
      </trkpt>
      <trkpt lat="50.25353" lon="3.29427">
        <ele>34.744873</ele>
        <time>2011-08-15T08:52:08Z</time>
      </trkpt>
      <trkpt lat="50.25376" lon="3.29463">
        <ele>34.744873</ele>
        <time>2011-08-15T08:52:13Z</time>
      </trkpt>
      <trkpt lat="50.25416" lon="3.29523">
        <ele>35.2254639</ele>
        <time>2011-08-15T08:52:21Z</time>
      </trkpt>
      <trkpt lat="50.25465" lon="3.29598">
        <ele>34.744873</ele>
        <time>2011-08-15T08:52:31Z</time>
      </trkpt>
      <trkpt lat="50.255" lon="3.29652">
        <ele>34.744873</ele>
        <time>2011-08-15T08:52:38Z</time>
      </trkpt>
      <trkpt lat="50.25538" lon="3.29709">
        <ele>35.2254639</ele>
        <time>2011-08-15T08:52:46Z</time>
      </trkpt>
      <trkpt lat="50.25568" lon="3.29735">
        <ele>35.2254639</ele>
        <time>2011-08-15T08:52:51Z</time>
      </trkpt>
      <trkpt lat="50.25614" lon="3.29756">
        <ele>35.2254639</ele>
        <time>2011-08-15T08:52:58Z</time>
      </trkpt>
      <trkpt lat="50.25652" lon="3.2977">
        <ele>33.7834473</ele>
        <time>2011-08-15T08:53:04Z</time>
      </trkpt>
      <trkpt lat="50.25689" lon="3.29783">
        <ele>32.3415527</ele>
        <time>2011-08-15T08:53:11Z</time>
      </trkpt>
      <trkpt lat="50.25708" lon="3.2979">
        <ele>31.8607178</ele>
        <time>2011-08-15T08:53:15Z</time>
      </trkpt>
      <trkpt lat="50.25715" lon="3.29815">
        <ele>31.8607178</ele>
        <time>2011-08-15T08:53:19Z</time>
      </trkpt>
      <trkpt lat="50.25704" lon="3.29844">
        <ele>33.3028564</ele>
        <time>2011-08-15T08:53:23Z</time>
      </trkpt>
      <trkpt lat="50.25674" lon="3.29897">
        <ele>34.2641602</ele>
        <time>2011-08-15T08:53:31Z</time>
      </trkpt>
      <trkpt lat="50.25662" lon="3.2994">
        <ele>34.744873</ele>
        <time>2011-08-15T08:53:36Z</time>
      </trkpt>
      <trkpt lat="50.25656" lon="3.30021">
        <ele>35.2254639</ele>
        <time>2011-08-15T08:53:45Z</time>
      </trkpt>
      <trkpt lat="50.25648" lon="3.30048">
        <ele>35.7060547</ele>
        <time>2011-08-15T08:53:49Z</time>
      </trkpt>
      <trkpt lat="50.25643" lon="3.30049">
        <ele>35.7060547</ele>
        <time>2011-08-15T08:53:50Z</time>
      </trkpt>
      <trkpt lat="50.25621" lon="3.30051">
        <ele>36.1867676</ele>
        <time>2011-08-15T08:53:54Z</time>
      </trkpt>
      <trkpt lat="50.25594" lon="3.30033">
        <ele>36.1867676</ele>
        <time>2011-08-15T08:53:59Z</time>
      </trkpt>
      <trkpt lat="50.25568" lon="3.30013">
        <ele>37.6286621</ele>
        <time>2011-08-15T08:54:04Z</time>
      </trkpt>
      <trkpt lat="50.25563" lon="3.3001">
        <ele>37.1480713</ele>
        <time>2011-08-15T08:54:05Z</time>
      </trkpt>
      <trkpt lat="50.25547" lon="3.30001">
        <ele>37.6286621</ele>
        <time>2011-08-15T08:54:08Z</time>
      </trkpt>
      <trkpt lat="50.25524" lon="3.29994">
        <ele>38.109375</ele>
        <time>2011-08-15T08:54:12Z</time>
      </trkpt>
      <trkpt lat="50.25507" lon="3.2999">
        <ele>37.6286621</ele>
        <time>2011-08-15T08:54:15Z</time>
      </trkpt>
      <trkpt lat="50.25484" lon="3.29995">
        <ele>37.1480713</ele>
        <time>2011-08-15T08:54:19Z</time>
      </trkpt>
      <trkpt lat="50.25474" lon="3.30013">
        <ele>36.1867676</ele>
        <time>2011-08-15T08:54:21Z</time>
      </trkpt>
      <trkpt lat="50.25466" lon="3.30074">
        <ele>36.6674805</ele>
        <time>2011-08-15T08:54:27Z</time>
      </trkpt>
      <trkpt lat="50.25463" lon="3.30114">
        <ele>34.2641602</ele>
        <time>2011-08-15T08:54:31Z</time>
      </trkpt>
      <trkpt lat="50.25462" lon="3.30125">
        <ele>33.3028564</ele>
        <time>2011-08-15T08:54:32Z</time>
      </trkpt>
      <trkpt lat="50.25468" lon="3.30168">
        <ele>33.7834473</ele>
        <time>2011-08-15T08:54:36Z</time>
      </trkpt>
      <trkpt lat="50.25483" lon="3.30189">
        <ele>30.8995361</ele>
        <time>2011-08-15T08:54:39Z</time>
      </trkpt>
      <trkpt lat="50.25491" lon="3.30231">
        <ele>31.380127</ele>
        <time>2011-08-15T08:54:44Z</time>
      </trkpt>
      <trkpt lat="50.25483" lon="3.30275">
        <ele>31.8607178</ele>
        <time>2011-08-15T08:54:49Z</time>
      </trkpt>
      <trkpt lat="50.25479" lon="3.30292">
        <ele>33.3028564</ele>
        <time>2011-08-15T08:54:51Z</time>
      </trkpt>
      <trkpt lat="50.25474" lon="3.30308">
        <ele>33.3028564</ele>
        <time>2011-08-15T08:54:53Z</time>
      </trkpt>
      <trkpt lat="50.25459" lon="3.30337">
        <ele>34.2641602</ele>
        <time>2011-08-15T08:54:57Z</time>
      </trkpt>
      <trkpt lat="50.25441" lon="3.30354">
        <ele>34.2641602</ele>
        <time>2011-08-15T08:55:01Z</time>
      </trkpt>
      <trkpt lat="50.25402" lon="3.30375">
        <ele>34.744873</ele>
        <time>2011-08-15T08:55:08Z</time>
      </trkpt>
      <trkpt lat="50.25391" lon="3.30383">
        <ele>34.2641602</ele>
        <time>2011-08-15T08:55:10Z</time>
      </trkpt>
      <trkpt lat="50.25363" lon="3.30417">
        <ele>35.2254639</ele>
        <time>2011-08-15T08:55:16Z</time>
      </trkpt>
      <trkpt lat="50.25353" lon="3.30435">
        <ele>35.7060547</ele>
        <time>2011-08-15T08:55:19Z</time>
      </trkpt>
      <trkpt lat="50.25349" lon="3.30462">
        <ele>35.7060547</ele>
        <time>2011-08-15T08:55:24Z</time>
      </trkpt>
      <trkpt lat="50.25345" lon="3.30488">
        <ele>35.7060547</ele>
        <time>2011-08-15T08:55:29Z</time>
      </trkpt>
      <trkpt lat="50.25342" lon="3.30494">
        <ele>36.1867676</ele>
        <time>2011-08-15T08:55:30Z</time>
      </trkpt>
      <trkpt lat="50.25328" lon="3.30528">
        <ele>36.1867676</ele>
        <time>2011-08-15T08:55:36Z</time>
      </trkpt>
      <trkpt lat="50.25315" lon="3.30561">
        <ele>36.1867676</ele>
        <time>2011-08-15T08:55:41Z</time>
      </trkpt>
      <trkpt lat="50.25308" lon="3.30575">
        <ele>35.2254639</ele>
        <time>2011-08-15T08:55:43Z</time>
      </trkpt>
      <trkpt lat="50.25279" lon="3.30603">
        <ele>36.6674805</ele>
        <time>2011-08-15T08:55:49Z</time>
      </trkpt>
      <trkpt lat="50.25268" lon="3.30606">
        <ele>37.6286621</ele>
        <time>2011-08-15T08:55:51Z</time>
      </trkpt>
      <trkpt lat="50.25234" lon="3.30601">
        <ele>39.0706787</ele>
        <time>2011-08-15T08:55:57Z</time>
      </trkpt>
      <trkpt lat="50.25196" lon="3.30584">
        <ele>37.6286621</ele>
        <time>2011-08-15T08:56:04Z</time>
      </trkpt>
      <trkpt lat="50.25157" lon="3.30558">
        <ele>36.6674805</ele>
        <time>2011-08-15T08:56:11Z</time>
      </trkpt>
      <trkpt lat="50.25126" lon="3.30539">
        <ele>36.1867676</ele>
        <time>2011-08-15T08:56:17Z</time>
      </trkpt>
      <trkpt lat="50.25083" lon="3.30513">
        <ele>35.7060547</ele>
        <time>2011-08-15T08:56:25Z</time>
      </trkpt>
      <trkpt lat="50.25039" lon="3.30485">
        <ele>35.2254639</ele>
        <time>2011-08-15T08:56:33Z</time>
      </trkpt>
      <trkpt lat="50.24995" lon="3.30457">
        <ele>35.2254639</ele>
        <time>2011-08-15T08:56:41Z</time>
      </trkpt>
      <trkpt lat="50.24945" lon="3.30425">
        <ele>35.2254639</ele>
        <time>2011-08-15T08:56:50Z</time>
      </trkpt>
      <trkpt lat="50.24895" lon="3.30392">
        <ele>35.2254639</ele>
        <time>2011-08-15T08:56:59Z</time>
      </trkpt>
      <trkpt lat="50.24857" lon="3.30366">
        <ele>36.1867676</ele>
        <time>2011-08-15T08:57:06Z</time>
      </trkpt>
      <trkpt lat="50.24819" lon="3.30342">
        <ele>35.7060547</ele>
        <time>2011-08-15T08:57:13Z</time>
      </trkpt>
      <trkpt lat="50.24769" lon="3.30311">
        <ele>35.2254639</ele>
        <time>2011-08-15T08:57:22Z</time>
      </trkpt>
      <trkpt lat="50.24763" lon="3.30308">
        <ele>34.744873</ele>
        <time>2011-08-15T08:57:23Z</time>
      </trkpt>
      <trkpt lat="50.2471" lon="3.30288">
        <ele>34.744873</ele>
        <time>2011-08-15T08:57:32Z</time>
      </trkpt>
      <trkpt lat="50.24675" lon="3.30283">
        <ele>34.2641602</ele>
        <time>2011-08-15T08:57:38Z</time>
      </trkpt>
      <trkpt lat="50.24645" lon="3.30286">
        <ele>34.2641602</ele>
        <time>2011-08-15T08:57:43Z</time>
      </trkpt>
      <trkpt lat="50.24601" lon="3.30292">
        <ele>34.2641602</ele>
        <time>2011-08-15T08:57:50Z</time>
      </trkpt>
      <trkpt lat="50.24532" lon="3.30305">
        <ele>34.2641602</ele>
        <time>2011-08-15T08:58:01Z</time>
      </trkpt>
      <trkpt lat="50.24482" lon="3.30313">
        <ele>34.2641602</ele>
        <time>2011-08-15T08:58:09Z</time>
      </trkpt>
      <trkpt lat="50.24426" lon="3.30324">
        <ele>34.2641602</ele>
        <time>2011-08-15T08:58:18Z</time>
      </trkpt>
      <trkpt lat="50.24396" lon="3.30331">
        <ele>34.744873</ele>
        <time>2011-08-15T08:58:23Z</time>
      </trkpt>
      <trkpt lat="50.24369" lon="3.30345">
        <ele>35.2254639</ele>
        <time>2011-08-15T08:58:28Z</time>
      </trkpt>
      <trkpt lat="50.24348" lon="3.30354">
        <ele>35.7060547</ele>
        <time>2011-08-15T08:58:32Z</time>
      </trkpt>
      <trkpt lat="50.24334" lon="3.30343">
        <ele>35.7060547</ele>
        <time>2011-08-15T08:58:35Z</time>
      </trkpt>
      <trkpt lat="50.2433" lon="3.30336">
        <ele>35.7060547</ele>
        <time>2011-08-15T08:58:36Z</time>
      </trkpt>
      <trkpt lat="50.24307" lon="3.3028">
        <ele>38.109375</ele>
        <time>2011-08-15T08:58:44Z</time>
      </trkpt>
      <trkpt lat="50.24284" lon="3.30218">
        <ele>40.9934082</ele>
        <time>2011-08-15T08:58:54Z</time>
      </trkpt>
      <trkpt lat="50.24263" lon="3.30164">
        <ele>42.4354248</ele>
        <time>2011-08-15T08:59:03Z</time>
      </trkpt>
      <trkpt lat="50.24244" lon="3.30118">
        <ele>43.3966064</ele>
        <time>2011-08-15T08:59:11Z</time>
      </trkpt>
      <trkpt lat="50.24226" lon="3.30067">
        <ele>45.3192139</ele>
        <time>2011-08-15T08:59:20Z</time>
      </trkpt>
      <trkpt lat="50.24219" lon="3.30044">
        <ele>46.7612305</ele>
        <time>2011-08-15T08:59:24Z</time>
      </trkpt>
      <trkpt lat="50.2421" lon="3.30023">
        <ele>47.7225342</ele>
        <time>2011-08-15T08:59:28Z</time>
      </trkpt>
      <trkpt lat="50.24195" lon="3.29988">
        <ele>49.1645508</ele>
        <time>2011-08-15T08:59:35Z</time>
      </trkpt>
      <trkpt lat="50.24171" lon="3.29936">
        <ele>50.6065674</ele>
        <time>2011-08-15T08:59:45Z</time>
      </trkpt>
      <trkpt lat="50.24153" lon="3.29895">
        <ele>51.5678711</ele>
        <time>2011-08-15T08:59:53Z</time>
      </trkpt>
      <trkpt lat="50.24127" lon="3.29834">
        <ele>52.048584</ele>
        <time>2011-08-15T09:00:04Z</time>
      </trkpt>
      <trkpt lat="50.24105" lon="3.29783">
        <ele>52.5291748</ele>
        <time>2011-08-15T09:00:13Z</time>
      </trkpt>
      <trkpt lat="50.24083" lon="3.29738">
        <ele>53.0097656</ele>
        <time>2011-08-15T09:00:21Z</time>
      </trkpt>
      <trkpt lat="50.2408" lon="3.29733">
        <ele>53.0097656</ele>
        <time>2011-08-15T09:00:22Z</time>
      </trkpt>
      <trkpt lat="50.24066" lon="3.29718">
        <ele>53.0097656</ele>
        <time>2011-08-15T09:00:26Z</time>
      </trkpt>
      <trkpt lat="50.2402" lon="3.29705">
        <ele>53.4904785</ele>
        <time>2011-08-15T09:00:36Z</time>
      </trkpt>
      <trkpt lat="50.23985" lon="3.29688">
        <ele>53.9711914</ele>
        <time>2011-08-15T09:00:44Z</time>
      </trkpt>
      <trkpt lat="50.23976" lon="3.2968">
        <ele>53.9711914</ele>
        <time>2011-08-15T09:00:47Z</time>
      </trkpt>
      <trkpt lat="50.23973" lon="3.29665">
        <ele>53.9711914</ele>
        <time>2011-08-15T09:00:51Z</time>
      </trkpt>
      <trkpt lat="50.23982" lon="3.29664">
        <ele>53.4904785</ele>
        <time>2011-08-15T09:00:54Z</time>
      </trkpt>
      <trkpt lat="50.23992" lon="3.29668">
        <ele>53.0097656</ele>
        <time>2011-08-15T09:00:57Z</time>
      </trkpt>
      <trkpt lat="50.24026" lon="3.2967">
        <ele>51.5678711</ele>
        <time>2011-08-15T09:01:05Z</time>
      </trkpt>
      <trkpt lat="50.24065" lon="3.29666">
        <ele>51.0871582</ele>
        <time>2011-08-15T09:01:13Z</time>
      </trkpt>
      <trkpt lat="50.24077" lon="3.29663">
        <ele>50.1259766</ele>
        <time>2011-08-15T09:01:16Z</time>
      </trkpt>
      <trkpt lat="50.24115" lon="3.29661">
        <ele>50.6065674</ele>
        <time>2011-08-15T09:01:22Z</time>
      </trkpt>
      <trkpt lat="50.24167" lon="3.29655">
        <ele>50.6065674</ele>
        <time>2011-08-15T09:01:31Z</time>
      </trkpt>
      <trkpt lat="50.24226" lon="3.29647">
        <ele>50.6065674</ele>
        <time>2011-08-15T09:01:41Z</time>
      </trkpt>
      <trkpt lat="50.24265" lon="3.29641">
        <ele>50.6065674</ele>
        <time>2011-08-15T09:01:49Z</time>
      </trkpt>
      <trkpt lat="50.24304" lon="3.29632">
        <ele>49.6452637</ele>
        <time>2011-08-15T09:01:57Z</time>
      </trkpt>
      <trkpt lat="50.2434" lon="3.29625">
        <ele>49.1645508</ele>
        <time>2011-08-15T09:02:04Z</time>
      </trkpt>
      <trkpt lat="50.24398" lon="3.29614">
        <ele>48.68396</ele>
        <time>2011-08-15T09:02:15Z</time>
      </trkpt>
      <trkpt lat="50.24454" lon="3.29603">
        <ele>48.2033691</ele>
        <time>2011-08-15T09:02:25Z</time>
      </trkpt>
      <trkpt lat="50.2452" lon="3.2959">
        <ele>48.2033691</ele>
        <time>2011-08-15T09:02:36Z</time>
      </trkpt>
      <trkpt lat="50.24587" lon="3.29579">
        <ele>47.7225342</ele>
        <time>2011-08-15T09:02:47Z</time>
      </trkpt>
      <trkpt lat="50.24631" lon="3.2958">
        <ele>47.2418213</ele>
        <time>2011-08-15T09:02:54Z</time>
      </trkpt>
      <trkpt lat="50.24665" lon="3.29582">
        <ele>45.7999268</ele>
        <time>2011-08-15T09:02:59Z</time>
      </trkpt>
      <trkpt lat="50.24707" lon="3.29584">
        <ele>45.3192139</ele>
        <time>2011-08-15T09:03:05Z</time>
      </trkpt>
      <trkpt lat="50.24742" lon="3.29588">
        <ele>43.8773193</ele>
        <time>2011-08-15T09:03:10Z</time>
      </trkpt>
      <trkpt lat="50.24751" lon="3.29586">
        <ele>43.3966064</ele>
        <time>2011-08-15T09:03:12Z</time>
      </trkpt>
      <trkpt lat="50.2475" lon="3.29572">
        <ele>41.9547119</ele>
        <time>2011-08-15T09:03:15Z</time>
      </trkpt>
      <trkpt lat="50.24744" lon="3.29562">
        <ele>41.9547119</ele>
        <time>2011-08-15T09:03:17Z</time>
      </trkpt>
      <trkpt lat="50.24716" lon="3.29517">
        <ele>41.473999</ele>
        <time>2011-08-15T09:03:24Z</time>
      </trkpt>
      <trkpt lat="50.24699" lon="3.2949">
        <ele>41.9547119</ele>
        <time>2011-08-15T09:03:28Z</time>
      </trkpt>
      <trkpt lat="50.24679" lon="3.2944">
        <ele>40.9934082</ele>
        <time>2011-08-15T09:03:34Z</time>
      </trkpt>
      <trkpt lat="50.24675" lon="3.29432">
        <ele>40.9934082</ele>
        <time>2011-08-15T09:03:35Z</time>
      </trkpt>
      <trkpt lat="50.24651" lon="3.29386">
        <ele>40.0321045</ele>
        <time>2011-08-15T09:03:41Z</time>
      </trkpt>
      <trkpt lat="50.24619" lon="3.29329">
        <ele>39.0706787</ele>
        <time>2011-08-15T09:03:49Z</time>
      </trkpt>
      <trkpt lat="50.24593" lon="3.29279">
        <ele>38.5900879</ele>
        <time>2011-08-15T09:03:56Z</time>
      </trkpt>
      <trkpt lat="50.24555" lon="3.2921">
        <ele>38.109375</ele>
        <time>2011-08-15T09:04:06Z</time>
      </trkpt>
      <trkpt lat="50.24545" lon="3.29188">
        <ele>37.6286621</ele>
        <time>2011-08-15T09:04:09Z</time>
      </trkpt>
      <trkpt lat="50.24534" lon="3.29137">
        <ele>37.1480713</ele>
        <time>2011-08-15T09:04:15Z</time>
      </trkpt>
      <trkpt lat="50.24535" lon="3.29083">
        <ele>36.1867676</ele>
        <time>2011-08-15T09:04:21Z</time>
      </trkpt>
      <trkpt lat="50.24535" lon="3.29074">
        <ele>36.1867676</ele>
        <time>2011-08-15T09:04:22Z</time>
      </trkpt>
      <trkpt lat="50.24542" lon="3.29039">
        <ele>36.1867676</ele>
        <time>2011-08-15T09:04:27Z</time>
      </trkpt>
      <trkpt lat="50.24545" lon="3.29028">
        <ele>36.1867676</ele>
        <time>2011-08-15T09:04:29Z</time>
      </trkpt>
      <trkpt lat="50.24548" lon="3.29017">
        <ele>36.6674805</ele>
        <time>2011-08-15T09:04:31Z</time>
      </trkpt>
      <trkpt lat="50.24545" lon="3.29">
        <ele>37.6286621</ele>
        <time>2011-08-15T09:04:35Z</time>
      </trkpt>
      <trkpt lat="50.24539" lon="3.29001">
        <ele>38.109375</ele>
        <time>2011-08-15T09:04:37Z</time>
      </trkpt>
      <trkpt lat="50.24502" lon="3.29007">
        <ele>40.0321045</ele>
        <time>2011-08-15T09:04:46Z</time>
      </trkpt>
      <trkpt lat="50.24471" lon="3.29005">
        <ele>41.473999</ele>
        <time>2011-08-15T09:04:53Z</time>
      </trkpt>
      <trkpt lat="50.24422" lon="3.28991">
        <ele>43.8773193</ele>
        <time>2011-08-15T09:05:04Z</time>
      </trkpt>
      <trkpt lat="50.24367" lon="3.28975">
        <ele>46.2806396</ele>
        <time>2011-08-15T09:05:16Z</time>
      </trkpt>
      <trkpt lat="50.24321" lon="3.28962">
        <ele>48.2033691</ele>
        <time>2011-08-15T09:05:26Z</time>
      </trkpt>
      <trkpt lat="50.2428" lon="3.2895">
        <ele>49.1645508</ele>
        <time>2011-08-15T09:05:35Z</time>
      </trkpt>
      <trkpt lat="50.24239" lon="3.28938">
        <ele>51.0871582</ele>
        <time>2011-08-15T09:05:44Z</time>
      </trkpt>
      <trkpt lat="50.2422" lon="3.28933">
        <ele>52.048584</ele>
        <time>2011-08-15T09:05:48Z</time>
      </trkpt>
      <trkpt lat="50.24178" lon="3.28921">
        <ele>53.4904785</ele>
        <time>2011-08-15T09:05:57Z</time>
      </trkpt>
      <trkpt lat="50.2413" lon="3.28907">
        <ele>55.4130859</ele>
        <time>2011-08-15T09:06:07Z</time>
      </trkpt>
      <trkpt lat="50.24078" lon="3.28892">
        <ele>57.3358154</ele>
        <time>2011-08-15T09:06:18Z</time>
      </trkpt>
      <trkpt lat="50.24022" lon="3.28874">
        <ele>59.2584229</ele>
        <time>2011-08-15T09:06:30Z</time>
      </trkpt>
      <trkpt lat="50.23984" lon="3.28861">
        <ele>60.7003174</ele>
        <time>2011-08-15T09:06:38Z</time>
      </trkpt>
      <trkpt lat="50.23944" lon="3.2884">
        <ele>62.142334</ele>
        <time>2011-08-15T09:06:47Z</time>
      </trkpt>
      <trkpt lat="50.23908" lon="3.28815">
        <ele>63.1036377</ele>
        <time>2011-08-15T09:06:55Z</time>
      </trkpt>
      <trkpt lat="50.2386" lon="3.28777">
        <ele>64.0650635</ele>
        <time>2011-08-15T09:07:06Z</time>
      </trkpt>
      <trkpt lat="50.23812" lon="3.28739">
        <ele>65.5070801</ele>
        <time>2011-08-15T09:07:17Z</time>
      </trkpt>
      <trkpt lat="50.23769" lon="3.28704">
        <ele>66.9489746</ele>
        <time>2011-08-15T09:07:27Z</time>
      </trkpt>
      <trkpt lat="50.23724" lon="3.2867">
        <ele>67.9102783</ele>
        <time>2011-08-15T09:07:37Z</time>
      </trkpt>
      <trkpt lat="50.23685" lon="3.28639">
        <ele>68.871582</ele>
        <time>2011-08-15T09:07:46Z</time>
      </trkpt>
      <trkpt lat="50.23651" lon="3.28613">
        <ele>69.3522949</ele>
        <time>2011-08-15T09:07:54Z</time>
      </trkpt>
      <trkpt lat="50.23635" lon="3.286">
        <ele>69.3522949</ele>
        <time>2011-08-15T09:07:58Z</time>
      </trkpt>
      <trkpt lat="50.23628" lon="3.28578">
        <ele>69.3522949</ele>
        <time>2011-08-15T09:08:02Z</time>
      </trkpt>
      <trkpt lat="50.23636" lon="3.28567">
        <ele>68.871582</ele>
        <time>2011-08-15T09:08:05Z</time>
      </trkpt>
      <trkpt lat="50.2367" lon="3.28548">
        <ele>67.9102783</ele>
        <time>2011-08-15T09:08:14Z</time>
      </trkpt>
      <trkpt lat="50.23674" lon="3.28543">
        <ele>67.9102783</ele>
        <time>2011-08-15T09:08:16Z</time>
      </trkpt>
      <trkpt lat="50.23675" lon="3.28533">
        <ele>67.4296875</ele>
        <time>2011-08-15T09:08:19Z</time>
      </trkpt>
      <trkpt lat="50.2367" lon="3.28531">
        <ele>68.3908691</ele>
        <time>2011-08-15T09:08:23Z</time>
      </trkpt>
      <trkpt lat="50.23662" lon="3.28534">
        <ele>68.871582</ele>
        <time>2011-08-15T09:08:27Z</time>
      </trkpt>
      <trkpt lat="50.23653" lon="3.28539">
        <ele>69.3522949</ele>
        <time>2011-08-15T09:08:31Z</time>
      </trkpt>
      <trkpt lat="50.23648" lon="3.28544">
        <ele>69.8328857</ele>
        <time>2011-08-15T09:08:35Z</time>
      </trkpt>
      <trkpt lat="50.23654" lon="3.28541">
        <ele>69.8328857</ele>
        <time>2011-08-15T09:08:39Z</time>
      </trkpt>
      <trkpt lat="50.23673" lon="3.28532">
        <ele>69.3522949</ele>
        <time>2011-08-15T09:08:46Z</time>
      </trkpt>
      <trkpt lat="50.23688" lon="3.28524">
        <ele>68.871582</ele>
        <time>2011-08-15T09:08:52Z</time>
      </trkpt>
      <trkpt lat="50.2369" lon="3.28524">
        <ele>68.3908691</ele>
        <time>2011-08-15T09:08:53Z</time>
      </trkpt>
      <trkpt lat="50.23693" lon="3.28524">
        <ele>68.871582</ele>
        <time>2011-08-15T09:08:57Z</time>
      </trkpt>
      <trkpt lat="50.23694" lon="3.28523">
        <ele>68.871582</ele>
        <time>2011-08-15T09:09:07Z</time>
      </trkpt>
      <trkpt lat="50.23703" lon="3.28518">
        <ele>68.871582</ele>
        <time>2011-08-15T09:09:10Z</time>
      </trkpt>
      <trkpt lat="50.23737" lon="3.28498">
        <ele>67.9102783</ele>
        <time>2011-08-15T09:09:19Z</time>
      </trkpt>
      <trkpt lat="50.23775" lon="3.28472">
        <ele>66.4682617</ele>
        <time>2011-08-15T09:09:27Z</time>
      </trkpt>
      <trkpt lat="50.23819" lon="3.28435">
        <ele>65.9876709</ele>
        <time>2011-08-15T09:09:36Z</time>
      </trkpt>
      <trkpt lat="50.23867" lon="3.28391">
        <ele>64.5456543</ele>
        <time>2011-08-15T09:09:46Z</time>
      </trkpt>
      <trkpt lat="50.23908" lon="3.28357">
        <ele>62.6229248</ele>
        <time>2011-08-15T09:09:53Z</time>
      </trkpt>
      <trkpt lat="50.23953" lon="3.28321">
        <ele>60.2197266</ele>
        <time>2011-08-15T09:10:00Z</time>
      </trkpt>
      <trkpt lat="50.24003" lon="3.28293">
        <ele>58.2971191</ele>
        <time>2011-08-15T09:10:07Z</time>
      </trkpt>
      <trkpt lat="50.24076" lon="3.28252">
        <ele>54.932373</ele>
        <time>2011-08-15T09:10:17Z</time>
      </trkpt>
      <trkpt lat="50.24114" lon="3.28212">
        <ele>53.4904785</ele>
        <time>2011-08-15T09:10:23Z</time>
      </trkpt>
      <trkpt lat="50.24156" lon="3.28171">
        <ele>52.048584</ele>
        <time>2011-08-15T09:10:30Z</time>
      </trkpt>
      <trkpt lat="50.242" lon="3.28123">
        <ele>50.1259766</ele>
        <time>2011-08-15T09:10:38Z</time>
      </trkpt>
      <trkpt lat="50.24244" lon="3.28072">
        <ele>47.7225342</ele>
        <time>2011-08-15T09:10:46Z</time>
      </trkpt>
      <trkpt lat="50.24281" lon="3.28027">
        <ele>46.7612305</ele>
        <time>2011-08-15T09:10:53Z</time>
      </trkpt>
      <trkpt lat="50.24325" lon="3.27974">
        <ele>46.2806396</ele>
        <time>2011-08-15T09:11:01Z</time>
      </trkpt>
      <trkpt lat="50.24364" lon="3.27919">
        <ele>44.3580322</ele>
        <time>2011-08-15T09:11:09Z</time>
      </trkpt>
      <trkpt lat="50.24401" lon="3.27861">
        <ele>41.473999</ele>
        <time>2011-08-15T09:11:17Z</time>
      </trkpt>
      <trkpt lat="50.24427" lon="3.27817">
        <ele>40.0321045</ele>
        <time>2011-08-15T09:11:23Z</time>
      </trkpt>
      <trkpt lat="50.24444" lon="3.27774">
        <ele>38.5900879</ele>
        <time>2011-08-15T09:11:29Z</time>
      </trkpt>
      <trkpt lat="50.24456" lon="3.27767">
        <ele>37.6286621</ele>
        <time>2011-08-15T09:11:34Z</time>
      </trkpt>
      <trkpt lat="50.24464" lon="3.27767">
        <ele>38.109375</ele>
        <time>2011-08-15T09:11:36Z</time>
      </trkpt>
      <trkpt lat="50.24489" lon="3.27762">
        <ele>36.1867676</ele>
        <time>2011-08-15T09:11:42Z</time>
      </trkpt>
      <trkpt lat="50.24489" lon="3.27738">
        <ele>35.7060547</ele>
        <time>2011-08-15T09:11:46Z</time>
      </trkpt>
      <trkpt lat="50.24491" lon="3.27693">
        <ele>34.744873</ele>
        <time>2011-08-15T09:11:51Z</time>
      </trkpt>
      <trkpt lat="50.24508" lon="3.27642">
        <ele>33.7834473</ele>
        <time>2011-08-15T09:11:58Z</time>
      </trkpt>
      <trkpt lat="50.24525" lon="3.27612">
        <ele>32.8222656</ele>
        <time>2011-08-15T09:12:03Z</time>
      </trkpt>
      <trkpt lat="50.24534" lon="3.27602">
        <ele>32.8222656</ele>
        <time>2011-08-15T09:12:05Z</time>
      </trkpt>
      <trkpt lat="50.24571" lon="3.27577">
        <ele>32.8222656</ele>
        <time>2011-08-15T09:12:13Z</time>
      </trkpt>
      <trkpt lat="50.24606" lon="3.27549">
        <ele>32.8222656</ele>
        <time>2011-08-15T09:12:21Z</time>
      </trkpt>
      <trkpt lat="50.24631" lon="3.27525">
        <ele>32.8222656</ele>
        <time>2011-08-15T09:12:27Z</time>
      </trkpt>
      <trkpt lat="50.24646" lon="3.27509">
        <ele>33.3028564</ele>
        <time>2011-08-15T09:12:31Z</time>
      </trkpt>
      <trkpt lat="50.24647" lon="3.27489">
        <ele>33.3028564</ele>
        <time>2011-08-15T09:12:34Z</time>
      </trkpt>
      <trkpt lat="50.24634" lon="3.27468">
        <ele>33.7834473</ele>
        <time>2011-08-15T09:12:38Z</time>
      </trkpt>
      <trkpt lat="50.24626" lon="3.2746">
        <ele>34.2641602</ele>
        <time>2011-08-15T09:12:40Z</time>
      </trkpt>
      <trkpt lat="50.24613" lon="3.27449">
        <ele>34.2641602</ele>
        <time>2011-08-15T09:12:43Z</time>
      </trkpt>
      <trkpt lat="50.24578" lon="3.27425">
        <ele>34.744873</ele>
        <time>2011-08-15T09:12:51Z</time>
      </trkpt>
      <trkpt lat="50.24556" lon="3.27411">
        <ele>34.744873</ele>
        <time>2011-08-15T09:12:56Z</time>
      </trkpt>
      <trkpt lat="50.24542" lon="3.27414">
        <ele>35.7060547</ele>
        <time>2011-08-15T09:13:00Z</time>
      </trkpt>
      <trkpt lat="50.24519" lon="3.27467">
        <ele>37.1480713</ele>
        <time>2011-08-15T09:13:09Z</time>
      </trkpt>
      <trkpt lat="50.24495" lon="3.27508">
        <ele>37.1480713</ele>
        <time>2011-08-15T09:13:17Z</time>
      </trkpt>
      <trkpt lat="50.24471" lon="3.27542">
        <ele>38.109375</ele>
        <time>2011-08-15T09:13:24Z</time>
      </trkpt>
      <trkpt lat="50.24466" lon="3.27552">
        <ele>38.109375</ele>
        <time>2011-08-15T09:13:29Z</time>
      </trkpt>
      <trkpt lat="50.24466" lon="3.27551">
        <ele>38.109375</ele>
        <time>2011-08-15T09:13:30Z</time>
      </trkpt>
    </trkseg>
    </trkseg>
      <trkpt lat="50.24461" lon="3.27562">
        <ele>35.7060547</ele>
        <time>2011-08-15T10:05:30Z</time>
      </trkpt>
      <trkpt lat="50.2445" lon="3.27585">
        <ele>35.7060547</ele>
        <time>2011-08-15T10:05:36Z</time>
      </trkpt>
      <trkpt lat="50.24441" lon="3.27615">
        <ele>34.744873</ele>
        <time>2011-08-15T10:05:41Z</time>
      </trkpt>
      <trkpt lat="50.24433" lon="3.27645">
        <ele>33.3028564</ele>
        <time>2011-08-15T10:05:45Z</time>
      </trkpt>
      <trkpt lat="50.24429" lon="3.27671">
        <ele>31.8607178</ele>
        <time>2011-08-15T10:05:48Z</time>
      </trkpt>
      <trkpt lat="50.24424" lon="3.27717">
        <ele>31.8607178</ele>
        <time>2011-08-15T10:05:54Z</time>
      </trkpt>
      <trkpt lat="50.24422" lon="3.27756">
        <ele>32.3415527</ele>
        <time>2011-08-15T10:06:00Z</time>
      </trkpt>
      <trkpt lat="50.24421" lon="3.27761">
        <ele>32.3415527</ele>
        <time>2011-08-15T10:06:01Z</time>
      </trkpt>
      <trkpt lat="50.24428" lon="3.27768">
        <ele>31.8607178</ele>
        <time>2011-08-15T10:06:05Z</time>
      </trkpt>
      <trkpt lat="50.24453" lon="3.2777">
        <ele>31.380127</ele>
        <time>2011-08-15T10:06:13Z</time>
      </trkpt>
      <trkpt lat="50.24479" lon="3.27771">
        <ele>31.8607178</ele>
        <time>2011-08-15T10:06:19Z</time>
      </trkpt>
      <trkpt lat="50.24488" lon="3.27773">
        <ele>31.8607178</ele>
        <time>2011-08-15T10:06:21Z</time>
      </trkpt>
      <trkpt lat="50.24521" lon="3.27791">
        <ele>30.8995361</ele>
        <time>2011-08-15T10:06:28Z</time>
      </trkpt>
      <trkpt lat="50.24553" lon="3.27798">
        <ele>32.8222656</ele>
        <time>2011-08-15T10:06:34Z</time>
      </trkpt>
      <trkpt lat="50.24584" lon="3.27819">
        <ele>33.3028564</ele>
        <time>2011-08-15T10:06:40Z</time>
      </trkpt>
      <trkpt lat="50.2462" lon="3.27827">
        <ele>35.7060547</ele>
        <time>2011-08-15T10:06:46Z</time>
      </trkpt>
      <trkpt lat="50.24666" lon="3.27843">
        <ele>34.2641602</ele>
        <time>2011-08-15T10:06:54Z</time>
      </trkpt>
      <trkpt lat="50.24687" lon="3.27856">
        <ele>33.3028564</ele>
        <time>2011-08-15T10:06:58Z</time>
      </trkpt>
      <trkpt lat="50.24729" lon="3.27891">
        <ele>31.8607178</ele>
        <time>2011-08-15T10:07:06Z</time>
      </trkpt>
      <trkpt lat="50.2476" lon="3.27918">
        <ele>31.8607178</ele>
        <time>2011-08-15T10:07:12Z</time>
      </trkpt>
      <trkpt lat="50.24765" lon="3.27923">
        <ele>31.380127</ele>
        <time>2011-08-15T10:07:13Z</time>
      </trkpt>
      <trkpt lat="50.24777" lon="3.27945">
        <ele>31.380127</ele>
        <time>2011-08-15T10:07:16Z</time>
      </trkpt>
      <trkpt lat="50.24788" lon="3.27981">
        <ele>31.8607178</ele>
        <time>2011-08-15T10:07:20Z</time>
      </trkpt>
      <trkpt lat="50.24796" lon="3.28041">
        <ele>30.4188232</ele>
        <time>2011-08-15T10:07:26Z</time>
      </trkpt>
      <trkpt lat="50.24797" lon="3.28083">
        <ele>29.4575195</ele>
        <time>2011-08-15T10:07:30Z</time>
      </trkpt>
      <trkpt lat="50.2479" lon="3.28187">
        <ele>28.0155029</ele>
        <time>2011-08-15T10:07:40Z</time>
      </trkpt>
      <trkpt lat="50.24784" lon="3.28265">
        <ele>28.0155029</ele>
        <time>2011-08-15T10:07:48Z</time>
      </trkpt>
      <trkpt lat="50.24779" lon="3.28337">
        <ele>28.0155029</ele>
        <time>2011-08-15T10:07:56Z</time>
      </trkpt>
      <trkpt lat="50.24773" lon="3.28422">
        <ele>27.0543213</ele>
        <time>2011-08-15T10:08:05Z</time>
      </trkpt>
      <trkpt lat="50.24771" lon="3.28462">
        <ele>27.0543213</ele>
        <time>2011-08-15T10:08:09Z</time>
      </trkpt>
      <trkpt lat="50.24767" lon="3.28504">
        <ele>26.0928955</ele>
        <time>2011-08-15T10:08:13Z</time>
      </trkpt>
      <trkpt lat="50.24766" lon="3.28525">
        <ele>26.0928955</ele>
        <time>2011-08-15T10:08:15Z</time>
      </trkpt>
      <trkpt lat="50.24753" lon="3.28598">
        <ele>26.0928955</ele>
        <time>2011-08-15T10:08:22Z</time>
      </trkpt>
      <trkpt lat="50.24737" lon="3.2866">
        <ele>26.0928955</ele>
        <time>2011-08-15T10:08:28Z</time>
      </trkpt>
      <trkpt lat="50.24733" lon="3.28727">
        <ele>26.0928955</ele>
        <time>2011-08-15T10:08:34Z</time>
      </trkpt>
      <trkpt lat="50.24733" lon="3.28823">
        <ele>25.6123047</ele>
        <time>2011-08-15T10:08:43Z</time>
      </trkpt>
      <trkpt lat="50.24733" lon="3.28916">
        <ele>26.0928955</ele>
        <time>2011-08-15T10:08:52Z</time>
      </trkpt>
      <trkpt lat="50.24727" lon="3.28998">
        <ele>26.0928955</ele>
        <time>2011-08-15T10:09:00Z</time>
      </trkpt>
      <trkpt lat="50.24722" lon="3.2909">
        <ele>27.0543213</ele>
        <time>2011-08-15T10:09:09Z</time>
      </trkpt>
      <trkpt lat="50.24724" lon="3.29154">
        <ele>26.0928955</ele>
        <time>2011-08-15T10:09:15Z</time>
      </trkpt>
      <trkpt lat="50.24734" lon="3.29194">
        <ele>26.0928955</ele>
        <time>2011-08-15T10:09:19Z</time>
      </trkpt>
      <trkpt lat="50.24754" lon="3.29237">
        <ele>26.5736084</ele>
        <time>2011-08-15T10:09:24Z</time>
      </trkpt>
      <trkpt lat="50.24774" lon="3.29299">
        <ele>26.5736084</ele>
        <time>2011-08-15T10:09:31Z</time>
      </trkpt>
      <trkpt lat="50.24782" lon="3.29332">
        <ele>28.0155029</ele>
        <time>2011-08-15T10:09:35Z</time>
      </trkpt>
      <trkpt lat="50.24786" lon="3.29355">
        <ele>28.9769287</ele>
        <time>2011-08-15T10:09:38Z</time>
      </trkpt>
      <trkpt lat="50.24794" lon="3.29427">
        <ele>29.9381104</ele>
        <time>2011-08-15T10:09:47Z</time>
      </trkpt>
      <trkpt lat="50.24801" lon="3.29496">
        <ele>31.380127</ele>
        <time>2011-08-15T10:09:56Z</time>
      </trkpt>
      <trkpt lat="50.24806" lon="3.29549">
        <ele>31.8607178</ele>
        <time>2011-08-15T10:10:03Z</time>
      </trkpt>
      <trkpt lat="50.24811" lon="3.29593">
        <ele>32.8222656</ele>
        <time>2011-08-15T10:10:09Z</time>
      </trkpt>
      <trkpt lat="50.24814" lon="3.29618">
        <ele>33.7834473</ele>
        <time>2011-08-15T10:10:13Z</time>
      </trkpt>
      <trkpt lat="50.24824" lon="3.29648">
        <ele>34.2641602</ele>
        <time>2011-08-15T10:10:18Z</time>
      </trkpt>
      <trkpt lat="50.24842" lon="3.29703">
        <ele>36.6674805</ele>
        <time>2011-08-15T10:10:27Z</time>
      </trkpt>
      <trkpt lat="50.24858" lon="3.29761">
        <ele>38.109375</ele>
        <time>2011-08-15T10:10:36Z</time>
      </trkpt>
      <trkpt lat="50.24873" lon="3.29814">
        <ele>39.0706787</ele>
        <time>2011-08-15T10:10:44Z</time>
      </trkpt>
      <trkpt lat="50.24893" lon="3.29879">
        <ele>39.0706787</ele>
        <time>2011-08-15T10:10:53Z</time>
      </trkpt>
      <trkpt lat="50.24912" lon="3.29941">
        <ele>40.9934082</ele>
        <time>2011-08-15T10:11:00Z</time>
      </trkpt>
      <trkpt lat="50.24928" lon="3.30001">
        <ele>40.5128174</ele>
        <time>2011-08-15T10:11:06Z</time>
      </trkpt>
      <trkpt lat="50.24932" lon="3.30023">
        <ele>40.0321045</ele>
        <time>2011-08-15T10:11:08Z</time>
      </trkpt>
      <trkpt lat="50.24941" lon="3.30066">
        <ele>39.5512695</ele>
        <time>2011-08-15T10:11:12Z</time>
      </trkpt>
      <trkpt lat="50.2496" lon="3.30089">
        <ele>38.5900879</ele>
        <time>2011-08-15T10:11:15Z</time>
      </trkpt>
      <trkpt lat="50.2501" lon="3.30115">
        <ele>36.6674805</ele>
        <time>2011-08-15T10:11:21Z</time>
      </trkpt>
      <trkpt lat="50.25058" lon="3.30134">
        <ele>34.2641602</ele>
        <time>2011-08-15T10:11:27Z</time>
      </trkpt>
      <trkpt lat="50.25111" lon="3.30146">
        <ele>33.3028564</ele>
        <time>2011-08-15T10:11:34Z</time>
      </trkpt>
      <trkpt lat="50.25153" lon="3.30169">
        <ele>32.8222656</ele>
        <time>2011-08-15T10:11:40Z</time>
      </trkpt>
      <trkpt lat="50.2519" lon="3.30203">
        <ele>31.8607178</ele>
        <time>2011-08-15T10:11:46Z</time>
      </trkpt>
      <trkpt lat="50.25222" lon="3.30249">
        <ele>31.380127</ele>
        <time>2011-08-15T10:11:52Z</time>
      </trkpt>
      <trkpt lat="50.25258" lon="3.30316">
        <ele>30.4188232</ele>
        <time>2011-08-15T10:12:00Z</time>
      </trkpt>
      <trkpt lat="50.2529" lon="3.30387">
        <ele>29.9381104</ele>
        <time>2011-08-15T10:12:08Z</time>
      </trkpt>
      <trkpt lat="50.25307" lon="3.30436">
        <ele>30.4188232</ele>
        <time>2011-08-15T10:12:14Z</time>
      </trkpt>
      <trkpt lat="50.25315" lon="3.30456">
        <ele>30.8995361</ele>
        <time>2011-08-15T10:12:17Z</time>
      </trkpt>
      <trkpt lat="50.25337" lon="3.30483">
        <ele>31.8607178</ele>
        <time>2011-08-15T10:12:23Z</time>
      </trkpt>
      <trkpt lat="50.25383" lon="3.30509">
        <ele>31.8607178</ele>
        <time>2011-08-15T10:12:32Z</time>
      </trkpt>
      <trkpt lat="50.25425" lon="3.30535">
        <ele>30.8995361</ele>
        <time>2011-08-15T10:12:39Z</time>
      </trkpt>
      <trkpt lat="50.25465" lon="3.3055">
        <ele>31.8607178</ele>
        <time>2011-08-15T10:12:46Z</time>
      </trkpt>
      <trkpt lat="50.25482" lon="3.30551">
        <ele>31.8607178</ele>
        <time>2011-08-15T10:12:49Z</time>
      </trkpt>
      <trkpt lat="50.25494" lon="3.30553">
        <ele>31.8607178</ele>
        <time>2011-08-15T10:12:51Z</time>
      </trkpt>
      <trkpt lat="50.25514" lon="3.30541">
        <ele>31.380127</ele>
        <time>2011-08-15T10:12:55Z</time>
      </trkpt>
      <trkpt lat="50.25518" lon="3.30522">
        <ele>31.380127</ele>
        <time>2011-08-15T10:12:57Z</time>
      </trkpt>
      <trkpt lat="50.25529" lon="3.30454">
        <ele>28.9769287</ele>
        <time>2011-08-15T10:13:05Z</time>
      </trkpt>
      <trkpt lat="50.25532" lon="3.30429">
        <ele>29.4575195</ele>
        <time>2011-08-15T10:13:08Z</time>
      </trkpt>
      <trkpt lat="50.25546" lon="3.30414">
        <ele>29.4575195</ele>
        <time>2011-08-15T10:13:12Z</time>
      </trkpt>
      <trkpt lat="50.2558" lon="3.30407">
        <ele>30.4188232</ele>
        <time>2011-08-15T10:13:18Z</time>
      </trkpt>
      <trkpt lat="50.25602" lon="3.30394">
        <ele>31.380127</ele>
        <time>2011-08-15T10:13:22Z</time>
      </trkpt>
      <trkpt lat="50.25625" lon="3.30384">
        <ele>32.3415527</ele>
        <time>2011-08-15T10:13:26Z</time>
      </trkpt>
      <trkpt lat="50.25649" lon="3.30365">
        <ele>32.3415527</ele>
        <time>2011-08-15T10:13:31Z</time>
      </trkpt>
      <trkpt lat="50.25658" lon="3.3036">
        <ele>32.3415527</ele>
        <time>2011-08-15T10:13:33Z</time>
      </trkpt>
      <trkpt lat="50.25672" lon="3.3035">
        <ele>31.8607178</ele>
        <time>2011-08-15T10:13:36Z</time>
      </trkpt>
      <trkpt lat="50.25707" lon="3.30325">
        <ele>31.380127</ele>
        <time>2011-08-15T10:13:43Z</time>
      </trkpt>
      <trkpt lat="50.25717" lon="3.30317">
        <ele>30.8995361</ele>
        <time>2011-08-15T10:13:45Z</time>
      </trkpt>
      <trkpt lat="50.2576" lon="3.30287">
        <ele>30.8995361</ele>
        <time>2011-08-15T10:13:53Z</time>
      </trkpt>
      <trkpt lat="50.25795" lon="3.30261">
        <ele>28.9769287</ele>
        <time>2011-08-15T10:14:00Z</time>
      </trkpt>
      <trkpt lat="50.25828" lon="3.30238">
        <ele>28.9769287</ele>
        <time>2011-08-15T10:14:06Z</time>
      </trkpt>
      <trkpt lat="50.25863" lon="3.30212">
        <ele>27.5349121</ele>
        <time>2011-08-15T10:14:13Z</time>
      </trkpt>
      <trkpt lat="50.25901" lon="3.30185">
        <ele>26.0928955</ele>
        <time>2011-08-15T10:14:20Z</time>
      </trkpt>
      <trkpt lat="50.25935" lon="3.3016">
        <ele>26.0928955</ele>
        <time>2011-08-15T10:14:26Z</time>
      </trkpt>
      <trkpt lat="50.25968" lon="3.30136">
        <ele>25.6123047</ele>
        <time>2011-08-15T10:14:32Z</time>
      </trkpt>
      <trkpt lat="50.26006" lon="3.30108">
        <ele>26.5736084</ele>
        <time>2011-08-15T10:14:39Z</time>
      </trkpt>
      <trkpt lat="50.26021" lon="3.30098">
        <ele>26.0928955</ele>
        <time>2011-08-15T10:14:42Z</time>
      </trkpt>
      <trkpt lat="50.26063" lon="3.30069">
        <ele>28.0155029</ele>
        <time>2011-08-15T10:14:49Z</time>
      </trkpt>
      <trkpt lat="50.26113" lon="3.30033">
        <ele>29.4575195</ele>
        <time>2011-08-15T10:14:58Z</time>
      </trkpt>
      <trkpt lat="50.2616" lon="3.30013">
        <ele>29.4575195</ele>
        <time>2011-08-15T10:15:06Z</time>
      </trkpt>
      <trkpt lat="50.26222" lon="3.30004">
        <ele>29.4575195</ele>
        <time>2011-08-15T10:15:16Z</time>
      </trkpt>
      <trkpt lat="50.26241" lon="3.30004">
        <ele>29.9381104</ele>
        <time>2011-08-15T10:15:19Z</time>
      </trkpt>
      <trkpt lat="50.26282" lon="3.30013">
        <ele>29.4575195</ele>
        <time>2011-08-15T10:15:26Z</time>
      </trkpt>
      <trkpt lat="50.26324" lon="3.30023">
        <ele>28.9769287</ele>
        <time>2011-08-15T10:15:33Z</time>
      </trkpt>
      <trkpt lat="50.26385" lon="3.3004">
        <ele>28.9769287</ele>
        <time>2011-08-15T10:15:43Z</time>
      </trkpt>
      <trkpt lat="50.26422" lon="3.30052">
        <ele>28.9769287</ele>
        <time>2011-08-15T10:15:49Z</time>
      </trkpt>
      <trkpt lat="50.26482" lon="3.30075">
        <ele>28.4962158</ele>
        <time>2011-08-15T10:15:59Z</time>
      </trkpt>
      <trkpt lat="50.26543" lon="3.30101">
        <ele>28.4962158</ele>
        <time>2011-08-15T10:16:09Z</time>
      </trkpt>
      <trkpt lat="50.26596" lon="3.30127">
        <ele>28.4962158</ele>
        <time>2011-08-15T10:16:18Z</time>
      </trkpt>
      <trkpt lat="50.26628" lon="3.30139">
        <ele>28.9769287</ele>
        <time>2011-08-15T10:16:24Z</time>
      </trkpt>
      <trkpt lat="50.26651" lon="3.30144">
        <ele>30.8995361</ele>
        <time>2011-08-15T10:16:29Z</time>
      </trkpt>
      <trkpt lat="50.26679" lon="3.30161">
        <ele>31.8607178</ele>
        <time>2011-08-15T10:16:35Z</time>
      </trkpt>
      <trkpt lat="50.26713" lon="3.3018">
        <ele>31.380127</ele>
        <time>2011-08-15T10:16:42Z</time>
      </trkpt>
      <trkpt lat="50.26747" lon="3.30201">
        <ele>30.4188232</ele>
        <time>2011-08-15T10:16:49Z</time>
      </trkpt>
      <trkpt lat="50.26782" lon="3.30224">
        <ele>29.9381104</ele>
        <time>2011-08-15T10:16:56Z</time>
      </trkpt>
      <trkpt lat="50.268" lon="3.30239">
        <ele>29.9381104</ele>
        <time>2011-08-15T10:17:00Z</time>
      </trkpt>
      <trkpt lat="50.26816" lon="3.30257">
        <ele>29.4575195</ele>
        <time>2011-08-15T10:17:04Z</time>
      </trkpt>
      <trkpt lat="50.26852" lon="3.30283">
        <ele>28.0155029</ele>
        <time>2011-08-15T10:17:11Z</time>
      </trkpt>
      <trkpt lat="50.26892" lon="3.3031">
        <ele>27.0543213</ele>
        <time>2011-08-15T10:17:19Z</time>
      </trkpt>
      <trkpt lat="50.26904" lon="3.30316">
        <ele>27.0543213</ele>
        <time>2011-08-15T10:17:23Z</time>
      </trkpt>
      <trkpt lat="50.26906" lon="3.30317">
        <ele>27.0543213</ele>
        <time>2011-08-15T10:17:24Z</time>
      </trkpt>
      <trkpt lat="50.26924" lon="3.30327">
        <ele>26.0928955</ele>
        <time>2011-08-15T10:17:29Z</time>
      </trkpt>
      <trkpt lat="50.26954" lon="3.30344">
        <ele>27.0543213</ele>
        <time>2011-08-15T10:17:35Z</time>
      </trkpt>
      <trkpt lat="50.26985" lon="3.30362">
        <ele>28.0155029</ele>
        <time>2011-08-15T10:17:42Z</time>
      </trkpt>
      <trkpt lat="50.27033" lon="3.30393">
        <ele>28.0155029</ele>
        <time>2011-08-15T10:17:52Z</time>
      </trkpt>
      <trkpt lat="50.27061" lon="3.30414">
        <ele>26.0928955</ele>
        <time>2011-08-15T10:17:58Z</time>
      </trkpt>
      <trkpt lat="50.27092" lon="3.30433">
        <ele>26.0928955</ele>
        <time>2011-08-15T10:18:04Z</time>
      </trkpt>
      <trkpt lat="50.27129" lon="3.30456">
        <ele>26.0928955</ele>
        <time>2011-08-15T10:18:11Z</time>
      </trkpt>
      <trkpt lat="50.27176" lon="3.30484">
        <ele>27.0543213</ele>
        <time>2011-08-15T10:18:20Z</time>
      </trkpt>
      <trkpt lat="50.27206" lon="3.30504">
        <ele>27.5349121</ele>
        <time>2011-08-15T10:18:26Z</time>
      </trkpt>
      <trkpt lat="50.27245" lon="3.30526">
        <ele>28.4962158</ele>
        <time>2011-08-15T10:18:33Z</time>
      </trkpt>
      <trkpt lat="50.27295" lon="3.30555">
        <ele>30.4188232</ele>
        <time>2011-08-15T10:18:42Z</time>
      </trkpt>
      <trkpt lat="50.27338" lon="3.30583">
        <ele>28.4962158</ele>
        <time>2011-08-15T10:18:50Z</time>
      </trkpt>
      <trkpt lat="50.27344" lon="3.30586">
        <ele>28.0155029</ele>
        <time>2011-08-15T10:18:51Z</time>
      </trkpt>
      <trkpt lat="50.27376" lon="3.30607">
        <ele>27.0543213</ele>
        <time>2011-08-15T10:18:57Z</time>
      </trkpt>
      <trkpt lat="50.27419" lon="3.30635">
        <ele>26.0928955</ele>
        <time>2011-08-15T10:19:05Z</time>
      </trkpt>
      <trkpt lat="50.27457" lon="3.3066">
        <ele>24.651001</ele>
        <time>2011-08-15T10:19:12Z</time>
      </trkpt>
      <trkpt lat="50.27488" lon="3.30681">
        <ele>23.2089844</ele>
        <time>2011-08-15T10:19:18Z</time>
      </trkpt>
      <trkpt lat="50.27527" lon="3.30703">
        <ele>23.6895752</ele>
        <time>2011-08-15T10:19:25Z</time>
      </trkpt>
      <trkpt lat="50.27576" lon="3.30735">
        <ele>24.651001</ele>
        <time>2011-08-15T10:19:34Z</time>
      </trkpt>
      <trkpt lat="50.27617" lon="3.30763">
        <ele>25.1317139</ele>
        <time>2011-08-15T10:19:42Z</time>
      </trkpt>
      <trkpt lat="50.27664" lon="3.308">
        <ele>25.6123047</ele>
        <time>2011-08-15T10:19:51Z</time>
      </trkpt>
      <trkpt lat="50.27713" lon="3.30843">
        <ele>25.1317139</ele>
        <time>2011-08-15T10:20:01Z</time>
      </trkpt>
      <trkpt lat="50.27753" lon="3.3088">
        <ele>25.1317139</ele>
        <time>2011-08-15T10:20:09Z</time>
      </trkpt>
      <trkpt lat="50.27791" lon="3.30918">
        <ele>25.1317139</ele>
        <time>2011-08-15T10:20:17Z</time>
      </trkpt>
      <trkpt lat="50.27818" lon="3.3095">
        <ele>24.651001</ele>
        <time>2011-08-15T10:20:23Z</time>
      </trkpt>
      <trkpt lat="50.27853" lon="3.30993">
        <ele>24.1702881</ele>
        <time>2011-08-15T10:20:31Z</time>
      </trkpt>
      <trkpt lat="50.27891" lon="3.31045">
        <ele>21.286377</ele>
        <time>2011-08-15T10:20:40Z</time>
      </trkpt>
      <trkpt lat="50.27929" lon="3.31093">
        <ele>22.2475586</ele>
        <time>2011-08-15T10:20:48Z</time>
      </trkpt>
      <trkpt lat="50.27972" lon="3.31158">
        <ele>21.7669678</ele>
        <time>2011-08-15T10:20:58Z</time>
      </trkpt>
      <trkpt lat="50.2802" lon="3.31236">
        <ele>21.286377</ele>
        <time>2011-08-15T10:21:09Z</time>
      </trkpt>
      <trkpt lat="50.28046" lon="3.31279">
        <ele>21.7669678</ele>
        <time>2011-08-15T10:21:15Z</time>
      </trkpt>
      <trkpt lat="50.28072" lon="3.31322">
        <ele>23.2089844</ele>
        <time>2011-08-15T10:21:21Z</time>
      </trkpt>
      <trkpt lat="50.28107" lon="3.31388">
        <ele>24.651001</ele>
        <time>2011-08-15T10:21:30Z</time>
      </trkpt>
      <trkpt lat="50.28135" lon="3.31449">
        <ele>25.6123047</ele>
        <time>2011-08-15T10:21:38Z</time>
      </trkpt>
      <trkpt lat="50.28147" lon="3.31478">
        <ele>25.6123047</ele>
        <time>2011-08-15T10:21:42Z</time>
      </trkpt>
      <trkpt lat="50.28167" lon="3.31528">
        <ele>26.5736084</ele>
        <time>2011-08-15T10:21:49Z</time>
      </trkpt>
      <trkpt lat="50.28183" lon="3.31574">
        <ele>25.1317139</ele>
        <time>2011-08-15T10:21:55Z</time>
      </trkpt>
      <trkpt lat="50.28186" lon="3.31581">
        <ele>25.1317139</ele>
        <time>2011-08-15T10:21:56Z</time>
      </trkpt>
      <trkpt lat="50.28212" lon="3.31654">
        <ele>25.6123047</ele>
        <time>2011-08-15T10:22:05Z</time>
      </trkpt>
      <trkpt lat="50.2823" lon="3.31689">
        <ele>27.5349121</ele>
        <time>2011-08-15T10:22:10Z</time>
      </trkpt>
      <trkpt lat="50.28248" lon="3.31716">
        <ele>28.9769287</ele>
        <time>2011-08-15T10:22:15Z</time>
      </trkpt>
      <trkpt lat="50.28266" lon="3.31763">
        <ele>29.4575195</ele>
        <time>2011-08-15T10:22:22Z</time>
      </trkpt>
      <trkpt lat="50.28288" lon="3.3182">
        <ele>29.9381104</ele>
        <time>2011-08-15T10:22:30Z</time>
      </trkpt>
      <trkpt lat="50.28304" lon="3.31865">
        <ele>28.4962158</ele>
        <time>2011-08-15T10:22:36Z</time>
      </trkpt>
      <trkpt lat="50.28307" lon="3.31899">
        <ele>29.4575195</ele>
        <time>2011-08-15T10:22:41Z</time>
      </trkpt>
      <trkpt lat="50.28308" lon="3.31907">
        <ele>29.4575195</ele>
        <time>2011-08-15T10:22:42Z</time>
      </trkpt>
      <trkpt lat="50.28314" lon="3.31928">
        <ele>29.4575195</ele>
        <time>2011-08-15T10:22:45Z</time>
      </trkpt>
      <trkpt lat="50.28337" lon="3.31992">
        <ele>28.9769287</ele>
        <time>2011-08-15T10:22:54Z</time>
      </trkpt>
      <trkpt lat="50.28362" lon="3.32054">
        <ele>28.9769287</ele>
        <time>2011-08-15T10:23:03Z</time>
      </trkpt>
      <trkpt lat="50.28394" lon="3.32145">
        <ele>28.4962158</ele>
        <time>2011-08-15T10:23:15Z</time>
      </trkpt>
      <trkpt lat="50.28422" lon="3.32235">
        <ele>28.4962158</ele>
        <time>2011-08-15T10:23:26Z</time>
      </trkpt>
      <trkpt lat="50.28443" lon="3.32303">
        <ele>27.5349121</ele>
        <time>2011-08-15T10:23:34Z</time>
      </trkpt>
      <trkpt lat="50.28448" lon="3.3232">
        <ele>27.0543213</ele>
        <time>2011-08-15T10:23:36Z</time>
      </trkpt>
      <trkpt lat="50.2846" lon="3.32347">
        <ele>27.0543213</ele>
        <time>2011-08-15T10:23:40Z</time>
      </trkpt>
      <trkpt lat="50.28472" lon="3.32377">
        <ele>27.0543213</ele>
        <time>2011-08-15T10:23:45Z</time>
      </trkpt>
      <trkpt lat="50.28495" lon="3.32429">
        <ele>25.6123047</ele>
        <time>2011-08-15T10:23:52Z</time>
      </trkpt>
      <trkpt lat="50.28522" lon="3.3249">
        <ele>26.5736084</ele>
        <time>2011-08-15T10:24:00Z</time>
      </trkpt>
      <trkpt lat="50.28547" lon="3.32541">
        <ele>27.5349121</ele>
        <time>2011-08-15T10:24:07Z</time>
      </trkpt>
      <trkpt lat="50.28571" lon="3.32588">
        <ele>26.0928955</ele>
        <time>2011-08-15T10:24:14Z</time>
      </trkpt>
      <trkpt lat="50.286" lon="3.32643">
        <ele>26.0928955</ele>
        <time>2011-08-15T10:24:22Z</time>
      </trkpt>
      <trkpt lat="50.28627" lon="3.32691">
        <ele>26.0928955</ele>
        <time>2011-08-15T10:24:29Z</time>
      </trkpt>
      <trkpt lat="50.28656" lon="3.32738">
        <ele>26.0928955</ele>
        <time>2011-08-15T10:24:36Z</time>
      </trkpt>
      <trkpt lat="50.28703" lon="3.32806">
        <ele>26.0928955</ele>
        <time>2011-08-15T10:24:47Z</time>
      </trkpt>
      <trkpt lat="50.28742" lon="3.32859">
        <ele>26.0928955</ele>
        <time>2011-08-15T10:24:56Z</time>
      </trkpt>
      <trkpt lat="50.28784" lon="3.32919">
        <ele>25.6123047</ele>
        <time>2011-08-15T10:25:06Z</time>
      </trkpt>
      <trkpt lat="50.28796" lon="3.32946">
        <ele>27.0543213</ele>
        <time>2011-08-15T10:25:10Z</time>
      </trkpt>
      <trkpt lat="50.28822" lon="3.32984">
        <ele>27.0543213</ele>
        <time>2011-08-15T10:25:17Z</time>
      </trkpt>
      <trkpt lat="50.28846" lon="3.33021">
        <ele>26.5736084</ele>
        <time>2011-08-15T10:25:24Z</time>
      </trkpt>
      <trkpt lat="50.28852" lon="3.3303">
        <ele>27.0543213</ele>
        <time>2011-08-15T10:25:26Z</time>
      </trkpt>
      <trkpt lat="50.28863" lon="3.33048">
        <ele>27.0543213</ele>
        <time>2011-08-15T10:25:32Z</time>
      </trkpt>
      <trkpt lat="50.28863" lon="3.33048">
        <ele>27.0543213</ele>
        <time>2011-08-15T10:25:34Z</time>
      </trkpt>
      <trkpt lat="50.28873" lon="3.33047">
        <ele>28.0155029</ele>
        <time>2011-08-15T10:26:32Z</time>
      </trkpt>
      <trkpt lat="50.28884" lon="3.33056">
        <ele>27.0543213</ele>
        <time>2011-08-15T10:26:35Z</time>
      </trkpt>
      <trkpt lat="50.28901" lon="3.33079">
        <ele>26.5736084</ele>
        <time>2011-08-15T10:26:41Z</time>
      </trkpt>
      <trkpt lat="50.28929" lon="3.33119">
        <ele>27.5349121</ele>
        <time>2011-08-15T10:26:50Z</time>
      </trkpt>
      <trkpt lat="50.28957" lon="3.33157">
        <ele>27.5349121</ele>
        <time>2011-08-15T10:26:58Z</time>
      </trkpt>
      <trkpt lat="50.28996" lon="3.3321">
        <ele>28.4962158</ele>
        <time>2011-08-15T10:27:08Z</time>
      </trkpt>
      <trkpt lat="50.29031" lon="3.33258">
        <ele>28.4962158</ele>
        <time>2011-08-15T10:27:17Z</time>
      </trkpt>
      <trkpt lat="50.2907" lon="3.33313">
        <ele>27.5349121</ele>
        <time>2011-08-15T10:27:27Z</time>
      </trkpt>
      <trkpt lat="50.29098" lon="3.33351">
        <ele>27.0543213</ele>
        <time>2011-08-15T10:27:34Z</time>
      </trkpt>
      <trkpt lat="50.29126" lon="3.3339">
        <ele>26.5736084</ele>
        <time>2011-08-15T10:27:41Z</time>
      </trkpt>
      <trkpt lat="50.29153" lon="3.33428">
        <ele>26.5736084</ele>
        <time>2011-08-15T10:27:48Z</time>
      </trkpt>
      <trkpt lat="50.2919" lon="3.33477">
        <ele>26.5736084</ele>
        <time>2011-08-15T10:27:57Z</time>
      </trkpt>
      <trkpt lat="50.29236" lon="3.33539">
        <ele>27.0543213</ele>
        <time>2011-08-15T10:28:08Z</time>
      </trkpt>
      <trkpt lat="50.29258" lon="3.33574">
        <ele>27.0543213</ele>
        <time>2011-08-15T10:28:14Z</time>
      </trkpt>
      <trkpt lat="50.29277" lon="3.33607">
        <ele>27.0543213</ele>
        <time>2011-08-15T10:28:20Z</time>
      </trkpt>
      <trkpt lat="50.29317" lon="3.33657">
        <ele>28.0155029</ele>
        <time>2011-08-15T10:28:30Z</time>
      </trkpt>
      <trkpt lat="50.2934" lon="3.33683">
        <ele>27.0543213</ele>
        <time>2011-08-15T10:28:35Z</time>
      </trkpt>
      <trkpt lat="50.29372" lon="3.33724">
        <ele>26.5736084</ele>
        <time>2011-08-15T10:28:42Z</time>
      </trkpt>
      <trkpt lat="50.29419" lon="3.33788">
        <ele>27.0543213</ele>
        <time>2011-08-15T10:28:53Z</time>
      </trkpt>
      <trkpt lat="50.29462" lon="3.33848">
        <ele>26.5736084</ele>
        <time>2011-08-15T10:29:03Z</time>
      </trkpt>
      <trkpt lat="50.29509" lon="3.33912">
        <ele>26.5736084</ele>
        <time>2011-08-15T10:29:14Z</time>
      </trkpt>
      <trkpt lat="50.29557" lon="3.33978">
        <ele>26.0928955</ele>
        <time>2011-08-15T10:29:25Z</time>
      </trkpt>
      <trkpt lat="50.29605" lon="3.34046">
        <ele>26.0928955</ele>
        <time>2011-08-15T10:29:36Z</time>
      </trkpt>
      <trkpt lat="50.2965" lon="3.34115">
        <ele>26.0928955</ele>
        <time>2011-08-15T10:29:47Z</time>
      </trkpt>
      <trkpt lat="50.29693" lon="3.34188">
        <ele>26.5736084</ele>
        <time>2011-08-15T10:29:58Z</time>
      </trkpt>
      <trkpt lat="50.29733" lon="3.34265">
        <ele>25.6123047</ele>
        <time>2011-08-15T10:30:09Z</time>
      </trkpt>
      <trkpt lat="50.2976" lon="3.34315">
        <ele>26.5736084</ele>
        <time>2011-08-15T10:30:17Z</time>
      </trkpt>
      <trkpt lat="50.29763" lon="3.34321">
        <ele>26.5736084</ele>
        <time>2011-08-15T10:30:18Z</time>
      </trkpt>
      <trkpt lat="50.29772" lon="3.34337">
        <ele>25.6123047</ele>
        <time>2011-08-15T10:30:21Z</time>
      </trkpt>
      <trkpt lat="50.29796" lon="3.34394">
        <ele>26.5736084</ele>
        <time>2011-08-15T10:30:29Z</time>
      </trkpt>
      <trkpt lat="50.29803" lon="3.34425">
        <ele>26.5736084</ele>
        <time>2011-08-15T10:30:33Z</time>
      </trkpt>
      <trkpt lat="50.29824" lon="3.34474">
        <ele>27.5349121</ele>
        <time>2011-08-15T10:30:40Z</time>
      </trkpt>
      <trkpt lat="50.2984" lon="3.34508">
        <ele>27.5349121</ele>
        <time>2011-08-15T10:30:45Z</time>
      </trkpt>
      <trkpt lat="50.29866" lon="3.34552">
        <ele>26.5736084</ele>
        <time>2011-08-15T10:30:52Z</time>
      </trkpt>
      <trkpt lat="50.29896" lon="3.34602">
        <ele>26.0928955</ele>
        <time>2011-08-15T10:31:00Z</time>
      </trkpt>
      <trkpt lat="50.29922" lon="3.34642">
        <ele>26.0928955</ele>
        <time>2011-08-15T10:31:07Z</time>
      </trkpt>
      <trkpt lat="50.2995" lon="3.34692">
        <ele>25.6123047</ele>
        <time>2011-08-15T10:31:15Z</time>
      </trkpt>
      <trkpt lat="50.29971" lon="3.34732">
        <ele>25.1317139</ele>
        <time>2011-08-15T10:31:21Z</time>
      </trkpt>
      <trkpt lat="50.29997" lon="3.34777">
        <ele>25.1317139</ele>
        <time>2011-08-15T10:31:28Z</time>
      </trkpt>
      <trkpt lat="50.30028" lon="3.34828">
        <ele>25.1317139</ele>
        <time>2011-08-15T10:31:36Z</time>
      </trkpt>
      <trkpt lat="50.30047" lon="3.3486">
        <ele>25.1317139</ele>
        <time>2011-08-15T10:31:41Z</time>
      </trkpt>
      <trkpt lat="50.30075" lon="3.34906">
        <ele>24.1702881</ele>
        <time>2011-08-15T10:31:48Z</time>
      </trkpt>
      <trkpt lat="50.30119" lon="3.34977">
        <ele>23.6895752</ele>
        <time>2011-08-15T10:31:59Z</time>
      </trkpt>
      <trkpt lat="50.30123" lon="3.34983">
        <ele>23.6895752</ele>
        <time>2011-08-15T10:32:00Z</time>
      </trkpt>
      <trkpt lat="50.30145" lon="3.35018">
        <ele>24.1702881</ele>
        <time>2011-08-15T10:32:06Z</time>
      </trkpt>
      <trkpt lat="50.30152" lon="3.35028">
        <ele>24.651001</ele>
        <time>2011-08-15T10:32:08Z</time>
      </trkpt>
      <trkpt lat="50.30163" lon="3.35051">
        <ele>24.651001</ele>
        <time>2011-08-15T10:32:12Z</time>
      </trkpt>
      <trkpt lat="50.30191" lon="3.35097">
        <ele>24.1702881</ele>
        <time>2011-08-15T10:32:19Z</time>
      </trkpt>
      <trkpt lat="50.30226" lon="3.35157">
        <ele>23.6895752</ele>
        <time>2011-08-15T10:32:28Z</time>
      </trkpt>
      <trkpt lat="50.30259" lon="3.35218">
        <ele>23.2089844</ele>
        <time>2011-08-15T10:32:37Z</time>
      </trkpt>
      <trkpt lat="50.30287" lon="3.35263">
        <ele>22.2475586</ele>
        <time>2011-08-15T10:32:44Z</time>
      </trkpt>
      <trkpt lat="50.30312" lon="3.35301">
        <ele>23.6895752</ele>
        <time>2011-08-15T10:32:50Z</time>
      </trkpt>
      <trkpt lat="50.30344" lon="3.35352">
        <ele>24.1702881</ele>
        <time>2011-08-15T10:32:58Z</time>
      </trkpt>
      <trkpt lat="50.30374" lon="3.35404">
        <ele>23.6895752</ele>
        <time>2011-08-15T10:33:06Z</time>
      </trkpt>
      <trkpt lat="50.3041" lon="3.35463">
        <ele>23.6895752</ele>
        <time>2011-08-15T10:33:15Z</time>
      </trkpt>
      <trkpt lat="50.30452" lon="3.35533">
        <ele>23.2089844</ele>
        <time>2011-08-15T10:33:25Z</time>
      </trkpt>
      <trkpt lat="50.30489" lon="3.35594">
        <ele>22.2475586</ele>
        <time>2011-08-15T10:33:34Z</time>
      </trkpt>
      <trkpt lat="50.30504" lon="3.35621">
        <ele>20.3249512</ele>
        <time>2011-08-15T10:33:38Z</time>
      </trkpt>
      <trkpt lat="50.30533" lon="3.3567">
        <ele>18.8830566</ele>
        <time>2011-08-15T10:33:45Z</time>
      </trkpt>
      <trkpt lat="50.30559" lon="3.35713">
        <ele>20.3249512</ele>
        <time>2011-08-15T10:33:51Z</time>
      </trkpt>
      <trkpt lat="50.30587" lon="3.35766">
        <ele>20.8056641</ele>
        <time>2011-08-15T10:33:58Z</time>
      </trkpt>
      <trkpt lat="50.30595" lon="3.35781">
        <ele>20.3249512</ele>
        <time>2011-08-15T10:34:00Z</time>
      </trkpt>
      <trkpt lat="50.30608" lon="3.3581">
        <ele>21.286377</ele>
        <time>2011-08-15T10:34:04Z</time>
      </trkpt>
      <trkpt lat="50.30635" lon="3.35853">
        <ele>24.1702881</ele>
        <time>2011-08-15T10:34:10Z</time>
      </trkpt>
      <trkpt lat="50.3066" lon="3.35901">
        <ele>25.6123047</ele>
        <time>2011-08-15T10:34:16Z</time>
      </trkpt>
      <trkpt lat="50.30684" lon="3.35953">
        <ele>24.651001</ele>
        <time>2011-08-15T10:34:23Z</time>
      </trkpt>
      <trkpt lat="50.30717" lon="3.36031">
        <ele>24.1702881</ele>
        <time>2011-08-15T10:34:33Z</time>
      </trkpt>
      <trkpt lat="50.30742" lon="3.36095">
        <ele>23.6895752</ele>
        <time>2011-08-15T10:34:41Z</time>
      </trkpt>
      <trkpt lat="50.30764" lon="3.36152">
        <ele>23.6895752</ele>
        <time>2011-08-15T10:34:48Z</time>
      </trkpt>
      <trkpt lat="50.30786" lon="3.36209">
        <ele>24.1702881</ele>
        <time>2011-08-15T10:34:55Z</time>
      </trkpt>
      <trkpt lat="50.30809" lon="3.36277">
        <ele>24.1702881</ele>
        <time>2011-08-15T10:35:03Z</time>
      </trkpt>
      <trkpt lat="50.30843" lon="3.36384">
        <ele>24.651001</ele>
        <time>2011-08-15T10:35:15Z</time>
      </trkpt>
      <trkpt lat="50.30868" lon="3.36471">
        <ele>22.7282715</ele>
        <time>2011-08-15T10:35:25Z</time>
      </trkpt>
      <trkpt lat="50.30893" lon="3.36549">
        <ele>24.1702881</ele>
        <time>2011-08-15T10:35:34Z</time>
      </trkpt>
      <trkpt lat="50.30914" lon="3.36629">
        <ele>23.2089844</ele>
        <time>2011-08-15T10:35:43Z</time>
      </trkpt>
      <trkpt lat="50.30918" lon="3.36636">
        <ele>23.6895752</ele>
        <time>2011-08-15T10:35:44Z</time>
      </trkpt>
      <trkpt lat="50.30955" lon="3.367">
        <ele>23.6895752</ele>
        <time>2011-08-15T10:35:53Z</time>
      </trkpt>
      <trkpt lat="50.30963" lon="3.36714">
        <ele>24.1702881</ele>
        <time>2011-08-15T10:35:55Z</time>
      </trkpt>
      <trkpt lat="50.30979" lon="3.36752">
        <ele>24.651001</ele>
        <time>2011-08-15T10:36:00Z</time>
      </trkpt>
      <trkpt lat="50.30982" lon="3.36785">
        <ele>25.1317139</ele>
        <time>2011-08-15T10:36:04Z</time>
      </trkpt>
      <trkpt lat="50.3098" lon="3.36803">
        <ele>25.6123047</ele>
        <time>2011-08-15T10:36:06Z</time>
      </trkpt>
      <trkpt lat="50.30987" lon="3.36849">
        <ele>26.5736084</ele>
        <time>2011-08-15T10:36:11Z</time>
      </trkpt>
      <trkpt lat="50.30996" lon="3.36913">
        <ele>26.5736084</ele>
        <time>2011-08-15T10:36:18Z</time>
      </trkpt>
      <trkpt lat="50.31015" lon="3.36996">
        <ele>26.5736084</ele>
        <time>2011-08-15T10:36:27Z</time>
      </trkpt>
      <trkpt lat="50.31028" lon="3.37061">
        <ele>27.0543213</ele>
        <time>2011-08-15T10:36:34Z</time>
      </trkpt>
      <trkpt lat="50.31043" lon="3.37129">
        <ele>27.5349121</ele>
        <time>2011-08-15T10:36:41Z</time>
      </trkpt>
      <trkpt lat="50.31049" lon="3.37167">
        <ele>28.0155029</ele>
        <time>2011-08-15T10:36:45Z</time>
      </trkpt>
      <trkpt lat="50.31059" lon="3.37211">
        <ele>28.4962158</ele>
        <time>2011-08-15T10:36:49Z</time>
      </trkpt>
      <trkpt lat="50.3106" lon="3.37221">
        <ele>28.4962158</ele>
        <time>2011-08-15T10:36:50Z</time>
      </trkpt>
      <trkpt lat="50.31068" lon="3.37249">
        <ele>28.4962158</ele>
        <time>2011-08-15T10:36:53Z</time>
      </trkpt>
      <trkpt lat="50.31084" lon="3.37329">
        <ele>28.0155029</ele>
        <time>2011-08-15T10:37:01Z</time>
      </trkpt>
      <trkpt lat="50.31109" lon="3.37427">
        <ele>28.9769287</ele>
        <time>2011-08-15T10:37:11Z</time>
      </trkpt>
      <trkpt lat="50.31131" lon="3.37506">
        <ele>28.4962158</ele>
        <time>2011-08-15T10:37:19Z</time>
      </trkpt>
      <trkpt lat="50.31158" lon="3.37593">
        <ele>28.0155029</ele>
        <time>2011-08-15T10:37:28Z</time>
      </trkpt>
      <trkpt lat="50.31186" lon="3.37677">
        <ele>28.0155029</ele>
        <time>2011-08-15T10:37:37Z</time>
      </trkpt>
      <trkpt lat="50.31194" lon="3.37694">
        <ele>27.5349121</ele>
        <time>2011-08-15T10:37:39Z</time>
      </trkpt>
      <trkpt lat="50.31219" lon="3.37742">
        <ele>27.5349121</ele>
        <time>2011-08-15T10:37:45Z</time>
      </trkpt>
      <trkpt lat="50.31248" lon="3.37813">
        <ele>27.5349121</ele>
        <time>2011-08-15T10:37:53Z</time>
      </trkpt>
      <trkpt lat="50.31274" lon="3.3787">
        <ele>27.0543213</ele>
        <time>2011-08-15T10:38:00Z</time>
      </trkpt>
      <trkpt lat="50.3131" lon="3.37944">
        <ele>26.5736084</ele>
        <time>2011-08-15T10:38:09Z</time>
      </trkpt>
      <trkpt lat="50.31335" lon="3.37994">
        <ele>27.0543213</ele>
        <time>2011-08-15T10:38:15Z</time>
      </trkpt>
      <trkpt lat="50.31371" lon="3.38055">
        <ele>26.5736084</ele>
        <time>2011-08-15T10:38:23Z</time>
      </trkpt>
      <trkpt lat="50.31404" lon="3.38113">
        <ele>26.0928955</ele>
        <time>2011-08-15T10:38:31Z</time>
      </trkpt>
      <trkpt lat="50.31435" lon="3.38161">
        <ele>26.5736084</ele>
        <time>2011-08-15T10:38:38Z</time>
      </trkpt>
      <trkpt lat="50.31444" lon="3.38175">
        <ele>26.0928955</ele>
        <time>2011-08-15T10:38:40Z</time>
      </trkpt>
      <trkpt lat="50.31459" lon="3.38208">
        <ele>26.5736084</ele>
        <time>2011-08-15T10:38:44Z</time>
      </trkpt>
      <trkpt lat="50.31495" lon="3.38267">
        <ele>25.6123047</ele>
        <time>2011-08-15T10:38:52Z</time>
      </trkpt>
      <trkpt lat="50.31541" lon="3.38338">
        <ele>27.0543213</ele>
        <time>2011-08-15T10:39:02Z</time>
      </trkpt>
      <trkpt lat="50.31591" lon="3.38415">
        <ele>27.0543213</ele>
        <time>2011-08-15T10:39:13Z</time>
      </trkpt>
      <trkpt lat="50.31638" lon="3.38497">
        <ele>26.0928955</ele>
        <time>2011-08-15T10:39:24Z</time>
      </trkpt>
      <trkpt lat="50.31666" lon="3.3855">
        <ele>26.5736084</ele>
        <time>2011-08-15T10:39:31Z</time>
      </trkpt>
      <trkpt lat="50.31687" lon="3.38595">
        <ele>27.0543213</ele>
        <time>2011-08-15T10:39:37Z</time>
      </trkpt>
      <trkpt lat="50.31707" lon="3.38639">
        <ele>26.5736084</ele>
        <time>2011-08-15T10:39:43Z</time>
      </trkpt>
      <trkpt lat="50.31723" lon="3.38689">
        <ele>26.0928955</ele>
        <time>2011-08-15T10:39:50Z</time>
      </trkpt>
      <trkpt lat="50.31738" lon="3.38727">
        <ele>25.1317139</ele>
        <time>2011-08-15T10:39:56Z</time>
      </trkpt>
      <trkpt lat="50.31757" lon="3.38783">
        <ele>25.1317139</ele>
        <time>2011-08-15T10:40:03Z</time>
      </trkpt>
      <trkpt lat="50.3176" lon="3.38791">
        <ele>25.1317139</ele>
        <time>2011-08-15T10:40:04Z</time>
      </trkpt>
      <trkpt lat="50.31768" lon="3.38817">
        <ele>25.6123047</ele>
        <time>2011-08-15T10:40:07Z</time>
      </trkpt>
      <trkpt lat="50.31779" lon="3.38869">
        <ele>26.5736084</ele>
        <time>2011-08-15T10:40:13Z</time>
      </trkpt>
      <trkpt lat="50.31787" lon="3.38893">
        <ele>26.5736084</ele>
        <time>2011-08-15T10:40:16Z</time>
      </trkpt>
      <trkpt lat="50.318" lon="3.38946">
        <ele>26.5736084</ele>
        <time>2011-08-15T10:40:22Z</time>
      </trkpt>
      <trkpt lat="50.31812" lon="3.39">
        <ele>26.5736084</ele>
        <time>2011-08-15T10:40:28Z</time>
      </trkpt>
      <trkpt lat="50.31826" lon="3.39053">
        <ele>26.5736084</ele>
        <time>2011-08-15T10:40:34Z</time>
      </trkpt>
      <trkpt lat="50.3183" lon="3.39097">
        <ele>27.5349121</ele>
        <time>2011-08-15T10:40:39Z</time>
      </trkpt>
      <trkpt lat="50.31842" lon="3.39119">
        <ele>26.5736084</ele>
        <time>2011-08-15T10:40:42Z</time>
      </trkpt>
      <trkpt lat="50.31859" lon="3.39154">
        <ele>26.0928955</ele>
        <time>2011-08-15T10:40:46Z</time>
      </trkpt>
      <trkpt lat="50.31867" lon="3.39181">
        <ele>26.0928955</ele>
        <time>2011-08-15T10:40:49Z</time>
      </trkpt>
      <trkpt lat="50.31875" lon="3.39207">
        <ele>25.6123047</ele>
        <time>2011-08-15T10:40:52Z</time>
      </trkpt>
      <trkpt lat="50.31878" lon="3.39224">
        <ele>25.1317139</ele>
        <time>2011-08-15T10:40:54Z</time>
      </trkpt>
      <trkpt lat="50.31881" lon="3.39251">
        <ele>26.0928955</ele>
        <time>2011-08-15T10:40:58Z</time>
      </trkpt>
      <trkpt lat="50.31905" lon="3.39342">
        <ele>27.0543213</ele>
        <time>2011-08-15T10:41:10Z</time>
      </trkpt>
      <trkpt lat="50.3192" lon="3.39405">
        <ele>27.5349121</ele>
        <time>2011-08-15T10:41:18Z</time>
      </trkpt>
      <trkpt lat="50.3194" lon="3.39483">
        <ele>27.5349121</ele>
        <time>2011-08-15T10:41:28Z</time>
      </trkpt>
      <trkpt lat="50.31949" lon="3.39529">
        <ele>27.5349121</ele>
        <time>2011-08-15T10:41:34Z</time>
      </trkpt>
      <trkpt lat="50.31949" lon="3.39563">
        <ele>28.9769287</ele>
        <time>2011-08-15T10:41:39Z</time>
      </trkpt>
      <trkpt lat="50.31953" lon="3.39574">
        <ele>28.9769287</ele>
        <time>2011-08-15T10:41:43Z</time>
      </trkpt>
      <trkpt lat="50.3196" lon="3.39577">
        <ele>29.4575195</ele>
        <time>2011-08-15T10:41:48Z</time>
      </trkpt>
      <trkpt lat="50.31967" lon="3.39582">
        <ele>29.4575195</ele>
        <time>2011-08-15T10:41:52Z</time>
      </trkpt>
      <trkpt lat="50.31977" lon="3.39578">
        <ele>29.4575195</ele>
        <time>2011-08-15T10:41:56Z</time>
      </trkpt>
      <trkpt lat="50.3199" lon="3.39577">
        <ele>29.4575195</ele>
        <time>2011-08-15T10:42:00Z</time>
      </trkpt>
      <trkpt lat="50.32023" lon="3.39557">
        <ele>28.9769287</ele>
        <time>2011-08-15T10:42:08Z</time>
      </trkpt>
      <trkpt lat="50.32035" lon="3.39563">
        <ele>28.0155029</ele>
        <time>2011-08-15T10:42:12Z</time>
      </trkpt>
      <trkpt lat="50.32036" lon="3.3959">
        <ele>26.5736084</ele>
        <time>2011-08-15T10:42:15Z</time>
      </trkpt>
      <trkpt lat="50.32038" lon="3.3961">
        <ele>26.0928955</ele>
        <time>2011-08-15T10:42:17Z</time>
      </trkpt>
      <trkpt lat="50.32048" lon="3.39668">
        <ele>26.5736084</ele>
        <time>2011-08-15T10:42:23Z</time>
      </trkpt>
      <trkpt lat="50.32048" lon="3.39679">
        <ele>27.0543213</ele>
        <time>2011-08-15T10:42:24Z</time>
      </trkpt>
      <trkpt lat="50.32053" lon="3.3969">
        <ele>26.5736084</ele>
        <time>2011-08-15T10:42:26Z</time>
      </trkpt>
      <trkpt lat="50.32059" lon="3.39712">
        <ele>26.0928955</ele>
        <time>2011-08-15T10:42:29Z</time>
      </trkpt>
      <trkpt lat="50.3207" lon="3.39758">
        <ele>25.6123047</ele>
        <time>2011-08-15T10:42:35Z</time>
      </trkpt>
      <trkpt lat="50.32089" lon="3.3983">
        <ele>25.6123047</ele>
        <time>2011-08-15T10:42:44Z</time>
      </trkpt>
      <trkpt lat="50.32102" lon="3.39878">
        <ele>25.6123047</ele>
        <time>2011-08-15T10:42:50Z</time>
      </trkpt>
      <trkpt lat="50.32107" lon="3.39902">
        <ele>26.0928955</ele>
        <time>2011-08-15T10:42:53Z</time>
      </trkpt>
      <trkpt lat="50.32111" lon="3.39937">
        <ele>26.5736084</ele>
        <time>2011-08-15T10:42:57Z</time>
      </trkpt>
      <trkpt lat="50.32116" lon="3.39963">
        <ele>28.0155029</ele>
        <time>2011-08-15T10:43:00Z</time>
      </trkpt>
      <trkpt lat="50.32128" lon="3.40002">
        <ele>26.0928955</ele>
        <time>2011-08-15T10:43:05Z</time>
      </trkpt>
      <trkpt lat="50.32133" lon="3.40021">
        <ele>26.0928955</ele>
        <time>2011-08-15T10:43:08Z</time>
      </trkpt>
      <trkpt lat="50.32139" lon="3.4005">
        <ele>26.0928955</ele>
        <time>2011-08-15T10:43:12Z</time>
      </trkpt>
      <trkpt lat="50.32151" lon="3.40088">
        <ele>26.5736084</ele>
        <time>2011-08-15T10:43:17Z</time>
      </trkpt>
      <trkpt lat="50.3216" lon="3.40128">
        <ele>27.5349121</ele>
        <time>2011-08-15T10:43:22Z</time>
      </trkpt>
      <trkpt lat="50.32167" lon="3.40161">
        <ele>27.5349121</ele>
        <time>2011-08-15T10:43:26Z</time>
      </trkpt>
      <trkpt lat="50.32186" lon="3.40239">
        <ele>27.5349121</ele>
        <time>2011-08-15T10:43:35Z</time>
      </trkpt>
      <trkpt lat="50.32203" lon="3.4031">
        <ele>26.5736084</ele>
        <time>2011-08-15T10:43:43Z</time>
      </trkpt>
      <trkpt lat="50.32217" lon="3.40382">
        <ele>26.5736084</ele>
        <time>2011-08-15T10:43:51Z</time>
      </trkpt>
      <trkpt lat="50.32229" lon="3.40446">
        <ele>26.5736084</ele>
        <time>2011-08-15T10:43:58Z</time>
      </trkpt>
      <trkpt lat="50.32236" lon="3.4049">
        <ele>27.0543213</ele>
        <time>2011-08-15T10:44:03Z</time>
      </trkpt>
      <trkpt lat="50.32238" lon="3.405">
        <ele>27.5349121</ele>
        <time>2011-08-15T10:44:04Z</time>
      </trkpt>
      <trkpt lat="50.32248" lon="3.40554">
        <ele>28.0155029</ele>
        <time>2011-08-15T10:44:10Z</time>
      </trkpt>
      <trkpt lat="50.32255" lon="3.40606">
        <ele>28.4962158</ele>
        <time>2011-08-15T10:44:16Z</time>
      </trkpt>
      <trkpt lat="50.32259" lon="3.40624">
        <ele>28.0155029</ele>
        <time>2011-08-15T10:44:18Z</time>
      </trkpt>
      <trkpt lat="50.3227" lon="3.40696">
        <ele>29.9381104</ele>
        <time>2011-08-15T10:44:26Z</time>
      </trkpt>
      <trkpt lat="50.3228" lon="3.40724">
        <ele>31.380127</ele>
        <time>2011-08-15T10:44:31Z</time>
      </trkpt>
      <trkpt lat="50.32287" lon="3.40721">
        <ele>31.380127</ele>
        <time>2011-08-15T10:44:34Z</time>
      </trkpt>
      <trkpt lat="50.32293" lon="3.40715">
        <ele>31.380127</ele>
        <time>2011-08-15T10:44:36Z</time>
      </trkpt>
      <trkpt lat="50.32312" lon="3.4068">
        <ele>30.4188232</ele>
        <time>2011-08-15T10:44:43Z</time>
      </trkpt>
      <trkpt lat="50.32323" lon="3.40657">
        <ele>30.8995361</ele>
        <time>2011-08-15T10:44:47Z</time>
      </trkpt>
      <trkpt lat="50.32338" lon="3.40635">
        <ele>32.8222656</ele>
        <time>2011-08-15T10:44:51Z</time>
      </trkpt>
      <trkpt lat="50.32367" lon="3.40612">
        <ele>33.7834473</ele>
        <time>2011-08-15T10:44:57Z</time>
      </trkpt>
      <trkpt lat="50.3241" lon="3.40595">
        <ele>34.2641602</ele>
        <time>2011-08-15T10:45:05Z</time>
      </trkpt>
      <trkpt lat="50.32458" lon="3.40574">
        <ele>33.3028564</ele>
        <time>2011-08-15T10:45:14Z</time>
      </trkpt>
      <trkpt lat="50.32504" lon="3.4054">
        <ele>31.8607178</ele>
        <time>2011-08-15T10:45:23Z</time>
      </trkpt>
      <trkpt lat="50.32526" lon="3.40523">
        <ele>29.9381104</ele>
        <time>2011-08-15T10:45:28Z</time>
      </trkpt>
      <trkpt lat="50.32542" lon="3.40526">
        <ele>28.4962158</ele>
        <time>2011-08-15T10:45:31Z</time>
      </trkpt>
      <trkpt lat="50.32544" lon="3.40559">
        <ele>27.5349121</ele>
        <time>2011-08-15T10:45:35Z</time>
      </trkpt>
      <trkpt lat="50.32555" lon="3.40621">
        <ele>27.0543213</ele>
        <time>2011-08-15T10:45:42Z</time>
      </trkpt>
      <trkpt lat="50.32574" lon="3.407">
        <ele>26.0928955</ele>
        <time>2011-08-15T10:45:51Z</time>
      </trkpt>
      <trkpt lat="50.32587" lon="3.40755">
        <ele>25.6123047</ele>
        <time>2011-08-15T10:45:58Z</time>
      </trkpt>
      <trkpt lat="50.32589" lon="3.40762">
        <ele>25.6123047</ele>
        <time>2011-08-15T10:45:59Z</time>
      </trkpt>
      <trkpt lat="50.32592" lon="3.40776">
        <ele>25.6123047</ele>
        <time>2011-08-15T10:46:01Z</time>
      </trkpt>
      <trkpt lat="50.32606" lon="3.40787">
        <ele>25.6123047</ele>
        <time>2011-08-15T10:46:05Z</time>
      </trkpt>
      <trkpt lat="50.32632" lon="3.40779">
        <ele>25.1317139</ele>
        <time>2011-08-15T10:46:10Z</time>
      </trkpt>
      <trkpt lat="50.32641" lon="3.4077">
        <ele>24.1702881</ele>
        <time>2011-08-15T10:46:12Z</time>
      </trkpt>
      <trkpt lat="50.3265" lon="3.4076">
        <ele>24.1702881</ele>
        <time>2011-08-15T10:46:14Z</time>
      </trkpt>
      <trkpt lat="50.32669" lon="3.40749">
        <ele>24.1702881</ele>
        <time>2011-08-15T10:46:18Z</time>
      </trkpt>
      <trkpt lat="50.32679" lon="3.40741">
        <ele>24.1702881</ele>
        <time>2011-08-15T10:46:20Z</time>
      </trkpt>
      <trkpt lat="50.32709" lon="3.40705">
        <ele>25.6123047</ele>
        <time>2011-08-15T10:46:27Z</time>
      </trkpt>
      <trkpt lat="50.32741" lon="3.40669">
        <ele>26.5736084</ele>
        <time>2011-08-15T10:46:34Z</time>
      </trkpt>
      <trkpt lat="50.32784" lon="3.40621">
        <ele>28.0155029</ele>
        <time>2011-08-15T10:46:43Z</time>
      </trkpt>
      <trkpt lat="50.32818" lon="3.40592">
        <ele>29.9381104</ele>
        <time>2011-08-15T10:46:50Z</time>
      </trkpt>
      <trkpt lat="50.3285" lon="3.40577">
        <ele>31.380127</ele>
        <time>2011-08-15T10:46:56Z</time>
      </trkpt>
      <trkpt lat="50.32859" lon="3.40573">
        <ele>31.380127</ele>
        <time>2011-08-15T10:46:58Z</time>
      </trkpt>
      <trkpt lat="50.32901" lon="3.40556">
        <ele>30.8995361</ele>
        <time>2011-08-15T10:47:07Z</time>
      </trkpt>
      <trkpt lat="50.32905" lon="3.40554">
        <ele>31.380127</ele>
        <time>2011-08-15T10:47:08Z</time>
      </trkpt>
      <trkpt lat="50.32912" lon="3.40555">
        <ele>30.4188232</ele>
        <time>2011-08-15T10:47:13Z</time>
      </trkpt>
      <trkpt lat="50.32917" lon="3.40562">
        <ele>29.4575195</ele>
        <time>2011-08-15T10:47:23Z</time>
      </trkpt>
      <trkpt lat="50.32919" lon="3.40582">
        <ele>28.0155029</ele>
        <time>2011-08-15T10:47:26Z</time>
      </trkpt>
      <trkpt lat="50.32923" lon="3.40628">
        <ele>27.5349121</ele>
        <time>2011-08-15T10:47:32Z</time>
      </trkpt>
      <trkpt lat="50.32931" lon="3.40691">
        <ele>27.0543213</ele>
        <time>2011-08-15T10:47:39Z</time>
      </trkpt>
      <trkpt lat="50.32945" lon="3.40782">
        <ele>26.5736084</ele>
        <time>2011-08-15T10:47:48Z</time>
      </trkpt>
      <trkpt lat="50.32961" lon="3.40863">
        <ele>28.4962158</ele>
        <time>2011-08-15T10:47:56Z</time>
      </trkpt>
      <trkpt lat="50.3297" lon="3.40936">
        <ele>28.0155029</ele>
        <time>2011-08-15T10:48:03Z</time>
      </trkpt>
      <trkpt lat="50.32982" lon="3.40987">
        <ele>28.0155029</ele>
        <time>2011-08-15T10:48:08Z</time>
      </trkpt>
      <trkpt lat="50.33009" lon="3.41099">
        <ele>27.5349121</ele>
        <time>2011-08-15T10:48:19Z</time>
      </trkpt>
      <trkpt lat="50.33038" lon="3.41198">
        <ele>28.0155029</ele>
        <time>2011-08-15T10:48:29Z</time>
      </trkpt>
      <trkpt lat="50.3306" lon="3.41278">
        <ele>27.0543213</ele>
        <time>2011-08-15T10:48:37Z</time>
      </trkpt>
      <trkpt lat="50.33068" lon="3.4132">
        <ele>27.0543213</ele>
        <time>2011-08-15T10:48:42Z</time>
      </trkpt>
      <trkpt lat="50.33069" lon="3.41343">
        <ele>28.0155029</ele>
        <time>2011-08-15T10:48:46Z</time>
      </trkpt>
      <trkpt lat="50.33077" lon="3.4135">
        <ele>28.0155029</ele>
        <time>2011-08-15T10:48:50Z</time>
      </trkpt>
      <trkpt lat="50.3308" lon="3.4135">
        <ele>28.4962158</ele>
        <time>2011-08-15T10:48:51Z</time>
      </trkpt>
      <trkpt lat="50.3309" lon="3.41352">
        <ele>30.8995361</ele>
        <time>2011-08-15T10:48:55Z</time>
      </trkpt>
      <trkpt lat="50.33091" lon="3.41352">
        <ele>31.8607178</ele>
        <time>2011-08-15T10:48:56Z</time>
      </trkpt>
    </trkseg>
  </trk>
</gpx>